[[{"header":{"parameterUnit":"m.s-1","parameterCategory":1,"la1":30.6,"la2":28.766,"lo1":-90.7593,"lo2":-88.6598,"dy":0.0162,"dx":0.0183,"nx":116,"ny":114,"refTime":"2023-04-08T00:00:00:Z","depth":0,"parameterNumber":2,"parameterNumberName":"U-component_of_WINDS"},"data":[0.0,0.0,0.0,0.0,0.0,0.0,0.0,0.0,0.0,0.0,0.0,0.0,0.0,0.0,0.0,0.0,0.0,0.0,0.0,0.0,0.0,0.0,0.0,0.0,0.0,0.0,0.0,0.0,0.0,0.0,0.0,0.0,0.0,0.0,0.0,0.0,0.0,0.0,0.0,0.0,0.0,0.0,0.0,0.0,0.0,0.0,0.0,0.0,0.0,0.0,0.0,0.0,0.0,0.0,0.0,0.0,0.0,0.0,0.0,0.0,0.0,0.0,0.0,0.0,0.0,0.0,0.0,0.0,0.0,0.0,0.0,0.0,0.0,0.0,0.0,0.0,0.0,0.0,0.0,0.0,0.0,0.0,0.0,0.0,0.0,0.0,0.0,0.0,0.0,0.0,0.0,0.0,0.0,0.0,0.0,0.0,0.0,0.0,0.0,0.0,0.0,0.0,0.0,0.0,0.0,0.0,0.0,0.0,0.0,0.0,0.0,0.0,0.0,0.0,0.0,0.0,0.0,0.0,0.0,0.0,0.0,0.0,0.0,0.0,0.0,0.0,0.0,0.0,0.0,0.0,0.0,0.0,0.0,0.0,0.0,0.0,0.0,0.0,0.0,0.0,0.0,0.0,0.0,0.0,0.0,0.0,0.0,0.0,0.0,0.0,0.0,0.0,0.0,0.0,0.0,0.0,0.0,0.0,0.0,0.0,0.0,0.0,0.0,0.0,0.0,0.0,0.0,0.0,0.0,0.0,0.0,0.0,0.0,0.0,0.0,0.0,0.0,0.0,0.0,0.0,0.0,0.0,0.0,0.0,0.0,0.0,0.0,0.0,0.0,0.0,0.0,0.0,0.0,0.0,0.0,0.0,0.0,0.0,0.0,0.0,0.0,0.0,0.0,0.0,0.0,0.0,0.0,0.0,0.0,0.0,0.0,0.0,0.0,0.0,0.0,0.0,0.0,0.0,0.0,0.0,0.0,0.0,0.0,0.0,0.0,0.0,0.0,0.0,0.0,0.0,0.0,0.0,0.0,0.0,0.0,0.0,0.0,0.0,0.0,0.0,0.0,0.0,0.0,0.0,0.0,0.0,0.0,0.0,0.0,0.0,0.0,0.0,0.0,0.0,0.0,0.0,0.0,0.0,0.0,0.0,0.0,0.0,0.0,0.0,0.0,0.0,0.0,0.0,0.0,0.0,0.0,0.0,0.0,0.0,0.0,0.0,0.0,0.0,0.0,0.0,0.0,0.0,0.0,0.0,0.0,0.0,0.0,0.0,0.0,0.0,0.0,0.0,0.0,0.0,0.0,0.0,0.0,0.0,0.0,0.0,0.0,0.0,0.0,0.0,0.0,0.0,0.0,0.0,0.0,0.0,0.0,0.0,0.0,0.0,0.0,0.0,0.0,0.0,0.0,0.0,0.0,0.0,0.0,0.0,0.0,0.0,0.0,0.0,0.0,0.0,0.0,0.0,0.0,0.0,0.0,0.0,0.0,0.0,0.0,0.0,0.0,0.0,0.0,0.0,0.0,0.0,0.0,0.0,0.0,0.0,0.0,0.0,0.0,0.0,0.0,0.0,0.0,0.0,0.0,0.0,0.0,0.0,0.0,0.0,0.0,0.0,0.0,0.0,0.0,0.0,0.0,0.0,0.0,0.0,0.0,0.0,0.0,0.0,0.0,0.0,0.0,0.0,0.0,0.0,0.0,0.0,0.0,0.0,0.0,0.0,0.0,0.0,0.0,0.0,0.0,0.0,0.0,0.0,0.0,0.0,0.0,0.0,0.0,0.0,0.0,0.0,0.0,0.0,0.0,0.0,0.0,0.0,0.0,0.0,0.0,0.0,0.0,0.0,0.0,0.0,0.0,0.0,0.0,0.0,0.0,0.0,0.0,0.0,0.0,0.0,0.0,0.0,0.0,0.0,0.0,0.0,0.0,0.0,0.0,0.0,0.0,0.0,0.0,0.0,0.0,0.0,0.0,0.0,0.0,0.0,0.0,0.0,0.0,0.0,0.0,0.0,0.0,0.0,0.0,0.0,0.0,0.0,0.0,0.0,0.0,0.0,0.0,0.0,0.0,0.0,0.0,0.0,0.0,0.0,0.0,0.0,0.0,0.0,0.0,0.0,0.0,0.0,0.0,0.0,0.0,0.0,0.0,0.0,0.0,0.0,0.0,0.0,0.0,0.0,0.0,0.0,0.0,0.0,0.0,0.0,0.0,0.0,0.0,0.0,0.0,0.0,0.0,0.0,0.0,0.0,0.0,0.0,0.0,0.0,0.0,0.0,0.0,0.0,0.0,0.0,0.0,0.0,0.0,0.0,0.0,0.0,0.0,0.0,0.0,0.0,0.0,0.0,0.0,0.0,0.0,0.0,0.0,0.0,0.0,0.0,0.0,0.0,0.0,0.0,0.0,0.0,0.0,0.0,0.0,0.0,0.0,0.0,0.0,0.0,0.0,0.0,0.0,0.0,0.0,0.0,0.0,0.0,0.0,0.0,0.0,0.0,0.0,0.0,0.0,0.0,0.0,0.0,0.0,0.0,0.0,0.0,0.0,0.0,0.0,0.0,0.0,0.0,0.0,0.0,0.0,0.0,0.0,0.0,0.0,0.0,0.0,0.0,0.0,0.0,0.0,0.0,0.0,0.0,0.0,0.0,0.0,0.0,0.0,0.0,0.0,0.0,0.0,0.0,0.0,0.0,0.0,0.0,0.0,0.0,0.0,0.0,0.0,0.0,0.0,0.0,0.0,0.0,0.0,0.0,0.0,0.0,0.0,0.0,0.0,0.0,0.0,0.0,0.0,0.0,0.0,0.0,0.0,0.0,0.0,0.0,0.0,0.0,0.0,0.0,0.0,0.0,0.0,0.0,0.0,0.0,0.0,0.0,0.0,0.0,0.0,0.0,0.0,0.0,0.0,0.0,0.0,0.0,0.0,0.0,0.0,0.0,0.0,0.0,0.0,0.0,0.0,0.0,0.0,0.0,0.0,0.0,0.0,0.0,0.0,0.0,0.0,0.0,0.0,0.0,0.0,0.0,0.0,0.0,0.0,0.0,0.0,0.0,0.0,0.0,0.0,0.0,0.0,0.0,0.0,0.0,0.0,0.0,0.0,0.0,0.0,0.0,0.0,0.0,0.0,0.0,0.0,0.0,0.0,0.0,0.0,0.0,0.0,0.0,0.0,0.0,0.0,0.0,0.0,0.0,0.0,0.0,0.0,0.0,0.0,0.0,0.0,0.0,0.0,0.0,0.0,0.0,0.0,0.0,0.0,0.0,0.0,0.0,0.0,0.0,0.0,0.0,0.0,0.0,0.0,0.0,0.0,0.0,0.0,0.0,0.0,0.0,0.0,0.0,0.0,0.0,0.0,0.0,0.0,0.0,0.0,0.0,0.0,0.0,0.0,0.0,0.0,0.0,0.0,0.0,0.0,0.0,0.0,0.0,0.0,0.0,0.0,0.0,0.0,0.0,0.0,0.0,0.0,0.0,0.0,0.0,0.0,0.0,0.0,0.0,0.0,0.0,0.0,0.0,0.0,0.0,0.0,0.0,0.0,0.0,0.0,0.0,0.0,0.0,0.0,0.0,0.0,0.0,0.0,0.0,0.0,0.0,0.0,0.0,0.0,0.0,0.0,0.0,0.0,0.0,0.0,0.0,0.0,0.0,0.0,0.0,0.0,0.0,0.0,0.0,0.0,0.0,0.0,0.0,0.0,0.0,0.0,0.0,0.0,0.0,0.0,0.0,0.0,0.0,0.0,0.0,0.0,0.0,0.0,0.0,0.0,0.0,0.0,0.0,0.0,0.0,0.0,0.0,0.0,0.0,0.0,0.0,0.0,0.0,0.0,0.0,0.0,0.0,0.0,0.0,0.0,0.0,0.0,0.0,0.0,0.0,0.0,0.0,0.0,0.0,0.0,0.0,0.0,0.0,0.0,0.0,0.0,0.0,0.0,0.0,0.0,0.0,0.0,0.0,0.0,0.0,0.0,0.0,0.0,0.0,0.0,0.0,0.0,0.0,0.0,0.0,0.0,0.0,0.0,0.0,0.0,0.0,0.0,0.0,0.0,0.0,0.0,0.0,0.0,0.0,0.0,0.0,0.0,0.0,0.0,0.0,0.0,0.0,0.0,0.0,0.0,0.0,0.0,0.0,0.0,0.0,0.0,0.0,0.0,0.0,0.0,0.0,0.0,0.0,0.0,0.0,0.0,0.0,0.0,0.0,0.0,0.0,0.0,0.0,0.0,0.0,0.0,0.0,0.0,0.0,0.0,0.0,0.0,0.0,0.0,0.0,0.0,0.0,0.0,0.0,0.0,0.0,0.0,0.0,0.0,0.0,0.0,0.0,0.0,0.0,0.0,0.0,0.0,0.0,0.0,0.0,0.0,0.0,0.0,0.0,0.0,0.0,0.0,0.0,0.0,0.0,0.0,0.0,0.0,0.0,0.0,0.0,0.0,0.0,0.0,0.0,0.0,0.0,0.0,0.0,0.0,0.0,0.0,0.0,0.0,0.0,0.0,0.0,0.0,0.0,0.0,0.0,0.0,0.0,0.0,0.0,0.0,0.0,0.0,0.0,0.0,0.0,0.0,0.0,0.0,0.0,0.0,0.0,0.0,0.0,0.0,0.0,0.0,0.0,0.0,0.0,0.0,0.0,0.0,0.0,0.0,0.0,0.0,0.0,0.0,0.0,0.0,0.0,0.0,0.0,0.0,0.0,0.0,0.0,0.0,0.0,0.0,0.0,0.0,0.0,0.0,0.0,0.0,0.0,0.0,0.0,0.0,0.0,0.0,0.0,0.0,0.0,0.0,0.0,0.0,0.0,0.0,0.0,0.0,0.0,0.0,0.0,0.0,0.0,0.0,0.0,0.0,0.0,0.0,0.0,0.0,0.0,0.0,0.0,0.0,0.0,0.0,0.0,0.0,0.0,0.0,0.0,0.0,0.0,0.0,0.0,0.0,0.0,0.0,0.0,0.0,0.0,0.0,0.0,0.0,0.0,0.0,0.0,0.0,0.0,0.0,0.0,0.0,0.0,0.0,0.0,0.0,0.0,0.0,0.0,0.0,0.0,0.0,0.0,0.0,0.0,0.0,0.0,0.0,0.0,0.0,0.0,0.0,0.0,0.0,0.0,0.0,0.0,0.0,0.0,0.0,0.0,0.0,0.0,0.0,0.0,0.0,0.0,0.0,0.0,0.0,0.0,0.0,0.0,0.0,0.0,0.0,0.0,0.0,0.0,0.0,0.0,0.0,0.0,0.0,0.0,0.0,0.0,0.0,0.0,0.0,0.0,0.0,0.0,0.0,0.0,0.0,0.0,0.0,0.0,0.0,0.0,0.0,0.0,0.0,0.0,0.0,0.0,0.0,0.0,0.0,0.0,0.0,0.0,0.0,0.0,0.0,0.0,0.0,0.0,0.0,0.0,0.0,0.0,0.0,0.0,0.0,0.0,0.0,0.0,0.0,0.0,0.0,0.0,0.0,0.0,0.0,0.0,0.0,0.0,0.0,0.0,0.0,0.0,0.0,0.0,0.0,0.0,0.0,0.0,0.0,0.0,0.0,0.0,0.0,0.0,0.0,0.0,0.0,0.0,0.0,0.0,0.0,0.0,0.0,0.0,0.0,0.0,0.0,0.0,0.0,0.0,0.0,0.0,0.0,0.0,0.0,0.0,0.0,0.0,0.0,0.0,0.0,0.0,0.0,0.0,0.0,0.0,0.0,0.0,0.0,0.0,0.0,0.0,0.0,0.0,0.0,0.0,0.0,0.0,0.0,0.0,0.0,0.0,0.0,0.0,0.0,0.0,0.0,0.0,0.0,0.0,0.0,0.0,0.0,0.0,0.0,0.0,0.0,0.0,0.0,0.0,0.0,0.0,0.0,0.0,0.0,0.0,0.0,0.0,0.0,0.0,0.0,0.0,0.0,0.0,0.0,0.0,0.0,0.0,0.0,0.0,0.0,0.0,0.0,0.0,0.0,0.0,0.0,0.0,0.0,0.0,0.0,0.0,0.0,0.0,0.0,0.0,0.0,0.0,0.0,0.0,0.0,0.0,0.0,0.0,0.0,0.0,0.0,0.0,0.0,0.0,0.0,0.0,0.0,0.0,3.8337,0.0,0.0,0.0,0.0,0.0,0.0,0.0,0.0,0.0,0.0,0.0,0.0,0.0,0.0,0.0,0.0,0.0,0.0,0.0,0.0,0.0,0.0,0.0,0.0,4.5132,4.4616,4.3342,4.3223,4.2669,4.1338,4.1542,4.1459,4.0902,4.1152,4.1428,4.1731,4.1982,4.2231,4.2482,4.3649,4.4999,4.6463,4.5231,4.4346,4.3744,0.0,0.0,0.0,0.0,0.0,0.0,0.0,0.0,0.0,0.0,0.0,0.0,0.0,0.0,0.0,0.0,0.0,0.0,0.0,0.0,0.0,0.0,0.0,0.0,0.0,0.0,0.0,0.0,0.0,0.0,0.0,0.0,0.0,0.0,0.0,0.0,0.0,0.0,0.0,0.0,0.0,0.0,0.0,0.0,0.0,0.0,0.0,0.0,0.0,0.0,0.0,0.0,0.0,0.0,0.0,0.0,0.0,0.0,0.0,0.0,0.0,0.0,0.0,0.0,0.0,0.0,0.0,0.0,0.0,0.0,0.0,3.8728,0.0,0.0,0.0,0.0,0.0,0.0,0.0,0.0,0.0,0.0,0.0,0.0,0.0,0.0,0.0,0.0,0.0,0.0,0.0,0.0,0.0,4.5601,4.4831,4.4738,4.4137,4.2644,4.2724,4.2371,4.1358,4.1566,4.1643,4.1453,4.1628,4.1982,4.2462,4.3014,4.3601,4.4254,4.6236,4.7724,4.8762,4.8845,4.8326,4.7274,4.5876,0.0,0.0,0.0,0.0,0.0,0.0,0.0,0.0,0.0,0.0,0.0,0.0,0.0,0.0,0.0,0.0,0.0,0.0,0.0,0.0,0.0,0.0,0.0,0.0,0.0,0.0,0.0,0.0,0.0,0.0,0.0,0.0,0.0,0.0,0.0,0.0,0.0,0.0,0.0,0.0,0.0,0.0,0.0,0.0,0.0,0.0,0.0,0.0,0.0,0.0,0.0,0.0,0.0,0.0,0.0,0.0,0.0,0.0,0.0,0.0,0.0,0.0,0.0,3.9707,3.9902,3.9902,3.9961,4.0,3.9961,3.9316,3.9178,3.9316,3.9316,0.0,0.0,0.0,0.0,0.0,0.0,0.0,0.0,0.0,0.0,0.0,0.0,0.0,0.0,0.0,0.0,0.0,0.0,0.0,4.6053,4.6414,4.6449,4.5884,4.4393,4.5145,4.4424,4.149,4.2673,4.3063,4.2114,4.2961,4.3514,4.3589,4.4116,4.4935,4.6039,4.8927,5.0396,5.0557,5.1008,5.1178,5.0931,4.8763,4.781,4.7728,0.0,0.0,0.0,0.0,0.0,0.0,0.0,0.0,0.0,0.0,0.0,0.0,0.0,0.0,0.0,0.0,0.0,0.0,0.0,0.0,0.0,0.0,0.0,0.0,0.0,0.0,0.0,0.0,0.0,0.0,0.0,0.0,0.0,0.0,0.0,0.0,0.0,0.0,0.0,0.0,0.0,4.138,4.1477,0.0,0.0,0.0,0.0,0.0,0.0,0.0,0.0,0.0,0.0,0.0,0.0,0.0,3.9726,3.9726,3.9766,3.9805,3.9805,3.9863,3.9902,3.9902,4.0273,4.043,4.0449,4.0723,0.0,3.9805,3.9805,0.0,0.0,0.0,0.0,0.0,0.0,0.0,0.0,0.0,0.0,0.0,0.0,0.0,0.0,0.0,0.0,0.0,0.0,0.0,0.0,0.0,4.6614,4.6312,4.5395,4.5901,4.5596,4.3978,4.4563,4.455,4.3595,4.4016,4.4267,4.4267,4.5492,4.7166,4.9391,5.0023,5.085,5.1788,5.1349,5.1317,5.1591,5.0617,4.9399,4.8161,4.7593,0.0,0.0,0.0,0.0,0.0,0.0,0.0,0.0,0.0,0.0,0.0,0.0,0.0,0.0,0.0,0.0,0.0,0.0,0.0,0.0,0.0,0.0,0.0,0.0,0.0,0.0,0.0,0.0,0.0,0.0,0.0,0.0,0.0,0.0,0.0,0.0,0.0,0.0,0.0,4.1173,4.1875,4.1329,4.0808,4.0294,0.0,0.0,0.0,0.0,0.0,0.0,0.0,0.0,0.0,3.9883,4.0117,4.0254,4.0254,4.0723,4.0957,4.0976,4.1211,4.1308,4.1328,4.1465,4.1543,4.1562,4.1797,4.166,4.1308,4.1074,4.1113,4.1308,0.0,0.0,0.0,0.0,4.1308,4.1308,0.0,0.0,0.0,0.0,0.0,0.0,0.0,0.0,0.0,0.0,0.0,0.0,4.6965,4.7166,4.7214,4.6931,4.729,4.7124,4.6213,4.6348,4.5896,4.4651,4.4769,4.489,4.5016,4.6937,4.9019,5.1209,5.0618,5.1006,5.2266,5.1357,5.1169,5.16,5.1279,5.0356,4.8977,4.8655,4.8003,4.7196,0.0,0.0,0.0,0.0,0.0,0.0,0.0,0.0,0.0,0.0,0.0,0.0,0.0,0.0,0.0,0.0,0.0,0.0,0.0,0.0,0.0,0.0,0.0,0.0,0.0,0.0,0.0,0.0,0.0,0.0,0.0,0.0,0.0,0.0,0.0,0.0,0.0,4.2029,4.3008,4.2237,4.228,4.2065,0.0,0.0,0.0,0.0,0.0,0.0,4.0215,4.0332,4.043,4.0547,4.084,4.1016,4.1016,4.1641,4.1953,4.1973,4.2383,4.2598,4.2598,4.2832,4.2889,4.293,4.3006,4.3045,4.2987,4.2266,4.2148,4.2382,4.2382,4.2382,4.2401,4.2558,4.2598,4.2617,0.0,0.0,0.0,0.0,0.0,0.0,0.0,0.0,0.0,0.0,0.0,4.8337,4.8874,4.9175,4.9411,4.9588,5.0308,4.9657,4.7016,4.7565,4.6986,4.4705,4.5146,4.5698,4.6195,4.8507,4.977,4.9891,5.0993,5.1577,5.1663,5.1575,5.1546,5.1571,5.0416,5.0453,5.1346,5.0191,4.9676,4.9525,4.8339,0.0,0.0,0.0,0.0,0.0,0.0,0.0,0.0,0.0,0.0,0.0,0.0,0.0,0.0,0.0,0.0,0.0,0.0,0.0,0.0,0.0,0.0,0.0,0.0,0.0,0.0,0.0,0.0,0.0,0.0,0.0,0.0,0.0,0.0,0.0,0.0,0.0,0.0,4.5851,4.6263,0.0,0.0,0.0,0.0,4.2076,4.1085,4.0664,4.1132,4.1484,4.1894,4.2245,4.2284,4.2284,4.2284,4.2343,4.2362,4.2402,4.2832,4.3047,4.3066,4.3906,4.4297,4.4316,4.4726,4.486,4.4723,4.3045,4.2362,4.2382,4.2382,4.2382,4.244,4.2891,4.3047,4.3105,0.0,0.0,0.0,0.0,0.0,4.6948,4.7073,4.718,4.7505,4.8185,4.8577,4.9027,4.9671,5.0327,5.0841,5.1062,5.1576,5.1345,5.0009,4.9282,4.8421,4.7401,4.6822,4.7142,4.8524,4.9365,5.0176,5.0981,5.0598,5.0631,5.0941,5.0149,4.9987,5.0286,4.9848,4.991,5.0297,4.9945,4.9329,4.8595,4.8963,4.8625,0.0,0.0,0.0,0.0,0.0,0.0,0.0,0.0,0.0,0.0,0.0,0.0,0.0,0.0,0.0,0.0,0.0,0.0,0.0,0.0,0.0,0.0,0.0,0.0,0.0,0.0,0.0,0.0,0.0,0.0,0.0,0.0,0.0,0.0,0.0,0.0,0.0,4.5136,4.6199,0.0,4.4869,4.3709,4.285,4.2381,4.1955,4.1816,4.1973,4.2129,4.2226,4.2382,4.2969,4.3242,4.3242,4.3767,4.406,4.406,4.4258,4.4336,4.4336,4.4648,4.4805,4.4805,4.4918,4.4977,4.4938,4.4313,4.406,4.406,4.406,4.406,4.4079,4.4277,4.4336,4.4355,0.0,0.0,0.0,0.0,0.0,4.7539,4.7696,4.7981,4.8427,4.914,4.948,4.991,5.0587,5.1203,5.1787,5.2432,5.2526,5.2252,5.1499,5.0409,4.9412,4.8618,4.7988,4.8235,4.9456,4.9636,5.0114,5.0937,5.0114,4.992,5.0275,4.9451,4.927,4.959,4.959,4.959,4.9604,4.97,4.9243,4.8548,4.9398,4.9243,4.8485,0.0,0.0,0.0,0.0,0.0,0.0,0.0,0.0,0.0,0.0,0.0,0.0,0.0,0.0,0.0,0.0,0.0,0.0,0.0,0.0,0.0,0.0,0.0,0.0,0.0,0.0,0.0,0.0,0.0,0.0,0.0,0.0,0.0,0.0,4.3961,4.499,4.5026,4.6184,4.6396,4.488,4.4256,4.3753,4.326,4.2958,4.2851,4.2851,4.3104,4.326,4.326,4.3848,4.416,4.416,4.4684,4.4977,4.4977,4.5176,4.5254,4.5254,4.5391,4.5449,4.5449,4.5449,4.5449,4.5449,4.5449,4.5449,4.543,4.5094,4.4977,4.4996,4.5195,4.5254,4.5273,0.0,0.0,0.0,0.0,0.0,4.7934,4.7963,4.8834,4.9522,4.9522,5.0295,5.1066,5.1695,5.1814,5.2372,5.3674,5.3234,5.2433,5.123,5.0856,4.9873,4.8001,4.8485,4.8818,4.8818,4.9314,4.959,4.959,4.959,4.959,4.959,4.959,4.959,4.959,4.959,4.959,4.959,4.959,4.959,4.959,4.959,4.959,4.959,0.0,0.0,0.0,0.0,0.0,0.0,0.0,0.0,0.0,0.0,0.0,0.0,0.0,0.0,0.0,0.0,0.0,0.0,0.0,0.0,0.0,0.0,0.0,0.0,0.0,0.0,0.0,0.0,0.0,0.0,0.0,0.0,0.0,4.4286,4.531,4.5884,4.5921,4.6675,4.7203,4.717,4.5739,4.4822,4.4824,4.4138,4.375,4.375,4.4551,4.4977,4.4977,4.4996,4.4996,4.4996,4.5016,4.5016,4.5035,4.5488,4.5746,4.5703,4.6113,4.6308,4.6308,4.6308,4.6308,4.6308,4.6308,4.6308,4.623,4.5391,4.5016,4.5117,4.5547,4.5746,4.5762,0.0,0.0,0.0,4.7938,4.8103,4.8507,4.944,4.9542,4.9716,5.0378,5.0958,5.1359,5.1512,5.2368,5.3107,5.3487,5.3392,5.308,5.2518,5.1368,5.0058,4.8611,4.9063,4.9364,4.9364,4.9515,4.959,4.959,4.959,4.959,4.959,4.959,4.959,4.959,4.959,4.959,4.959,4.959,4.959,4.959,4.959,4.959,4.959,0.0,0.0,0.0,0.0,0.0,0.0,0.0,0.0,0.0,0.0,0.0,0.0,0.0,0.0,0.0,0.0,0.0,0.0,0.0,0.0,0.0,0.0,0.0,0.0,0.0,0.0,0.0,0.0,0.0,0.0,0.0,4.3724,4.3952,4.4251,4.4768,4.5549,4.6697,4.7029,4.7001,4.6426,4.5991,4.5514,4.4988,4.4764,4.4626,4.4626,4.486,4.4977,4.4977,4.5332,4.5508,4.5508,4.5801,4.5957,4.5957,4.6074,4.6133,4.6133,4.625,4.6308,4.6308,4.6308,4.6308,4.6308,4.6308,4.6308,4.6289,4.6035,4.5957,4.5957,4.6094,4.6133,4.6152,0.0,0.0,0.0,4.8207,4.8745,4.9329,4.9961,5.0056,5.0212,5.0739,5.1296,5.1733,5.1969,5.2846,5.3457,5.359,5.329,5.2898,5.2462,5.1052,4.9913,4.9183,4.9414,4.959,4.959,4.959,4.959,4.959,4.959,4.959,4.959,4.959,4.959,4.959,4.959,4.959,4.959,4.959,4.959,4.959,4.959,4.959,4.959,4.959,4.959,4.959,4.959,4.959,4.959,4.959,0.0,0.0,0.0,0.0,0.0,0.0,0.0,0.0,0.0,0.0,0.0,0.0,0.0,0.0,0.0,0.0,0.0,0.0,0.0,0.0,0.0,0.0,0.0,0.0,4.4321,4.4381,4.4502,4.5002,4.5695,4.662,4.6466,4.6082,4.5695,4.5631,4.5479,4.5023,4.5195,4.5293,4.5293,4.5469,4.5566,4.5566,4.5801,4.5937,4.5937,4.6191,4.6308,4.6308,4.6308,4.6387,4.6562,4.6562,4.666,4.6836,4.6836,4.6836,4.6836,4.6836,4.6836,0.0,0.0,0.0,0.0,0.0,4.6703,4.6526,0.0,0.0,0.0,4.8476,4.9441,5.0156,5.0037,5.0442,5.0805,5.0864,5.1409,5.2067,5.2744,5.3195,5.3561,5.3834,5.3029,5.221,5.151,5.0286,4.959,4.959,4.959,4.959,4.959,4.959,4.959,4.959,4.959,4.959,4.959,4.959,4.959,4.959,4.959,4.959,4.959,4.959,4.959,4.959,4.959,4.959,4.959,4.959,4.959,4.959,4.959,4.959,4.9615,4.9665,0.0,0.0,0.0,0.0,0.0,0.0,0.0,0.0,0.0,0.0,0.0,0.0,0.0,0.0,0.0,0.0,0.0,0.0,0.0,0.0,0.0,0.0,0.0,0.0,4.3848,4.4121,4.4879,4.5606,4.6024,4.5963,4.5392,4.4996,4.5055,4.5098,4.5117,4.5113,4.5527,4.5785,4.5785,4.6094,0.0,0.0,0.0,4.6367,4.6367,4.6426,4.6445,4.6445,4.6445,4.6641,4.6992,4.6992,4.7162,4.7488,4.7488,4.7488,4.7443,4.7443,4.7443,4.7365,4.665,4.6572,4.6917,4.7307,4.7108,4.6702,0.0,0.0,0.0,4.965,5.0039,5.0306,5.0579,5.0597,5.072,5.1222,5.1675,5.2197,5.2817,5.3411,5.3721,5.3605,5.2922,5.2034,5.0872,5.0046,4.959,4.959,4.959,4.959,4.959,4.959,4.959,4.959,4.959,4.959,4.959,4.959,4.959,4.959,4.959,4.959,4.959,4.959,4.959,4.959,4.959,4.959,4.959,4.959,4.959,4.959,4.959,4.959,4.9665,5.0117,5.0268,5.0343,5.0795,5.0556,0.0,0.0,0.0,0.0,0.0,0.0,0.0,0.0,0.0,0.0,0.0,0.0,0.0,0.0,0.0,0.0,0.0,0.0,0.0,4.4704,4.4723,4.4824,4.4957,4.5474,4.5667,4.5269,4.5091,4.5156,4.5508,4.5547,4.5683,4.6035,4.6133,4.6191,4.6191,4.625,4.6308,4.6308,4.6641,4.6772,4.6772,4.7168,4.7324,4.7324,4.7324,0.0,4.7461,4.7461,4.7275,4.6973,4.6973,4.6748,4.6386,4.6386,4.6386,4.6412,4.662,4.6735,4.6767,4.6502,4.634,4.625,0.0,0.0,0.0,5.0099,5.0372,5.053,5.0627,5.0447,5.0514,5.1106,5.1682,5.1995,5.201,5.2591,5.2762,5.2152,5.178,5.1123,5.0164,4.9792,4.959,4.959,4.959,4.959,4.959,4.959,4.959,4.959,4.959,4.959,4.959,4.959,4.959,4.959,4.959,4.959,4.959,4.959,4.9741,5.0017,5.0017,5.0167,5.0368,4.9816,4.9766,5.0017,5.0017,5.0193,5.0469,5.077,5.0845,5.0896,5.1197,5.1172,5.0711,0.0,0.0,0.0,0.0,0.0,0.0,0.0,0.0,0.0,0.0,0.0,0.0,0.0,0.0,4.4355,4.4355,0.0,4.5098,4.5312,4.5351,4.543,4.5625,4.5859,4.584,4.541,4.5547,4.5742,4.5976,4.5996,4.6074,4.6289,4.6308,4.6387,4.6601,4.6621,4.6719,4.6933,4.7148,4.7246,4.7246,4.748,4.7578,4.7578,4.7578,4.7605,4.7528,4.7528,4.7371,4.7125,4.7289,4.7292,4.7079,4.7288,4.7364,4.7364,4.7317,4.7077,4.6729,4.6774,4.6705,4.6624,0.0,0.0,0.0,5.0375,5.0607,5.0728,5.0548,5.0373,5.0472,5.1041,5.1507,5.1629,5.126,5.1473,5.1377,5.0588,5.0564,5.0317,4.9636,4.959,4.959,4.959,4.959,4.959,4.959,4.959,4.959,4.959,4.959,4.959,4.959,4.959,4.959,4.959,4.959,4.9665,4.9766,4.9766,5.0067,5.0569,5.0569,5.087,5.1205,5.0268,5.0193,5.0569,5.0569,5.0896,5.1331,5.1398,5.1481,5.1448,5.1574,5.1674,5.146,4.9984,4.9614,0.0,0.0,0.0,0.0,0.0,0.0,0.0,0.0,4.6626,4.4976,4.666,4.6006,4.5156,4.5156,4.5215,4.5391,4.5742,4.5844,4.5918,4.625,4.6308,4.6211,4.5957,4.6152,4.6308,4.6308,4.6367,4.6426,4.6426,4.6504,4.6699,4.7031,4.7051,4.7226,4.7578,4.7566,4.756,4.756,4.7567,4.7599,4.7677,4.7677,4.7682,4.77,4.77,4.7632,4.7507,4.7705,4.7837,4.7874,4.8194,4.8326,4.8278,4.7817,4.7316,4.6802,4.7187,4.7271,4.7171,0.0,0.0,0.0,0.0,0.0,5.0728,5.0548,5.073,5.1045,5.1461,5.1195,5.1104,5.156,5.074,5.0077,4.9906,5.0342,5.0317,4.9636,4.959,4.959,4.959,4.959,4.959,4.959,4.959,4.959,4.959,4.959,4.959,4.959,4.959,4.959,4.959,4.959,4.9866,5.0318,5.0318,5.067,5.1197,5.1197,5.1255,5.1306,5.118,5.1155,5.1197,5.1197,5.1222,5.1348,5.185,5.2026,5.2101,5.2544,5.3055,5.2979,5.0711,5.0376,4.9915,4.612,4.5464,4.6735,5.0613,5.0327,4.9605,0.0,4.9616,4.7299,4.7423,4.6488,4.5605,4.5605,4.5898,4.6172,4.623,4.623,4.625,4.6289,4.6308,4.6426,4.6714,4.6504,4.6308,4.6308,4.6641,4.6811,4.6811,4.7207,4.7461,4.75,4.75,4.7519,4.7578,4.7541,4.7506,4.7506,4.7431,4.7626,4.7987,4.7987,4.8149,4.85,4.85,4.8186,4.7734,4.7358,4.7183,4.7183,4.7239,4.7257,4.7239,4.7209,4.7117,4.7055,4.7091,4.7147,4.7135,0.0,0.0,0.0,0.0,0.0,5.0543,5.0279,5.0593,5.0759,5.0574,5.0703,5.0487,4.9679,4.908,4.8726,4.8723,4.9529,4.9888,4.9622,4.959,4.959,4.959,4.959,4.959,4.959,4.959,4.959,4.959,4.959,4.959,4.959,4.959,4.959,4.9615,4.9941,5.0193,5.0411,5.077,5.1247,5.1749,5.1749,5.195,5.2226,5.2226,5.2226,5.2167,5.1613,5.1811,0.0,5.2295,5.2694,5.3193,5.3337,5.3583,5.3491,5.1565,5.1199,5.1093,4.9746,4.9584,5.0421,5.3296,5.2763,5.1741,5.2542,5.0292,4.8024,4.794,4.6907,4.6035,4.6035,4.6191,4.6308,4.6308,4.6308,4.6387,4.6641,4.666,4.6816,4.7246,4.7148,4.7051,4.7051,4.7207,4.7305,4.7305,4.7192,4.727,4.7521,4.7268,4.7316,4.7815,4.7801,4.7918,4.8166,4.8102,4.8197,4.8348,4.8348,4.8252,4.8153,4.8153,4.7995,4.7734,4.7539,4.7571,4.7791,4.7791,4.7791,4.7791,4.7791,4.7791,4.7736,4.7277,4.7259,4.7442,0.0,0.0,0.0,0.0,0.0,5.0405,5.0135,5.0567,5.0659,4.9896,5.023,4.9802,4.7834,4.778,4.7908,4.7908,4.8937,4.959,4.959,4.959,4.959,4.959,4.959,4.959,4.959,4.959,4.959,4.959,4.959,4.959,4.959,4.959,4.9665,4.9841,5.0243,5.0561,5.0921,5.1322,5.1825,5.2327,5.2327,5.2544,5.2895,5.2895,5.2901,5.2873,5.2173,5.2442,5.3087,5.2794,5.3205,5.381,5.3636,5.3593,5.3193,5.1498,5.0446,5.0157,5.1627,5.203,5.2593,5.5009,5.4328,5.2959,5.2535,5.0379,4.833,4.7799,4.6922,4.6308,4.6308,4.6308,4.6348,4.6465,4.6484,4.6621,4.7051,4.6976,4.7087,4.7695,4.7528,4.7451,4.7703,4.7651,4.7573,4.7573,4.7287,4.7263,4.7634,4.7398,4.7506,4.8159,4.8036,4.8073,4.8374,4.823,4.8239,4.8351,4.8351,4.8233,4.7958,4.7958,4.793,4.7864,4.7864,4.8084,4.8451,4.8451,4.8524,4.8616,4.8616,4.8616,4.8543,4.7974,4.7809,4.7882,0.0,0.0,0.0,0.0,0.0,5.0405,5.0135,5.0946,5.1148,4.9981,4.9858,4.9021,4.6631,4.7255,4.7908,4.7908,4.8937,4.959,4.959,4.959,4.959,4.959,4.959,4.959,4.959,4.959,4.959,4.959,4.959,4.959,4.959,4.959,4.9891,5.0393,5.0386,5.1021,5.2051,5.2076,5.2402,5.287,5.287,5.287,5.2895,5.2895,5.2953,5.3087,5.3062,5.3087,5.3116,5.3305,5.3394,5.3418,5.3418,5.2921,5.1952,4.9869,4.7354,4.5976,4.9321,5.028,5.1241,5.517,5.4829,5.3196,5.1986,5.0294,4.8462,4.6706,4.6333,4.6308,4.6308,4.6308,4.6426,4.6792,4.687,4.7051,4.75,4.7134,4.7153,4.8099,4.7335,4.7094,4.8003,4.7703,4.7499,4.7499,4.7804,4.7951,4.797,4.8348,4.8557,4.8594,4.8086,4.7798,4.7817,4.7383,4.7344,4.7729,4.7729,4.7931,4.8299,4.8299,4.8299,4.8267,4.8267,4.8506,4.8891,4.8891,4.9111,4.9459,4.9459,4.9459,4.9459,4.9441,4.8928,4.8322,0.0,0.0,0.0,0.0,0.0,0.0,0.0,0.0,5.1177,4.9981,4.9169,0.0,0.0,0.0,0.0,0.0,4.8937,4.959,4.959,4.959,4.959,4.959,4.959,4.959,4.959,4.959,4.959,4.959,4.959,4.959,4.959,4.959,4.9891,5.0444,5.082,5.1398,5.2126,5.2503,5.2719,5.2895,5.2895,5.2895,5.2886,5.2994,5.3068,5.2975,0.0,5.2512,5.3205,5.1833,5.1808,5.2226,5.1335,5.0894,5.0478,4.8965,4.7921,4.7769,5.0492,5.2045,5.3541,5.6089,5.6256,5.5094,5.2345,5.1221,4.9955,4.6943,4.6523,4.6719,4.6719,4.6953,4.7187,4.7344,4.7363,4.741,4.7521,4.7398,4.7484,4.8009,4.7778,4.7789,4.8396,4.8053,4.7806,4.7806,4.7865,4.7851,4.7851,4.7694,4.7754,4.8014,4.7838,4.787,4.8128,4.7981,4.7956,4.8084,4.8377,4.8708,4.9093,4.9093,4.9093,4.9093,4.9093,4.9166,4.9313,4.9313,4.9386,4.9496,4.9496,4.9496,4.9496,4.9496,4.8382,4.7065,0.0,0.0,0.0,0.0,0.0,0.0,0.0,0.0,0.0,0.0,0.0,0.0,0.0,0.0,0.0,0.0,0.0,4.959,4.959,4.959,4.959,4.959,4.959,4.959,4.959,4.959,4.959,4.959,4.959,4.959,4.959,4.959,4.9992,5.0745,5.1122,5.1699,5.2427,5.2744,5.2895,5.2895,5.2895,5.2826,5.2738,5.3018,5.306,0.0,5.1534,5.223,5.3269,5.0648,5.1162,5.2608,5.1097,5.0471,5.0093,4.8861,4.852,4.9154,5.1886,5.3464,5.4754,5.6558,5.6518,5.5426,5.3135,5.164,5.0125,4.7929,4.7159,4.6928,4.7129,4.7383,4.7676,4.8008,4.8047,4.8105,4.8181,4.8026,4.7984,4.8206,4.7883,4.7853,4.8259,4.8041,4.7909,4.7902,4.7846,4.775,4.775,4.7588,4.7644,4.7901,4.7901,4.8102,4.8506,4.8506,4.8579,4.8726,4.9001,4.9258,4.9496,4.9496,4.9496,4.9496,4.9496,4.9588,4.9735,4.9735,4.9808,4.9936,4.9936,4.9936,4.9936,4.9936,4.8494,4.6733,0.0,0.0,0.0,0.0,0.0,0.0,0.0,0.0,0.0,0.0,0.0,0.0,0.0,0.0,0.0,0.0,0.0,0.0,4.959,4.959,4.959,4.959,4.959,4.959,4.959,4.959,4.959,4.959,4.959,4.959,4.959,4.959,5.0193,5.1306,5.1306,5.19,5.2895,5.2895,5.2895,5.2861,5.2861,5.2688,5.2427,5.2903,5.2987,5.2647,5.1512,5.2255,5.3309,4.9914,5.1288,5.408,5.2487,5.151,5.0719,4.949,4.919,4.9998,5.3359,5.4365,5.4835,5.6558,5.5627,5.4283,5.4202,5.1514,4.9099,4.9403,4.8105,4.7129,4.7539,4.7637,4.7884,4.8723,4.884,4.8947,4.9242,4.89,4.8566,4.8537,4.771,4.7294,4.7776,4.7741,4.7766,4.7813,4.7759,4.7736,4.7736,4.8102,4.8322,4.8322,4.8341,4.8543,4.8946,4.8946,4.9148,4.9533,4.9533,4.9551,4.9569,4.9569,4.9569,4.9569,4.9569,4.9808,5.0141,5.0141,5.0431,5.078,5.078,5.0676,5.0571,5.0571,4.9052,4.6961,0.0,0.0,0.0,0.0,0.0,0.0,0.0,0.0,0.0,0.0,0.0,0.0,0.0,0.0,0.0,0.0,0.0,0.0,4.959,4.959,4.959,4.959,4.959,4.959,4.959,4.959,4.959,4.959,4.959,4.959,4.959,4.959,5.0193,5.1306,5.1306,5.19,5.2895,5.2895,5.2757,5.255,5.255,5.2308,5.2024,5.265,5.2839,5.2659,5.1647,5.2371,5.3309,4.9914,4.9941,5.125,5.0809,5.1048,5.1445,5.1094,5.191,5.3153,5.4038,5.5281,5.6438,5.6901,5.5627,5.3956,5.268,5.0846,4.9102,4.7846,4.7735,4.791,4.8027,4.8,4.8061,4.8293,4.8256,4.8101,4.7789,4.7899,4.7977,4.7935,4.768,4.7711,4.8152,4.8164,4.8133,4.8189,4.8164,4.8139,4.8139,4.8524,4.8744,4.8744,4.9038,4.9239,4.9349,4.9349,4.9551,4.9973,4.9973,5.012,5.0413,5.0413,5.0413,5.0413,5.0413,5.0633,5.1,5.1,5.1257,5.157,5.157,5.0472,4.8887,4.8887,4.6318,4.2803,0.0,0.0,0.0,0.0,0.0,0.0,0.0,0.0,0.0,0.0,0.0,0.0,0.0,0.0,0.0,0.0,0.0,0.0,0.0,4.959,4.959,4.959,4.959,4.959,4.959,4.959,4.959,4.959,4.959,4.959,4.959,4.959,5.0067,5.0921,5.1172,5.1749,5.2544,5.2795,5.2723,0.0,0.0,5.204,5.1639,5.2475,5.2708,5.2489,5.1597,5.1892,5.255,5.1662,5.1357,5.1479,5.1863,5.2399,5.2846,5.2846,5.3546,5.4446,5.5264,5.6214,5.6821,5.6013,5.5038,5.3879,5.2299,5.074,4.9435,4.8788,4.8393,4.8229,4.8388,4.8381,4.839,4.8585,4.8548,4.8422,4.8062,4.8256,4.8285,4.7968,4.7956,4.8102,4.8524,4.8561,4.8634,4.8799,4.8653,4.8561,4.8561,4.8946,4.9166,4.9166,4.9386,4.9588,4.9771,4.9955,5.0156,5.0343,5.0343,5.0505,5.0725,5.0908,5.0982,5.0982,5.1183,5.1332,5.1587,5.1587,5.1059,5.033,5.033,4.8859,4.6708,4.6708,4.4444,4.1341,0.0,0.0,0.0,0.0,0.0,0.0,0.0,0.0,0.0,0.0,5.074,4.9477,4.8471,4.8007,0.0,0.0,0.0,0.0,0.0,0.0,4.959,4.959,4.959,4.959,4.959,4.959,4.959,4.959,4.959,4.959,4.959,4.959,4.9891,5.0411,5.0946,5.1523,5.2126,5.2628,5.2613,5.2342,5.2342,5.1831,5.1263,0.0,5.255,5.222,5.181,5.1685,5.2017,5.4062,5.4051,5.3366,5.4257,5.4604,5.4673,5.4673,5.4673,5.4998,5.6558,5.6821,5.6254,5.4714,5.4002,5.3378,5.2187,5.065,4.9635,5.037,4.9352,4.8383,4.8654,4.8612,4.8709,4.8952,4.9026,4.9001,4.8897,4.8959,4.883,4.8385,4.8341,4.8506,4.8873,4.8964,4.9129,4.9478,4.9239,4.9056,4.9001,4.9368,4.9606,4.9661,4.9661,4.9845,5.016,5.0541,5.0725,5.0725,5.078,5.0798,5.0817,5.122,5.1385,5.1422,5.1735,5.1919,5.1955,5.1635,5.0276,4.8437,4.8111,4.6528,4.4364,4.4364,4.2936,4.0967,0.0,0.0,0.0,0.0,0.0,0.0,0.0,0.0,0.0,0.0,5.1265,4.9817,0.0,0.0,0.0,0.0,0.0,0.0,0.0,0.0,0.0,4.959,4.959,4.959,4.959,4.959,4.959,4.959,4.959,4.959,4.959,4.959,4.9891,5.0386,5.0519,5.1147,5.2126,5.2201,5.2092,5.1925,5.1925,5.1471,5.0922,5.1983,5.2356,0.0,5.3101,5.367,5.4138,5.4957,5.512,5.5055,5.5659,5.616,5.6518,5.6518,5.6518,5.6598,5.6901,5.5933,5.4714,5.4365,5.2321,5.0354,5.0093,4.9247,4.8506,4.8664,4.8631,4.8616,4.8676,4.8291,4.8001,4.8054,4.8014,4.7962,4.7938,4.8232,4.8385,4.8335,4.8598,4.8836,4.8909,4.9203,4.9423,4.9496,4.9753,4.9771,4.9423,4.979,5.0175,5.0505,5.0505,5.0541,5.0615,5.0688,5.0725,5.0725,5.1055,5.1202,5.122,5.1589,5.1772,5.1772,5.1845,5.2065,5.2251,5.0251,4.9371,4.9079,4.7066,4.4828,4.2738,4.2738,4.1174,3.9192,0.0,0.0,0.0,0.0,0.0,0.0,0.0,5.2662,5.3474,5.3474,5.1975,5.0823,5.0823,4.9147,4.8256,0.0,0.0,0.0,0.0,0.0,0.0,4.959,4.959,4.959,4.959,4.959,4.959,4.959,0.0,4.959,4.959,4.959,4.9741,4.9992,5.0293,5.0687,5.1272,5.185,5.1809,5.1427,5.1698,5.1365,5.0792,5.1562,5.2247,0.0,5.2571,5.2817,5.3334,5.3928,5.4241,5.4689,5.6152,5.6765,5.6981,5.6981,5.6981,5.6782,5.5852,5.4957,5.3879,5.2259,5.0719,4.9479,4.9001,4.8522,4.8248,4.842,4.8613,4.866,4.8557,4.8341,4.8111,4.8071,4.803,4.7992,4.7992,4.8359,4.8616,4.8616,4.8964,4.9313,4.9482,4.9716,4.9918,5.012,5.0321,5.0266,4.9845,5.0211,5.0523,5.0706,5.0725,5.0725,5.0725,5.0927,5.1018,5.1037,5.144,5.1642,5.1642,5.201,5.2193,5.214,5.1117,5.0752,5.0765,4.831,4.6692,4.5619,4.4491,4.2532,4.0411,4.0411,3.9661,3.8718,0.0,0.0,0.0,0.0,0.0,0.0,0.0,5.2775,5.3474,5.3474,5.2675,5.2082,5.2082,5.0081,4.8979,0.0,0.0,0.0,0.0,0.0,0.0,0.0,4.959,4.959,4.959,0.0,0.0,4.959,4.959,0.0,0.0,0.0,0.0,0.0,5.0042,5.0253,5.0337,5.1364,5.1433,0.0,0.0,5.1295,5.0768,0.0,0.0,0.0,0.0,5.1978,5.2241,5.271,5.2959,5.3455,5.5309,5.6398,5.6981,5.6981,5.6718,5.6094,5.4714,5.3752,5.2603,5.0225,4.9394,4.8979,4.8344,4.8359,4.8534,4.8654,4.8755,4.87,4.8447,4.839,4.8361,4.833,4.8359,4.8414,4.8414,4.8781,4.9038,4.9038,4.9386,4.9771,5.005,5.016,5.0343,5.0706,5.0725,5.0578,5.0233,5.056,5.0725,5.0725,5.0798,5.0853,5.0853,5.1238,5.144,5.144,5.1862,5.1743,5.1243,5.1694,5.1585,5.0988,4.9423,4.875,4.8528,4.6126,4.4038,4.2232,4.1761,4.034,3.8718,3.8718,3.8718,3.8718,0.0,0.0,0.0,0.0,0.0,0.0,0.0,5.3065,5.3474,5.3474,5.3395,5.3343,5.3343,5.0265,4.8407,0.0,0.0,0.0,0.0,0.0,0.0,0.0,0.0,0.0,0.0,0.0,0.0,4.959,4.959,0.0,0.0,0.0,0.0,0.0,0.0,4.9779,4.9983,5.058,0.0,0.0,0.0,0.0,0.0,0.0,0.0,0.0,0.0,5.3176,5.2638,5.2684,5.234,5.1908,5.2118,5.4388,5.6981,5.6981,5.5852,5.451,5.4324,5.1952,4.9528,4.9578,4.8695,4.7861,4.8151,4.8828,4.9227,4.8789,4.8948,4.9017,4.851,4.8337,4.8299,4.8267,4.8598,4.8854,4.8854,4.9203,4.9441,4.9441,4.9808,5.0032,5.0068,5.0398,5.0688,5.0706,5.0725,5.0706,5.067,5.0706,5.0725,5.0725,5.1073,5.1257,5.1257,5.1607,5.1827,5.1827,5.223,5.1297,4.9213,4.9613,4.8567,4.6526,4.6294,4.6254,4.6053,4.3656,4.2518,4.2076,3.9892,3.8892,3.8718,3.8718,3.8718,3.8718,0.0,0.0,0.0,0.0,0.0,0.0,5.2568,5.3094,5.3474,5.3474,5.3474,5.3474,5.3474,5.1566,5.0202,4.9992,0.0,0.0,0.0,0.0,0.0,0.0,0.0,0.0,0.0,0.0,4.959,4.959,4.959,0.0,0.0,0.0,0.0,0.0,0.0,4.9521,4.9453,4.9967,0.0,0.0,0.0,0.0,0.0,0.0,0.0,0.0,0.0,0.0,5.0987,5.0015,4.9882,5.0252,5.1347,5.268,5.3815,5.3815,5.33,5.2514,5.1409,5.023,4.9211,4.8542,4.8156,4.7975,4.8102,4.8618,4.8838,4.8282,4.8456,4.8652,4.8386,4.8324,4.8359,4.8616,4.8799,4.9001,4.9239,4.9624,4.9881,4.9881,5.0248,5.0486,5.0486,5.0633,5.0725,5.0725,5.0725,5.0817,5.1055,5.1073,5.1073,5.1073,5.1477,5.1678,5.1678,5.2028,5.223,5.2248,5.1187,5.0162,4.9244,4.7905,4.6799,4.5829,4.4336,4.3728,4.3527,4.1145,4.0109,4.0021,3.9052,3.8718,3.8718,3.8718,3.8718,3.8718,0.0,0.0,0.0,0.0,0.0,5.2655,5.2859,5.3239,5.3474,5.3474,5.3474,5.3474,5.3474,5.2757,5.1898,5.1066,5.0428,0.0,0.0,0.0,0.0,0.0,0.0,0.0,0.0,0.0,4.959,4.959,4.959,4.959,0.0,0.0,4.959,4.959,0.0,0.0,0.0,0.0,0.0,0.0,0.0,0.0,0.0,0.0,0.0,0.0,0.0,0.0,0.0,0.0,0.0,4.8397,4.9701,5.0083,5.0294,5.1389,5.1347,5.0632,4.9338,4.8897,4.8605,4.7819,4.7891,4.8183,4.8123,4.8503,4.8699,4.7953,4.8245,4.8545,4.833,4.8286,4.8414,4.8836,4.9001,4.9221,4.9624,5.0046,5.0251,5.0251,5.0541,5.0725,5.0725,5.0725,5.0761,5.089,5.089,5.1073,5.1477,5.1605,5.1605,5.1495,5.1845,5.2065,5.2065,5.1784,5.1639,5.1585,4.9423,4.8083,4.7319,4.5604,4.4465,4.3656,4.1976,4.1245,4.1087,3.9399,3.8718,3.8718,3.8718,3.8718,3.8718,3.8718,3.8718,3.8718,0.0,0.0,0.0,0.0,0.0,0.0,5.3413,5.3474,5.3474,5.3474,5.3474,5.3474,5.3474,5.3474,5.2996,5.1784,5.1067,0.0,0.0,0.0,0.0,0.0,0.0,0.0,0.0,0.0,4.959,4.959,4.959,4.959,4.959,4.959,4.959,4.959,0.0,0.0,0.0,0.0,0.0,0.0,0.0,0.0,5.0816,0.0,0.0,0.0,0.0,0.0,0.0,0.0,0.0,0.0,0.0,4.6352,4.7054,5.0674,5.0421,4.9039,4.8997,4.8006,4.7031,4.7461,4.7891,4.8183,4.8123,4.8781,4.911,4.8009,4.8468,4.8928,4.8385,4.8286,4.8414,4.8836,4.9239,4.9643,5.0065,5.0468,5.0706,5.0706,5.0725,5.0725,5.0725,5.0725,5.089,5.1275,5.1293,5.1495,5.1845,5.2248,5.2339,5.1882,5.2267,5.2468,5.2468,5.0507,4.9505,4.9505,4.7095,4.4701,4.2361,4.2361,4.1016,3.8789,3.8731,3.8731,3.8731,3.8731,3.8718,3.8718,3.8718,3.8718,3.8718,3.8718,3.8718,3.8718,0.0,0.0,0.0,0.0,0.0,0.0,0.0,5.3474,5.3474,5.3474,5.3474,5.3474,5.3474,5.3474,5.3343,5.297,5.2319,0.0,0.0,0.0,0.0,0.0,0.0,0.0,0.0,4.959,4.959,4.959,4.959,4.959,4.959,4.959,4.959,4.959,4.9364,4.9032,0.0,0.0,0.0,0.0,5.0263,5.0696,5.0816,0.0,0.0,0.0,0.0,0.0,0.0,0.0,0.0,0.0,0.0,0.0,0.0,4.7684,4.7598,4.7201,4.7499,4.7475,4.748,4.791,4.8065,4.8046,4.7689,4.7979,4.8105,4.745,4.798,4.8484,4.8335,4.8524,4.8854,4.9258,4.9661,5.0083,5.0435,5.0633,5.0725,5.0725,5.0725,5.0835,5.1092,5.1128,5.1293,5.1662,5.168,5.1917,5.2267,5.2449,5.2467,5.2285,5.2724,5.2146,5.0489,4.984,4.8673,4.7023,4.4619,4.3045,4.2232,4.057,3.9413,3.8718,3.8718,3.8718,3.8718,3.8718,3.8718,3.8718,3.8718,3.8718,3.8718,3.8718,3.8718,3.8718,0.0,0.0,0.0,0.0,0.0,0.0,0.0,5.3474,5.3474,5.3474,5.3474,5.3474,5.3474,5.3474,5.3474,5.3474,5.3127,0.0,0.0,0.0,0.0,0.0,0.0,0.0,4.959,4.959,4.959,4.959,4.959,4.959,4.959,4.959,4.959,4.959,4.9267,4.8935,0.0,0.0,0.0,0.0,5.0263,5.0696,5.0816,0.0,0.0,0.0,0.0,0.0,0.0,0.0,0.0,0.0,0.0,0.0,0.0,0.0,4.6308,4.6387,4.6772,4.7112,4.7405,4.7832,4.7911,4.7708,4.7196,4.7458,4.7672,4.7209,4.7736,4.8286,4.8286,4.8634,4.9038,4.9441,4.9863,5.0215,5.067,5.0725,5.0725,5.0725,5.0853,5.1037,5.1293,5.1458,5.1662,5.2083,5.2102,5.2285,5.267,5.1856,5.1349,5.1349,5.1599,5.1012,4.9505,4.7693,4.6053,4.4491,4.2076,4.0944,4.0915,3.9399,3.8718,3.8718,3.8718,3.8718,0.0,3.8718,3.8718,3.8718,3.8718,3.8718,3.8718,3.8718,3.8718,3.8718,0.0,0.0,0.0,0.0,0.0,0.0,0.0,5.3474,5.3474,5.3474,5.3474,5.3474,5.3474,5.3474,5.3474,5.3474,5.3532,0.0,0.0,0.0,0.0,0.0,0.0,0.0,4.959,4.959,4.959,4.959,4.959,4.959,4.959,4.959,4.959,4.959,4.9234,4.8869,4.8551,0.0,0.0,0.0,5.0263,5.0696,0.0,0.0,0.0,0.0,0.0,0.0,0.0,0.0,0.0,0.0,0.0,0.0,0.0,0.0,0.0,0.0,0.0,4.6908,4.6908,4.7415,4.7469,4.7215,4.6766,4.7192,0.0,4.7245,4.7754,4.8286,4.8286,4.8653,4.9074,4.9441,4.9881,5.0251,5.067,5.0725,5.0725,5.0761,5.1092,5.133,5.1385,5.1699,5.2083,5.254,5.2505,5.2616,5.2818,5.0699,4.9433,4.9266,4.9062,4.8989,4.8989,4.4547,4.2232,4.2018,3.979,3.8718,3.8718,3.8718,3.8718,3.8718,3.8718,3.8718,3.8718,3.8718,3.8718,3.8718,3.8718,3.8718,3.8718,3.8718,3.8718,3.8718,0.0,0.0,0.0,0.0,0.0,0.0,0.0,0.0,0.0,0.0,5.3474,5.3474,5.3474,5.3474,5.3474,0.0,0.0,0.0,0.0,0.0,0.0,0.0,0.0,0.0,4.9622,4.959,4.959,4.959,4.959,4.959,4.959,4.959,4.959,4.9558,4.8967,4.8379,4.7801,4.8729,0.0,0.0,5.0263,5.0696,0.0,0.0,0.0,0.0,4.9617,4.8849,0.0,0.0,0.0,0.0,0.0,0.0,0.0,0.0,4.6308,4.6465,4.7226,0.0,4.6966,4.7734,4.7353,4.685,0.0,4.7158,4.7331,4.7546,4.7937,4.8286,4.8286,4.8873,4.9386,4.9478,5.012,5.0615,5.0706,5.0725,5.0835,5.1128,5.1257,5.155,5.2174,5.2267,5.2559,5.2944,5.298,5.2182,5.0406,4.9799,4.8673,4.6799,4.4943,4.3966,4.3966,4.2845,4.1389,3.9559,3.895,3.8718,3.8718,3.8718,3.8718,3.8718,3.8718,3.8718,3.8718,3.8718,3.8718,3.8718,3.8718,3.8718,3.8718,3.8718,3.8718,3.8718,0.0,0.0,0.0,0.0,0.0,0.0,0.0,0.0,0.0,0.0,5.3474,5.3474,5.3474,5.3474,5.3619,0.0,0.0,0.0,0.0,0.0,0.0,0.0,0.0,5.1174,5.0499,4.9886,4.959,4.959,4.959,4.959,4.959,4.959,4.959,4.9558,4.8902,4.8328,4.7906,4.8758,4.9263,4.9552,5.0359,0.0,0.0,0.0,0.0,0.0,4.9101,4.8245,0.0,4.5551,4.5586,4.6308,0.0,0.0,0.0,0.0,4.6133,4.6177,4.703,4.6838,4.6686,4.7545,4.7009,4.637,4.6806,4.6992,4.7222,4.7607,4.8011,4.8341,4.8543,4.9074,4.9569,4.9753,5.0303,5.0397,4.944,4.9318,4.9072,4.8372,4.84,4.8729,4.9142,4.9348,4.9558,4.9747,4.9799,4.9211,4.7933,4.6799,4.5604,4.4264,4.1919,4.1174,4.2304,4.1174,4.0008,3.8718,3.8718,3.8718,3.8718,3.8718,3.8718,3.8718,3.8718,3.8718,3.8718,3.8718,3.8718,3.8718,3.8718,3.8718,3.8718,3.8718,3.8718,3.8718,0.0,0.0,0.0,0.0,0.0,0.0,0.0,0.0,0.0,0.0,0.0,0.0,0.0,0.0,0.0,0.0,0.0,0.0,0.0,0.0,0.0,0.0,5.3093,5.1642,5.1236,5.0174,4.959,4.959,4.959,4.959,4.959,4.959,4.9525,4.9396,4.8804,4.8441,4.8315,4.8844,4.9408,4.9961,5.0479,0.0,0.0,0.0,0.0,0.0,0.0,0.0,0.0,4.5467,4.5586,4.6308,4.6308,0.0,0.0,0.0,0.0,0.0,4.6562,4.6431,4.6185,4.7035,4.6588,4.6012,4.647,4.6855,4.724,4.7699,4.8047,4.8414,4.8836,4.9239,4.9643,5.0013,5.0468,4.9963,4.7903,4.7669,4.6979,4.4962,4.5059,4.5337,4.5376,4.5726,4.5901,4.5901,4.5901,4.5748,4.5378,4.3429,4.2147,4.1761,3.979,3.9661,4.1761,3.9719,3.8718,3.8718,3.8718,3.8718,3.8718,3.8718,3.8718,3.8718,3.8718,3.8718,3.8718,3.8718,3.8718,3.8718,3.8718,3.8718,3.8718,3.8718,3.8718,3.8718,0.0,0.0,0.0,0.0,0.0,0.0,0.0,0.0,0.0,0.0,0.0,0.0,0.0,0.0,0.0,0.0,0.0,0.0,0.0,0.0,0.0,5.5383,5.3994,5.2165,4.995,4.9719,4.959,4.959,4.959,4.959,4.959,4.959,4.9324,4.8706,4.8313,4.8152,4.8315,4.8844,4.9408,4.9961,5.0479,0.0,0.0,0.0,0.0,0.0,0.0,0.0,0.0,4.5104,4.5586,4.6308,4.6308,0.0,0.0,0.0,0.0,0.0,4.6562,4.6159,4.5682,4.6523,4.6306,4.6085,4.6837,4.7057,4.7314,4.8047,4.8249,4.8414,4.8836,4.9239,4.9643,5.0013,5.0468,4.9925,4.7665,4.7568,4.6979,4.5111,4.513,4.5432,4.5749,4.5853,4.5901,4.5901,4.5901,4.4999,4.2974,4.2518,4.1331,3.9342,3.8892,3.8892,3.927,3.8892,3.8718,3.8718,3.8718,3.8718,3.8718,3.8718,3.8718,3.8718,3.8718,3.8718,3.8718,3.8718,3.8718,3.8718,3.8718,3.8718,3.8718,3.8718,3.8718,3.8718,0.0,0.0,0.0,0.0,0.0,0.0,0.0,0.0,0.0,0.0,0.0,0.0,0.0,0.0,0.0,0.0,0.0,0.0,0.0,0.0,5.5818,5.4412,5.3784,5.26,5.0664,4.995,4.959,4.959,4.959,4.959,4.959,4.9396,4.8942,4.8281,4.8408,4.8555,4.8782,4.9311,4.9865,5.0359,0.0,0.0,0.0,0.0,0.0,0.0,0.0,0.0,0.0,0.0,4.5586,4.6308,4.6308,0.0,0.0,0.0,0.0,0.0,4.6259,4.5874,4.5474,4.6065,4.6237,4.636,4.6965,4.7277,4.7589,4.8157,4.8286,4.8487,4.9111,4.9386,4.9716,5.034,4.952,4.8174,4.6199,4.4916,4.3585,4.1794,4.1643,4.1816,4.199,4.199,4.199,4.199,4.199,4.1532,4.0411,4.034,3.9862,3.8731,3.8718,3.8718,3.8718,3.8718,3.8718,3.8718,3.8718,3.8718,3.8718,3.8718,3.8718,3.8718,3.8718,3.8718,3.8718,3.8718,3.8718,3.8718,3.8718,3.8718,3.8718,3.8718,3.8718,3.8718,0.0,0.0,0.0,0.0,0.0,0.0,0.0,0.0,0.0,0.0,0.0,0.0,0.0,0.0,0.0,0.0,0.0,0.0,0.0,5.6737,5.5557,5.3601,5.2933,5.2108,5.1079,5.011,4.959,4.959,4.959,4.9558,4.9461,4.904,4.8625,4.8187,4.8534,4.8923,4.9311,4.972,5.0191,5.0744,0.0,0.0,0.0,0.0,0.0,0.0,0.0,0.0,0.0,0.0,0.0,0.0,0.0,0.0,0.0,4.6133,4.5763,4.5423,4.5819,4.5611,4.5425,4.5902,4.625,4.658,4.702,4.7406,4.7809,4.8212,4.8359,4.8653,4.9368,4.9661,4.9991,5.0615,4.8842,4.6734,4.4857,4.276,4.0702,3.8833,3.8691,3.8718,3.8718,3.8718,3.8718,3.8718,3.8718,3.8718,3.8718,3.8718,3.8718,3.8718,3.8718,3.8718,3.8718,3.8718,3.8718,3.8718,3.8718,3.8718,3.8718,3.8718,3.8718,3.8718,3.8718,3.8718,3.8718,3.8718,3.8718,3.8718,3.8718,3.8718,3.8718,3.8718,3.8718,3.8718,0.0,0.0,0.0,0.0,0.0,0.0,0.0,0.0,0.0,0.0,0.0,0.0,0.0,0.0,0.0,0.0,0.0,0.0,0.0,5.5091,5.3664,5.351,5.1194,4.9847,4.9751,4.9654,4.959,4.959,4.959,4.9429,4.9137,4.842,4.8327,4.8746,4.8469,4.8902,4.9841,4.9889,5.0191,5.0744,5.1273,0.0,0.0,0.0,0.0,0.0,0.0,0.0,0.0,0.0,0.0,0.0,0.0,0.0,4.5651,4.5651,4.5275,4.4928,4.532,4.5381,4.548,4.625,4.6452,4.658,4.702,4.7406,4.7809,4.8212,4.8598,4.9001,4.9423,5.012,5.0651,5.0706,4.9019,4.6882,4.4625,4.279,4.086,3.8577,3.8544,3.8718,3.8718,3.8718,3.8718,3.8718,3.8718,3.8718,3.8718,3.8718,3.8718,3.8718,3.8718,3.8718,3.8718,3.8718,3.8718,3.8718,3.8718,3.8718,3.8718,3.8718,3.8718,3.8718,3.8718,3.8718,3.8718,3.8718,3.8718,3.8718,3.8718,3.8718,3.8718,3.8718,3.8718,3.8718,0.0,0.0,0.0,0.0,0.0,0.0,0.0,0.0,0.0,0.0,0.0,0.0,0.0,0.0,0.0,0.0,0.0,0.0,0.0,5.5674,5.4323,5.354,5.1736,5.0404,4.9622,4.959,4.959,4.959,4.9396,4.9007,4.842,4.8466,4.85,4.8517,4.9057,4.9528,4.9913,5.0274,5.0696,5.1153,5.0616,5.0309,0.0,0.0,0.0,0.0,0.0,0.0,0.0,0.0,4.5957,4.6265,4.5958,4.5739,4.5563,4.5255,4.5196,4.52,4.5349,4.552,4.5792,4.6342,4.6672,4.6984,4.7387,4.7772,4.8176,4.8598,4.8799,4.9111,4.9771,5.034,5.0725,5.0725,4.7817,4.5363,4.4661,4.167,3.9349,3.8633,3.8651,3.8718,3.8718,3.8718,3.8718,3.8718,3.8718,3.8718,3.8718,3.8718,3.8718,3.8718,3.8718,3.8718,3.8718,3.8718,3.8718,3.8718,3.8718,3.8718,3.8718,3.8718,3.8718,3.8718,3.8718,3.8718,3.8718,3.8718,3.8718,3.8718,3.8718,3.8718,3.8718,3.8718,3.8718,3.8718,0.0,0.0,0.0,0.0,0.0,0.0,0.0,0.0,0.0,0.0,0.0,0.0,0.0,0.0,0.0,0.0,0.0,0.0,5.7303,5.5732,5.4412,5.354,5.1829,5.0499,4.9622,4.959,4.959,4.959,4.917,4.8715,4.826,4.8525,4.8696,4.8854,4.9576,5.0105,5.0442,5.0792,5.1249,5.1633,5.0444,4.9859,0.0,0.0,0.0,0.0,0.0,0.0,0.0,0.0,4.5968,4.6046,4.5695,4.5387,4.5097,4.492,4.5044,4.5195,4.5325,4.5741,4.6177,4.658,4.6984,4.7387,4.7791,4.8084,4.8396,4.8818,4.9111,4.9514,5.0141,5.049,5.0483,4.9859,4.6741,4.4278,4.385,4.0661,3.8477,3.8691,3.8718,3.8718,3.8718,3.8718,3.8718,3.8718,3.8718,3.8718,3.8718,3.8718,3.8718,3.8718,3.8718,3.8718,3.8718,3.8718,3.8718,3.8718,3.8718,3.8718,3.8718,3.8718,3.8718,3.8718,3.8718,3.8718,3.8718,3.8718,3.8718,3.8718,3.8718,3.8718,3.8718,3.8718,3.8718,3.8718,0.0,0.0,0.0,0.0,0.0,0.0,0.0,0.0,0.0,0.0,0.0,0.0,0.0,0.0,0.0,0.0,0.0,0.0,5.7303,5.4885,5.351,5.351,5.1005,4.959,4.959,4.959,4.959,4.9615,4.8935,4.8673,4.8795,4.8459,4.8868,4.9913,4.9913,5.0515,5.1489,5.1489,5.1802,5.2185,5.0978,4.9468,4.7913,0.0,0.0,0.0,0.0,0.0,0.0,0.0,4.6002,4.5607,4.5607,4.4946,4.4286,4.4678,4.477,4.4811,4.5187,4.5883,4.658,4.7002,4.7406,4.7791,4.8194,4.8286,4.8414,4.8836,4.9569,5.0248,5.0651,5.0725,5.0033,4.8042,4.6025,4.4001,4.2003,3.9986,3.8718,3.8718,3.8718,3.8718,3.8718,3.8718,3.8718,3.8718,3.8718,3.8718,3.8718,3.8718,3.8718,3.8718,3.8718,3.8718,3.8718,3.8718,3.8718,3.8718,3.8718,3.8718,3.8718,3.8718,3.8718,3.8718,3.8718,3.8718,3.8718,3.8718,3.8718,3.8718,3.8718,3.8718,3.8718,3.8718,3.8718,3.8718,0.0,0.0,0.0,0.0,0.0,0.0,0.0,0.0,0.0,0.0,0.0,0.0,0.0,0.0,0.0,0.0,0.0,0.0,5.7303,5.4885,5.351,5.351,5.1005,4.959,4.959,4.9739,4.9677,4.9381,4.9207,4.9078,4.9014,4.9297,4.96,4.9937,5.0707,5.1177,5.1513,5.1874,5.1647,5.088,4.9362,4.8157,4.706,0.0,0.0,0.0,0.0,0.0,0.0,0.0,0.0,0.0,4.4813,4.4415,4.4223,4.4273,4.4498,4.4811,4.5187,4.5883,4.658,4.7002,4.7406,4.7791,4.8194,4.8506,4.8928,4.9624,5.0175,5.0578,5.0706,5.0725,5.0033,4.8042,4.6025,4.4001,4.2003,3.9986,3.8718,3.8718,3.8718,3.8718,3.8718,3.8718,3.8718,3.8718,3.8718,3.8718,3.8718,3.8718,3.8718,3.8718,3.8718,3.8718,3.8718,3.8718,3.8718,3.8718,3.8718,3.8718,3.8718,3.8718,3.8718,3.8718,3.8718,3.8718,3.8718,3.8718,3.8718,3.8718,3.8718,3.8718,3.8718,3.8718,3.8718,3.8718,0.0,0.0,0.0,0.0,0.0,0.0,0.0,0.0,0.0,0.0,5.7303,5.7303,0.0,0.0,0.0,0.0,0.0,0.0,5.6594,5.4619,5.3241,5.2723,5.0721,4.969,4.9916,4.9883,4.9917,4.9992,4.9579,4.9412,4.9432,4.9744,5.0129,5.0563,5.1201,5.173,5.2102,5.1742,5.1404,5.0864,4.8505,4.7383,4.699,0.0,0.0,0.0,0.0,0.0,0.0,0.0,0.0,0.0,4.437,4.4171,4.4152,4.4287,4.46,4.504,4.5608,4.6232,4.6819,4.724,4.7644,4.8084,4.8634,4.8964,4.9331,4.9991,5.0398,5.0725,5.0725,5.0033,4.886,4.6851,4.4813,4.2823,4.0775,3.945,3.8718,3.8718,3.8718,3.8718,3.8718,3.8718,3.8718,3.8718,3.8718,3.8718,3.8718,3.8718,3.8718,3.8718,3.8718,3.8718,3.8718,3.8718,3.8718,3.8718,3.8718,3.8588,3.8369,3.8588,3.8718,3.8718,3.8718,3.8718,3.8718,3.8718,3.8718,3.8718,3.8718,3.853,3.8369,3.8369,3.815,3.8007,0.0,0.0,5.7517,5.8107,0.0,0.0,0.0,0.0,0.0,0.0,5.7303,5.7303,0.0,0.0,0.0,0.0,0.0,0.0,5.5499,5.4204,5.2906,5.1554,5.0327,4.9909,5.0403,5.0141,5.0295,5.0941,5.0084,4.9765,4.9985,5.0033,5.0587,5.1489,5.1586,5.209,5.2756,5.128,5.0971,5.1266,4.817,4.7113,4.7212,4.6108,0.0,0.0,0.0,0.0,0.0,0.0,0.0,0.0,4.4204,4.4152,4.4178,4.4645,4.5003,4.548,4.6269,4.6782,4.7204,4.7607,4.8029,4.8543,4.9331,4.9533,4.968,5.005,5.0468,5.0725,5.0761,4.9054,4.7033,4.5088,4.3047,4.1017,3.9012,3.8718,3.8718,3.8718,3.8718,3.8718,3.8718,3.8718,3.8718,3.8718,3.8718,3.8718,3.8718,3.8718,3.8718,3.8718,3.8718,3.8718,3.8718,3.8718,3.866,3.8602,3.8602,3.8298,3.7717,3.8369,3.8718,3.866,3.8588,3.853,3.8602,3.853,3.8499,3.8499,3.8499,3.8208,3.7717,3.7717,3.7296,3.6901,0.0,0.0,5.8322,5.8223,0.0,0.0,0.0,0.0,0.0,0.0,5.7303,0.0,0.0,0.0,0.0,0.0,0.0,0.0,0.0,5.4204,5.2906,5.1554,5.0677,5.0362,5.0647,5.0724,5.0695,5.0537,5.0346,5.0322,5.0527,5.0936,5.1273,5.1537,5.2392,5.2109,5.1097,5.1524,5.0253,4.7967,4.7526,4.6855,4.6042,4.5817,4.5879,0.0,0.0,0.0,0.0,0.0,0.0,0.0,4.4117,4.4103,4.4233,4.4948,4.5223,4.548,4.6269,4.6782,4.7204,4.7607,4.8249,4.8909,4.9386,4.9753,5.012,5.0505,5.0651,5.0817,5.1128,4.9283,4.7171,4.5478,4.3239,4.1017,3.9012,3.8718,3.8718,3.8718,3.8718,3.8718,3.8718,3.8718,3.8718,3.8718,3.8718,3.8718,3.8718,3.8718,3.8718,3.8718,3.8718,3.8718,3.8718,3.8718,3.8441,3.8007,3.8007,3.7658,3.7063,3.8208,3.8718,3.866,3.7645,3.7497,3.7949,3.7426,3.7205,3.7205,3.7205,3.7134,3.7005,3.7005,3.6914,3.6843,0.0,0.0,0.0,0.0,0.0,0.0,0.0,0.0,0.0,0.0,0.0,0.0,0.0,0.0,0.0,0.0,0.0,0.0,0.0,5.3271,5.2085,5.1043,5.0854,5.0905,5.1085,5.1033,5.1048,5.1187,5.1036,5.0969,5.1081,5.161,5.1994,5.2259,5.1987,5.1618,5.1139,5.0033,4.8749,4.7485,4.6872,4.6382,4.5976,4.5976,4.5982,4.5958,4.5695,0.0,0.0,0.0,0.0,0.0,0.0,0.0,4.4746,4.5168,4.5572,4.5993,4.6617,4.7075,4.7534,4.8139,4.8744,4.9294,4.9716,5.012,5.0157,4.9278,4.9959,5.0138,4.8309,4.705,4.5665,4.3865,4.1699,3.9899,3.882,3.8718,3.8718,3.8718,3.8718,3.8718,3.8718,3.8718,3.8718,3.8718,3.8718,3.8718,3.8718,3.8718,3.8718,3.8718,3.8427,3.824,3.824,3.7949,3.7645,3.7296,3.7296,3.7134,3.6843,3.7497,3.7788,3.7717,3.7076,3.7005,3.7264,3.6914,3.6784,3.6784,3.6784,3.6622,3.6363,3.6363,3.6187,3.5966,0.0,0.0,0.0,0.0,0.0,0.0,0.0,0.0,0.0,0.0,0.0,0.0,0.0,0.0,0.0,0.0,0.0,0.0,0.0,5.2253,5.1235,5.0728,5.1172,5.1472,5.1554,5.1368,5.1478,5.1907,5.1802,5.1778,5.1778,5.2247,5.2729,5.316,5.151,5.1123,5.1481,4.8422,4.736,4.7657,4.6326,4.5953,4.6177,4.6265,4.5958,4.5475,4.5475,4.4984,4.4305,4.4216,0.0,0.0,0.0,0.0,4.5333,4.5462,4.5957,4.658,4.7075,4.7497,4.7974,4.8726,4.89,4.9027,4.9393,4.9532,4.8842,4.6574,4.8298,4.9001,4.5097,4.4302,4.365,4.2076,4.0085,3.8718,3.8718,3.8718,3.8718,3.8718,3.8718,3.8718,3.8718,3.8718,3.8718,3.8718,3.8718,3.866,3.853,3.8557,3.8499,3.8369,3.7917,3.7626,3.7626,3.7076,3.6771,3.6622,3.6551,3.6492,3.6492,3.6492,3.6609,3.6784,3.6551,3.6551,3.6622,3.6551,3.6492,3.6492,3.6492,3.6187,3.5744,3.5744,3.5451,3.5087,0.0,0.0,0.0,0.0,0.0,0.0,0.0,0.0,0.0,0.0,5.7303,5.7303,5.7303,5.7303,0.0,0.0,0.0,0.0,0.0,0.0,0.0,5.185,5.195,5.1911,5.1767,5.2165,5.213,5.1561,5.244,5.2897,5.2897,5.2969,5.3221,5.3651,5.238,5.1301,5.0337,4.8692,4.7259,4.6028,4.6161,4.5987,4.5739,4.6133,4.5783,4.499,4.499,4.4862,4.467,4.4265,4.436,0.0,0.0,0.0,4.5443,4.6122,4.6397,4.6654,4.7406,4.7901,4.8322,4.8799,4.7748,4.6665,4.7062,4.5898,4.405,4.1801,4.4936,4.7432,4.525,4.3331,4.2148,4.2187,4.0268,3.8718,3.8718,3.8718,3.8718,3.8718,3.8718,3.8718,3.8718,3.8718,3.8718,3.8718,3.8718,3.8499,3.7976,3.7917,3.7658,3.7076,3.7005,3.6914,3.6914,3.6843,3.6551,3.6024,3.5485,3.5251,3.5251,3.5251,3.5836,3.6713,3.5673,3.5544,3.5966,3.5473,3.5251,3.5251,3.5251,3.5192,3.5099,3.5099,3.5087,3.5028,0.0,0.0,0.0,0.0,0.0,0.0,0.0,0.0,0.0,0.0,0.0,5.7303,5.7303,5.7303,0.0,0.0,0.0,0.0,0.0,5.2063,5.185,5.2101,5.2473,5.2516,5.2263,5.2566,5.261,5.2416,5.2873,5.3402,5.3918,5.3918,5.3547,5.2742,5.1549,5.0255,4.8963,4.7449,4.6514,4.6035,4.5924,4.5783,4.5607,4.5563,4.5256,4.4841,4.4841,4.4789,4.4735,4.4507,4.4691,4.5058,4.5242,0.0,0.0,0.0,4.68,4.7034,4.6349,4.741,4.8107,4.6011,4.5976,4.6195,4.5286,4.4435,4.3152,4.0892,4.2374,4.347,4.1324,4.1335,4.14,4.0456,3.9399,3.8718,3.8718,3.8718,3.8718,3.8718,3.8718,3.8718,3.8718,3.8718,3.853,3.8208,3.8208,3.7917,3.7264,3.7264,3.7076,3.6784,3.648,3.6317,3.6317,3.5966,3.5673,3.538,3.5158,3.5028,3.5028,3.5028,3.5309,3.5766,3.5251,3.5121,3.538,3.5087,3.5028,3.5028,3.5028,3.5028,3.5028,3.5028,3.5125,3.5187,0.0,0.0,0.0,0.0,0.0,0.0,0.0,0.0,0.0,0.0,0.0,5.7565,5.7565,0.0,0.0,0.0,0.0,0.0,0.0,5.2329,5.2468,5.2366,5.2989,5.3123,5.2686,5.2876,5.3083,5.3306,5.3427,5.3918,5.4808,5.4467,5.3366,5.1651,5.0789,4.9628,4.8288,4.6577,4.5972,4.609,4.5739,4.5532,4.5363,4.5142,4.4961,4.4776,4.4893,4.49,4.4838,4.4838,4.5113,4.5462,4.5572,4.6012,0.0,0.0,0.0,4.7575,4.6343,4.7433,4.8094,4.4646,4.4804,4.5329,4.3396,4.245,4.1599,3.9971,4.0045,3.9898,3.8243,3.9582,4.0432,3.8923,3.8718,3.8718,3.8718,3.8718,3.8718,3.8718,3.8718,3.866,3.8499,3.8499,3.8208,3.7555,3.7555,3.7264,3.6622,3.6551,3.6492,3.6329,3.5907,3.5673,3.5673,3.5192,3.5028,3.5028,3.5028,3.5028,3.5028,3.5028,3.5028,3.5028,3.5028,3.5028,3.5028,3.5028,3.5028,3.5028,3.5028,3.5052,3.5125,3.5125,3.5259,3.5489,0.0,0.0,0.0,0.0,0.0,0.0,0.0,0.0,0.0,0.0,0.0,0.0,5.8261,5.8813,5.8665,5.7362,0.0,0.0,0.0,5.3699,5.3433,5.3048,5.3619,0.0,5.2804,5.329,5.364,5.3737,5.4279,5.4808,5.5323,5.4127,5.2651,5.0977,5.0876,5.0161,4.8827,4.7034,4.6026,4.5651,4.5607,4.5306,4.4887,4.5291,4.5149,4.4774,4.523,0.0,0.0,0.0,4.5535,4.592,4.6305,4.6452,4.6635,0.0,0.0,0.0,4.8612,4.8791,4.852,4.6872,4.4949,4.2874,4.102,3.8843,3.7298,3.7525,3.7751,3.8016,3.824,3.8606,3.882,3.8731,3.8718,3.8718,3.8718,3.8718,3.8718,3.8718,3.8718,3.8499,3.7917,3.7846,3.7555,3.6914,3.6843,3.6609,3.5966,3.5966,3.5673,3.5087,3.5087,3.5028,3.5028,3.5028,3.5028,3.5028,3.5028,3.5028,3.5028,3.5028,3.5028,3.5028,3.5028,3.5028,3.5028,3.5028,3.5028,3.5028,3.5028,3.5185,3.5356,3.5356,3.5572,3.5802,0.0,0.0,0.0,0.0,0.0,0.0,0.0,0.0,0.0,0.0,0.0,0.0,0.0,5.6977,5.6556,5.6479,5.6394,0.0,0.0,0.0,0.0,5.3694,5.3736,5.3607,5.3327,5.3942,5.4272,5.4327,5.4856,5.478,5.4174,5.3698,5.2142,4.966,4.966,4.8788,4.7228,4.6595,4.6201,4.5947,4.5636,4.5392,4.5181,4.5045,4.503,4.5123,0.0,0.0,0.0,0.0,0.0,0.0,4.6745,4.7057,4.7369,4.7919,4.8176,4.8061,4.7069,4.7996,4.8523,4.5359,4.4071,4.3049,4.0917,3.8569,3.7008,3.7315,3.7595,3.7889,3.8223,3.8504,3.8718,3.8718,3.8718,3.8718,3.8718,3.8718,3.853,3.815,3.8137,3.7846,3.7205,3.7134,3.6914,3.6258,3.62,3.5966,3.5322,3.5322,3.5192,3.5028,3.5028,3.5028,3.5028,3.5028,3.5028,3.5028,3.5028,3.5028,3.5028,3.5028,3.5028,3.5028,3.5028,3.5028,3.5028,3.5028,3.5125,3.5282,3.5282,3.5451,3.5646,3.5646,3.5802,3.6032,0.0,0.0,0.0,5.7594,0.0,5.771,5.7942,5.8348,5.8494,5.8002,0.0,0.0,0.0,0.0,5.6099,5.6239,5.5741,5.4944,5.3879,5.4085,5.4257,5.4141,5.4145,5.4177,5.4197,5.4634,5.4977,5.5145,5.4899,5.4435,5.3738,5.2559,5.0896,4.8997,4.8517,4.7521,4.6308,4.6445,4.6282,4.5955,4.5794,4.5555,4.5334,4.5013,4.5223,0.0,0.0,0.0,0.0,0.0,0.0,0.0,0.0,4.7571,4.7937,4.8212,4.8377,4.828,4.7213,4.8301,4.8901,4.5575,4.4834,4.4157,4.1095,3.9199,3.7976,3.7603,3.7676,3.7929,3.8388,3.8584,3.8718,3.8718,3.8718,3.8718,3.8718,3.8499,3.8266,3.7846,3.7626,3.7205,3.6551,3.6492,3.6258,3.5615,3.5615,3.5451,3.5028,3.5028,3.5028,3.5028,3.5028,3.5028,3.5028,3.5028,3.5028,3.5028,3.5028,3.5028,3.5028,3.5028,3.503,3.5149,3.5149,3.5149,3.5149,3.5149,3.5318,3.5513,3.5513,3.5682,3.5911,3.5911,3.6129,3.6358,5.7418,5.7361,5.7565,5.8232,5.8348,5.8523,5.9132,5.9248,5.875,5.7356,0.0,0.0,0.0,0.0,0.0,5.658,5.5347,5.4445,5.4042,5.4527,5.4708,5.447,5.4919,5.5277,5.5385,5.5371,5.5596,5.6109,5.4334,5.368,5.4079,5.0611,4.8997,4.8867,4.7511,4.6674,4.6323,4.6733,4.6375,4.5539,4.5936,4.5803,4.5315,4.5333,4.581,0.0,4.6489,4.6764,0.0,0.0,0.0,0.0,0.0,0.0,0.0,4.8304,4.8598,4.9001,0.0,0.0,0.0,4.7878,4.7385,4.6149,4.1638,4.0511,3.9962,3.824,3.7879,3.7996,3.8611,3.866,3.866,3.866,3.866,3.866,3.866,3.815,3.7788,3.7788,3.7205,3.6551,3.5907,3.5895,3.5615,3.5028,3.5028,3.5028,3.5028,3.5028,3.5028,3.5028,3.5028,3.5028,3.5028,3.5028,3.5028,3.5028,3.5028,3.5028,3.5028,3.5028,3.5185,3.5392,3.5392,3.5451,3.5416,3.5451,3.5549,3.5838,3.5838,3.5996,3.6225,3.6225,3.6395,3.6624,5.8812,5.8755,5.8813,5.8987,5.9016,5.8725,5.7924,5.8143,5.7943,0.0,0.0,0.0,5.5934,5.5665,5.5309,5.4759,5.4734,5.4762,5.4721,5.4979,5.5255,5.555,5.5404,5.5357,5.5385,5.4508,5.4092,5.4254,5.2876,5.1592,5.0442,4.9445,4.8451,4.7443,4.6742,4.6497,4.6671,4.6787,4.645,4.5886,4.5999,4.5927,4.5755,4.6048,4.6287,0.0,0.0,4.7002,4.7149,0.0,4.7534,4.7607,0.0,0.0,0.0,0.0,4.8818,4.9074,4.9771,0.0,0.0,0.0,0.0,0.0,4.5653,4.2945,4.0635,4.0372,3.9176,3.825,3.8651,3.8369,3.8079,3.8079,3.8079,3.8079,3.8079,3.7917,3.7626,3.7134,3.6914,3.6421,3.5322,3.5251,3.5192,3.5028,3.5028,3.5028,3.5028,3.5028,3.5028,3.5028,3.5028,3.5028,3.5028,3.5028,3.5028,3.5028,3.5028,3.5125,3.5318,3.5318,3.5416,3.5682,3.5682,3.5778,3.5935,3.5742,3.5875,3.6068,3.6068,3.6225,3.6515,3.6515,3.6552,3.6624,5.9335,5.9306,5.9189,5.886,5.8799,5.8492,5.7623,5.7795,5.7624,0.0,0.0,0.0,5.5432,5.5173,5.4943,5.4792,5.525,5.5534,5.5442,5.5508,5.5692,5.6057,5.5863,5.5467,5.4949,5.4193,5.3483,5.2749,5.1278,5.0146,4.9223,4.8467,4.777,4.7162,4.6889,4.6837,4.7011,4.6998,4.6716,4.6253,4.642,4.6455,4.6434,4.6654,4.6837,0.0,0.0,0.0,4.7626,4.7864,4.8066,0.0,0.0,0.0,0.0,0.0,0.0,4.9482,4.9958,5.0196,5.0431,5.0651,0.0,0.0,4.6255,4.3997,4.1771,4.0191,3.882,3.7941,3.8272,3.7788,3.7322,3.7063,3.703,3.7076,3.7354,3.7192,3.6843,3.648,3.62,3.5766,3.5087,3.5028,3.5028,3.5028,3.5028,3.5028,3.5028,3.5028,3.5028,3.5028,3.5028,3.5028,3.5028,3.5028,3.5028,3.5028,3.509,3.5223,3.538,3.5548,3.5742,3.5996,3.5996,3.6104,3.6334,3.6225,3.6262,3.6395,3.6395,3.6491,3.6624,3.6624,3.6624,3.6624,0.0,5.9479,5.918,5.8515,5.8261,5.8063,5.7808,5.7773,5.7404,0.0,5.6453,5.6127,5.5192,5.5434,5.5745,5.5826,5.6254,5.6382,5.6046,5.6032,5.612,5.6299,5.6126,5.5461,5.4324,5.3915,5.2992,5.1454,4.9657,4.9006,4.9351,4.7725,4.7182,4.7586,4.7494,4.7411,4.7271,4.7214,4.7025,4.6764,4.708,4.7147,4.7112,4.7149,4.7387,4.7699,4.7736,4.8011,4.8359,4.8414,4.8671,0.0,0.0,0.0,0.0,0.0,4.9845,0.0,0.0,0.0,0.0,5.0725,5.0725,0.0,4.551,4.4639,4.366,3.9757,3.8362,3.7981,3.8232,3.7529,3.6713,3.62,3.5966,3.607,3.6622,3.6258,3.5907,3.5907,3.5451,3.5087,3.5028,3.5028,3.5028,3.5028,3.5028,3.5028,3.5028,3.5028,3.5028,3.5028,3.5028,3.5028,3.5028,3.5028,3.5028,3.5028,3.5259,3.5451,3.5452,3.5706,3.5971,3.6262,3.6262,3.6395,3.6624,3.6624,3.6624,3.6624,3.6624,3.6624,3.6624,3.6624,3.6624,3.6624,6.1454,6.0598,5.9902,6.0301,5.9363,5.8202,5.7037,5.6852,5.6391,5.5146,5.5458,5.6024,5.6675,5.6535,5.6317,5.5995,5.6054,5.6105,5.6176,5.6161,5.6363,5.6813,5.5446,5.4557,5.4324,5.1492,5.0039,4.9989,4.8208,4.7544,4.7978,4.762,4.7495,4.7513,4.7384,4.729,4.7233,4.7136,4.7275,4.7459,4.722,4.7135,4.7149,4.7461,4.7626,4.7736,4.8047,4.8432,4.8836,0.0,4.9313,4.9386,0.0,0.0,0.0,0.0,0.0,0.0,0.0,0.0,0.0,0.0,0.0,0.0,4.9541,4.8397,4.7277,4.6418,4.3591,4.1317,4.1403,3.9301,3.7555,3.7426,3.6551,3.5966,3.6058,3.5966,3.5907,3.5907,3.5778,3.5544,3.5028,3.5028,3.5028,3.5028,3.5028,3.5028,3.5028,3.5028,3.5028,3.5028,3.5028,3.5028,3.5028,3.5028,3.5028,3.5028,3.5259,3.5489,3.5706,3.5971,3.6298,3.649,3.649,3.6527,3.6624,3.6624,3.6624,3.6624,3.6624,3.6624,3.6624,3.6624,3.6624,3.6624,6.1419,6.031,5.9198,5.8814,5.8134,5.7259,5.6171,5.6242,5.6265,5.585,5.6152,5.6463,5.659,5.6654,5.6556,5.6129,5.6332,5.6544,5.6612,5.6596,5.6335,5.5668,5.4795,5.3577,5.2009,5.0208,4.9079,4.8583,4.7672,4.7326,4.7528,4.7761,4.7815,4.7755,4.763,4.7664,4.7769,4.7508,4.7754,4.8249,4.7644,4.7516,4.7736,4.8139,4.8304,4.8359,4.8744,4.9038,4.9088,4.8115,4.8688,0.0,0.0,4.9045,5.0156,0.0,5.0431,5.0416,0.0,0.0,0.0,5.0725,0.0,0.0,0.0,4.8626,4.7959,4.6871,4.5034,4.3656,4.3656,4.1174,3.9083,3.9083,3.7296,3.5907,3.5907,3.5615,3.5473,3.5473,3.5473,3.5322,3.5028,3.5028,3.5028,3.5028,3.5028,3.5028,3.5028,3.5028,3.5028,3.5028,3.5028,3.5028,3.5028,3.5028,3.5028,3.5028,3.5392,3.5646,3.5838,3.6225,3.6491,3.6624,3.6624,3.6624,3.6624,3.6624,3.6624,3.6624,3.6624,3.6624,3.6624,3.6624,3.6624,3.6624,6.0654,5.9489,5.82,5.7276,5.6877,5.6489,5.5948,5.6244,5.6709,5.7149,5.6858,5.6389,5.5853,5.5808,5.5692,5.5359,5.5737,5.5973,0.0,0.0,5.5445,5.397,5.369,5.2329,4.9783,4.9412,4.8735,4.7695,4.7838,4.782,4.7723,4.8165,4.8222,4.795,4.7934,4.8104,4.8348,4.8048,4.8359,4.8964,4.8304,4.8231,4.8561,4.8891,4.9019,4.9024,4.8951,4.8943,4.8688,4.6906,0.0,4.9334,4.7896,4.8646,0.0,0.0,0.0,0.0,0.0,0.0,0.0,0.0,0.0,5.0238,0.0,0.0,0.0,4.6636,4.6051,4.5901,4.5901,4.3455,4.126,4.0689,3.8571,3.6779,3.6154,3.567,3.5251,3.5028,3.5028,3.5028,3.5028,3.5028,3.5028,3.5028,3.5028,3.5028,3.5028,3.5028,3.5028,3.5028,3.5028,3.5028,3.5028,3.5028,3.5028,3.5028,3.5513,3.5778,3.5802,3.6395,3.6624,3.6624,3.6624,3.6624,3.6624,3.6624,3.6624,3.6624,3.6624,3.6624,3.6624,3.6624,3.6624,3.6624,5.9813,5.8598,5.7896,5.8775,5.783,5.7107,5.7562,5.7675,5.775,5.7958,5.5932,5.4597,5.5048,5.3433,5.226,5.2218,5.2285,0.0,5.2307,0.0,0.0,5.2547,5.1379,5.0612,5.0216,4.8666,4.794,4.8144,4.8561,4.8694,4.858,4.905,4.8757,4.7857,4.8171,4.8336,4.8348,4.8616,4.9038,4.9423,4.9331,4.9313,4.9368,4.9423,4.9441,4.9224,4.7581,4.7027,4.7027,0.0,4.7387,4.7913,0.0,4.9068,0.0,0.0,0.0,0.0,0.0,0.0,0.0,0.0,5.0725,0.0,0.0,0.0,5.1437,5.117,0.0,4.8989,4.8989,0.0,0.0,4.1697,4.0988,3.9858,3.7141,3.6685,3.62,3.5158,3.5028,3.5028,3.5028,3.5028,3.5028,3.5028,3.5028,3.5028,3.5028,3.5028,3.5028,3.5028,3.5028,3.5028,3.5028,3.5028,3.5028,3.5028,3.5513,3.5778,3.5802,3.6395,3.6624,3.6624,3.6624,3.6624,3.6624,3.6624,3.6624,3.6624,3.6624,3.6624,3.6624,3.6624,3.6624,3.6624,5.9747,5.8713,5.7867,5.8363,5.7935,5.7625,5.7851,5.7988,5.8082,5.8204,5.7015,5.6152,5.615,5.4388,5.3217,5.3217,0.0,5.2033,0.0,0.0,0.0,0.0,5.0589,4.9913,4.9107,4.8593,4.8397,4.8501,4.8974,4.8859,4.8196,4.8592,4.8573,4.8103,4.8509,4.8815,4.9001,4.9184,4.9496,4.9863,4.9863,5.001,5.0193,4.9955,5.001,5.0075,4.9288,4.8158,4.6846,0.0,4.6202,0.0,0.0,0.0,0.0,0.0,0.0,0.0,0.0,0.0,0.0,0.0,0.0,0.0,0.0,0.0,5.223,0.0,0.0,0.0,0.0,0.0,0.0,0.0,4.2526,4.0458,3.7782,3.7084,3.6622,3.6129,3.5744,3.538,3.5028,3.5028,3.5028,3.5028,3.5028,3.5028,3.5028,3.5028,3.5028,3.5028,3.5028,3.5028,3.5028,3.5028,3.5028,3.5028,3.5513,3.5778,3.5802,3.6395,3.6624,3.6624,3.6624,3.6624,3.6624,3.6624,3.6624,3.6624,3.6624,3.6624,3.6624,3.6624,3.6624,3.6624,5.9753,5.884,5.7951,5.8102,5.8127,5.8139,5.8176,5.8144,5.8116,5.8119,5.7396,5.6628,5.5798,5.4234,5.3017,5.2515,5.1551,5.0993,0.0,0.0,5.1036,0.0,0.0,0.0,4.8555,4.905,4.9141,4.8887,4.9358,4.91,4.8152,4.8562,4.8725,4.8634,4.8928,4.9294,4.968,4.968,4.9918,5.0233,5.0233,5.0523,5.0835,5.045,5.0468,5.055,4.9261,4.7823,4.6139,4.3763,4.415,0.0,4.2455,0.0,0.0,0.0,0.0,0.0,4.9687,0.0,0.0,0.0,0.0,0.0,0.0,0.0,0.0,0.0,0.0,0.0,0.0,0.0,4.9619,4.704,0.0,4.2516,3.9212,3.8513,3.791,3.6934,3.6258,3.5744,3.5309,3.5087,3.5028,3.5028,3.5028,3.5028,3.5028,3.5028,3.5028,3.5028,3.5028,3.5028,3.5028,3.5028,3.5028,3.5028,3.5513,3.5778,3.5802,3.6395,3.6624,3.6624,3.6624,3.6624,3.6624,3.6624,3.6624,3.6624,3.6624,3.6624,3.6624,3.6624,3.6624,3.6624,5.951,5.8642,5.8052,5.8604,5.8666,5.8702,5.8854,5.855,5.8129,5.7695,5.6213,5.4456,5.2655,5.1314,0.0,0.0,0.0,4.7738,4.7738,0.0,4.832,0.0,0.0,4.9519,0.0,4.9922,4.99,4.9377,4.9781,4.9622,4.899,4.9449,4.9577,4.9459,4.9478,4.9716,5.005,5.005,5.0288,5.0706,5.0706,5.0945,5.1238,5.0853,5.0706,5.0133,4.5617,0.0,0.0,4.1681,4.1171,0.0,0.0,0.0,0.0,0.0,0.0,0.0,0.0,0.0,0.0,5.124,0.0,0.0,0.0,0.0,5.2522,0.0,0.0,0.0,5.3109,5.3054,5.2019,0.0,4.8933,0.0,0.0,4.1739,4.0815,3.7225,3.6258,3.5895,3.5895,3.5322,3.5028,3.5028,3.5028,3.5028,3.5028,3.5028,3.5028,3.5028,3.5028,3.5028,3.5028,3.5028,3.5028,3.5028,3.5513,3.5778,3.5802,3.6395,3.6624,3.6624,3.6624,3.6624,3.6624,3.6624,3.6624,3.6624,3.6624,3.6624,3.6624,3.6624,3.6624,3.6624,5.9483,5.9207,5.9006,5.9207,5.9232,5.9128,5.8915,5.862,5.7862,5.6486,5.5845,5.481,0.0,5.1266,5.0078,0.0,0.0,4.8125,4.8444,4.8848,0.0,0.0,0.0,4.9961,4.9961,5.0371,5.0291,4.9641,5.0108,4.9983,4.9344,4.9473,4.9667,4.9918,4.9918,5.0138,5.0523,5.0523,5.0596,5.0743,5.1,5.1367,5.1466,4.946,4.8894,4.8676,4.5514,4.3518,0.0,4.1429,4.1224,4.1159,4.036,4.1688,4.341,4.2689,4.2967,0.0,0.0,0.0,4.4838,4.8586,0.0,0.0,0.0,0.0,0.0,0.0,0.0,0.0,0.0,0.0,0.0,0.0,0.0,4.7738,0.0,4.0831,3.943,3.824,3.7497,3.6843,3.5966,3.5744,3.5451,3.5028,3.5028,3.5028,3.5028,3.5028,3.5028,3.5028,3.5028,3.5028,3.5028,3.5028,3.5028,3.5028,3.5356,3.5609,3.5838,3.6201,3.6455,3.6624,3.6624,3.6624,3.6624,3.6624,3.6624,3.6624,3.6624,3.6624,3.6624,3.6624,3.6624,3.6624,6.006,6.0085,5.996,5.9558,5.9542,5.943,5.9079,5.8257,5.7193,5.5855,5.5309,5.4329,5.2389,0.0,5.073,0.0,4.932,4.9023,4.9363,4.959,0.0,5.0176,5.0312,0.0,0.0,5.0784,5.0657,5.0041,5.0308,5.0189,4.9735,4.9735,4.9936,5.034,5.0435,5.0615,5.0743,5.1037,5.1055,5.0859,5.0451,5.0455,5.0454,4.6897,4.6701,4.7867,0.0,4.2638,4.1319,4.0517,4.0293,4.008,3.8587,4.0151,4.2267,4.0816,4.1452,4.2772,4.3596,4.2907,0.0,4.6514,4.6641,0.0,5.062,0.0,0.0,0.0,0.0,0.0,0.0,0.0,0.0,0.0,0.0,0.0,0.0,4.0786,3.8718,3.8718,3.815,3.7367,3.6329,3.6037,3.5673,3.5028,3.5028,3.5028,3.5028,3.5028,3.5028,3.5028,3.5028,3.5028,3.5028,3.5028,3.5028,3.5028,3.5259,3.5477,3.5646,3.6008,3.6261,3.6491,3.6588,3.6624,3.6624,3.6624,3.6624,3.6624,3.6624,3.6624,3.6624,3.6624,3.6624,3.6624,6.1065,6.119,6.0799,5.9731,5.963,5.9558,5.9122,5.755,5.6197,5.5656,5.4445,5.2904,5.1063,5.1668,5.1489,4.9691,4.9941,5.0195,5.0215,5.0215,0.0,0.0,5.0644,5.0879,5.0898,5.118,5.111,5.0564,5.0409,5.0262,5.0105,5.0123,5.0343,5.0761,5.1165,5.1128,5.0835,5.1552,5.1609,5.1016,4.9115,4.8486,4.8223,4.354,4.4345,4.7411,4.2805,4.1335,4.12,3.9051,3.8477,3.8718,3.8718,3.8718,3.8718,3.8718,3.8718,3.9181,4.1532,4.2133,4.2689,4.5097,0.0,0.0,0.0,0.0,4.919,0.0,0.0,0.0,0.0,0.0,0.0,0.0,0.0,0.0,4.6575,4.1761,3.8718,3.8718,3.815,3.7555,3.6843,3.6258,3.5673,3.5028,3.5028,3.5028,3.5028,3.5028,3.5028,3.5028,3.5028,3.5028,3.5028,3.5028,3.5028,3.5028,3.5282,3.538,3.5416,3.5911,3.6201,3.6225,3.6491,3.6624,3.6624,3.6624,3.6624,3.6624,3.6624,3.6624,3.6624,3.6624,3.6624,3.6624,6.1165,6.0926,6.0511,5.995,5.9576,5.8822,5.7338,5.6791,5.5611,5.2942,5.2629,5.2073,5.0544,5.0595,5.0546,5.0047,5.0117,0.0,0.0,0.0,0.0,5.1562,5.1699,5.1894,5.2207,5.1895,0.0,5.1385,5.0971,5.067,5.0578,5.0872,5.1055,5.1165,5.1587,5.1662,5.1589,5.179,5.0992,4.9444,4.8932,4.7909,4.635,4.3308,4.2882,4.3471,4.046,3.9382,3.9392,3.8784,3.8651,3.8718,3.8718,3.8718,3.8718,3.8718,3.8718,3.882,3.9444,3.9631,4.0181,4.2604,4.3201,4.3868,0.0,0.0,0.0,0.0,0.0,0.0,0.0,0.0,0.0,0.0,0.0,0.0,4.6069,4.1761,3.8718,3.8718,3.815,3.7555,3.6843,3.6655,3.6129,3.5087,3.5028,3.5028,3.5028,3.5028,3.5028,3.5028,3.5028,3.5028,3.5028,3.5028,3.5028,3.5028,3.5089,3.5187,3.538,3.5513,3.5802,3.6225,3.6298,3.6431,3.6624,3.6624,3.6624,3.6624,3.6624,3.6624,3.6624,3.6624,3.6624,3.6624,6.1927,6.163,6.1259,6.1053,5.9937,5.8616,5.7318,5.5921,5.4315,5.2383,5.1708,5.1083,5.0298,5.0351,5.0449,5.0449,5.0625,0.0,5.1328,0.0,0.0,5.2324,5.2363,5.2461,5.2695,5.234,0.0,5.1706,5.1365,5.1096,5.0982,5.1202,5.1403,5.1605,5.1955,5.2047,5.1847,5.0957,5.0033,4.8994,4.6841,4.5349,0.0,4.1632,4.0728,4.0556,3.9181,3.8718,3.8718,3.8718,3.8718,3.8718,3.8718,3.8718,3.8718,3.8718,3.8718,3.8718,3.8718,3.8718,3.9052,4.0397,4.0728,4.1374,4.3785,4.411,4.394,0.0,0.0,0.0,0.0,0.0,0.0,0.0,0.0,0.0,4.4321,4.1087,3.8718,3.8718,3.8369,3.7949,3.7296,3.6713,3.6037,3.5087,3.5028,3.5028,3.5028,3.5028,3.5028,3.5028,3.5028,3.5028,3.5028,3.5028,3.5028,3.5028,3.5028,3.5066,3.5246,3.532,3.5609,3.6008,3.6165,3.6334,3.6624,3.6624,3.6624,3.6624,3.6624,3.6624,3.6477,3.5298,3.5568,3.6416,6.2829,6.2615,6.2293,6.1993,6.004,5.827,5.7551,5.493,5.291,5.276,5.1302,5.0273,5.0332,5.0723,5.0976,5.0976,0.0,5.1758,5.2129,5.2168,5.2344,5.2773,5.2693,5.2713,5.2771,5.2486,0.0,0.0,5.1599,5.1452,5.1385,5.144,5.166,5.1973,5.243,5.2197,5.1458,4.9724,4.8828,4.8211,4.3966,4.2133,4.1618,3.9502,3.8718,3.8718,3.8718,3.8718,3.8718,3.8718,3.8718,3.8718,3.8718,3.8718,3.8718,3.8718,3.8718,3.8718,3.8718,3.8718,3.8718,3.8718,3.8718,3.927,4.1331,4.1403,4.1016,4.0944,4.0944,4.0109,0.0,0.0,0.0,0.0,0.0,0.0,4.2076,4.0051,3.8588,3.8588,3.8499,0.0,3.7846,3.6713,3.5766,3.518,3.5028,3.5028,3.5028,3.5028,3.5028,3.5028,3.5028,3.5028,3.5028,3.5028,3.5028,3.5028,3.5028,3.5028,3.5028,3.5223,3.5477,3.5742,3.5971,3.6298,3.6552,3.6552,3.6588,3.6624,3.6624,3.6379,3.5802,3.3426,3.3869,3.5225,6.2635,6.2458,6.1753,5.9774,5.8075,5.6394,5.4651,5.3586,5.2568,5.1341,5.0875,5.082,5.1172,5.1601,5.1855,5.1855,5.2246,0.0,0.0,0.0,0.0,5.3273,5.2789,5.271,5.3108,5.216,5.18,0.0,5.1532,5.1474,5.1772,5.2102,5.2357,5.2377,5.2834,5.1837,4.9902,4.9551,4.7141,4.3501,4.2617,4.1087,3.927,3.8878,3.8718,3.8718,3.8718,3.8718,3.8718,3.8718,3.8718,3.8718,3.8718,3.8718,3.8718,3.8718,3.8718,3.8718,3.8718,3.8718,3.8718,3.8718,3.8718,3.882,3.9212,3.927,3.9052,3.853,3.8401,3.8111,3.7005,0.0,0.0,0.0,0.0,0.0,4.0815,3.9141,3.7949,3.7949,3.7484,3.7296,3.7788,3.7076,3.6421,3.5778,3.5251,3.5028,3.5028,3.5028,3.5028,3.5028,3.5028,3.5028,3.5028,3.5028,3.5028,3.5028,3.5028,3.5028,3.5028,3.503,3.5187,3.5452,3.5513,3.5802,3.6298,3.6298,3.6419,3.6624,3.6624,3.5225,3.3229,3.2745,3.1495,2.993,6.2878,6.2202,6.1296,6.0131,5.7841,5.582,5.4841,5.3622,5.2511,5.1611,5.1465,5.1621,5.2051,5.2285,5.2402,5.2402,5.2598,5.2812,5.3027,5.2796,5.2789,5.3266,5.2725,0.0,5.3099,5.2581,5.232,5.2487,5.2205,5.2109,5.2193,5.243,5.2632,5.2834,5.3035,5.1761,4.9433,4.8156,4.5547,4.2204,4.0944,3.9733,3.8718,3.8718,3.8718,3.8718,3.8718,3.8718,3.8718,3.8718,3.8718,3.8718,3.8718,3.8718,3.8718,3.8718,3.8718,3.8718,3.8718,3.8718,3.8718,3.8718,3.8718,3.8718,3.8718,3.8441,3.8208,3.824,3.7717,3.7192,3.6843,3.8039,0.0,0.0,0.0,0.0,0.0,3.833,3.7788,3.7788,3.7497,3.7426,3.7788,3.7205,3.6551,3.5966,3.5322,3.5028,3.5028,3.5028,3.5028,3.5028,3.5028,3.5028,3.5028,3.5028,3.5028,3.5028,3.5028,3.5028,3.5028,3.5028,3.5126,3.538,3.538,3.5609,3.5971,3.6165,3.6298,3.626,3.4994,3.3735,3.228,2.9367,2.7456,2.6369,6.2897,6.1593,6.0381,5.9963,5.7564,5.5591,5.5152,5.3717,5.2598,5.2266,5.2207,5.2344,5.2676,5.2793,5.2851,5.2851,5.293,5.3144,5.3476,5.3087,5.2923,5.332,5.2797,5.2643,5.2964,5.2807,5.2751,0.0,5.2756,5.2601,5.2412,5.2577,5.2544,5.2308,5.2308,5.0699,4.786,4.5973,4.3728,4.1389,3.9502,3.8718,3.8718,3.8718,3.8718,3.8718,3.8718,3.8718,3.8718,3.8718,3.8718,3.8718,3.8718,3.8718,3.8718,3.8718,3.8718,3.8718,3.8718,3.8718,3.8718,3.8718,3.8718,3.8718,3.8718,3.8311,3.8079,3.8441,3.7587,3.6784,3.6784,3.7134,0.0,0.0,0.0,0.0,0.0,0.0,3.7555,3.7426,3.7497,3.7555,3.7555,3.7005,3.648,3.6129,3.5544,3.5158,3.5028,3.5028,3.5028,3.5028,3.5028,3.5028,3.5028,3.5028,3.5028,3.5028,3.5028,3.5028,3.5028,3.5028,3.509,3.5283,3.5283,3.5452,3.5706,3.5971,3.5765,3.5121,3.3194,3.176,3.0257,2.5839,2.3924,2.3449,6.2018,6.0297,5.833,5.6507,5.5939,5.5103,5.3242,5.2795,5.2695,5.2656,5.2656,5.2656,5.2695,5.3066,5.3351,5.3351,5.3672,5.3926,5.3965,5.377,5.3691,5.373,5.31,5.2798,5.2836,5.2305,5.2189,0.0,0.0,5.2302,5.1955,5.2724,5.1908,4.9854,4.9854,4.7263,4.2974,4.2746,4.1245,3.9021,3.8789,3.8718,3.8718,3.8718,3.8718,3.8718,3.8718,3.8718,3.8718,3.8718,3.8718,3.8718,3.8718,3.8718,3.8718,3.8718,3.8718,3.8718,3.8718,3.8718,3.8718,3.8718,3.8718,3.8718,3.8718,3.866,3.8499,3.8007,3.7296,3.6784,3.6784,3.6421,3.6058,0.0,0.0,0.0,0.0,0.0,3.6713,3.6129,3.6551,3.6901,3.6901,3.6329,3.6187,3.6713,3.6129,3.5602,3.5028,3.5028,3.5028,3.5028,3.5028,3.5028,3.5028,3.5028,3.5028,3.5028,3.5028,3.5028,3.5028,3.5028,3.5028,3.5052,3.5052,3.5222,3.5452,3.5706,3.4443,3.2284,3.2024,2.9092,2.4813,2.4295,2.258,2.0485,6.0196,5.8469,5.699,5.6208,5.5311,5.4433,5.3597,5.3496,5.3496,5.3496,5.3262,5.3203,5.3476,5.3652,5.3867,5.4172,5.4008,5.3963,5.4195,5.3605,5.3228,5.3228,5.2586,5.2365,5.2605,5.2391,5.2485,0.0,0.0,5.2797,5.265,5.2962,5.1834,4.9433,4.7988,4.545,4.2304,4.2304,4.0915,3.8718,3.8718,3.8718,3.8718,3.8718,3.8718,3.8718,3.8718,3.8718,3.8718,3.8718,3.8718,3.8718,3.8718,3.8718,3.8718,3.8718,3.8718,3.8718,3.8718,3.8718,3.8718,3.8718,3.8718,3.8718,3.8718,3.8718,3.866,3.8369,3.7846,3.7264,3.6843,3.6914,3.6914,0.0,0.0,0.0,0.0,0.0,3.6713,3.648,3.6329,3.6258,3.6258,3.6037,3.6024,3.6258,3.5673,3.538,3.5544,3.5192,3.5028,3.5028,3.5028,3.5028,3.5028,3.5028,3.5028,3.5028,3.5028,3.5028,3.5028,3.5028,3.5028,3.4899,3.3346,3.2695,3.2748,3.1477,3.0308,2.9229,2.7774,2.5913,2.3892,2.2204,2.0881,1.9963,5.8615,5.6821,5.5634,5.5634,5.4732,5.4082,5.4199,5.4219,5.4258,5.4394,5.4121,5.4004,5.4199,5.4336,5.4428,5.4584,5.424,5.4043,5.4173,5.3409,5.2953,5.2953,5.2478,0.0,5.2687,5.2705,5.2834,5.3109,5.3109,0.0,5.276,5.276,5.1201,4.8378,4.6647,4.4166,4.1245,4.1245,4.0252,3.8718,3.8718,3.8718,3.8718,3.8718,3.8718,3.8718,3.8718,3.8718,3.8718,3.8718,3.8718,3.8718,3.8718,3.8718,3.8718,3.8718,3.8718,3.8718,3.8718,3.8718,3.8718,3.8718,3.8718,3.8718,3.8718,3.8718,3.8718,3.8718,3.8369,3.7846,3.7205,3.7296,3.7264,3.6622,0.0,0.0,0.0,0.0,0.0,3.6258,3.6058,3.5836,3.5673,3.5615,3.5732,3.5895,3.5322,3.5192,3.5615,3.5251,3.5028,3.5028,3.5028,3.5028,3.5028,3.5028,3.5028,3.5028,3.5028,3.5028,3.5028,3.5028,3.4605,3.3758,3.1919,3.0654,2.9882,2.8252,2.7167,2.628,2.4614,2.3448,2.2566,2.0577,1.9861,1.98,5.753,5.5436,5.4023,5.4023,5.4023,5.418,5.4609,5.4668,5.4824,5.5234,5.5293,5.5137,5.4726,5.5039,5.5031,5.4455,5.4402,5.4192,5.3647,5.346,5.3363,0.0,0.0,5.3109,5.3109,5.3109,5.3109,5.3109,0.0,0.0,5.19,5.19,4.9746,4.5973,4.5901,4.3258,3.8731,3.8731,3.8731,3.8718,3.8718,3.8718,3.8718,3.8718,3.8718,3.8718,3.8718,3.8718,3.8718,3.8718,3.8718,3.8718,3.8718,3.8718,3.8718,3.8718,3.8718,3.8718,3.8718,3.8718,3.8718,3.8718,3.8718,3.8718,3.8718,3.8718,3.8718,3.8718,3.866,3.8499,3.7917,3.7264,3.6622,3.6024,0.0,0.0,0.0,0.0,0.0,3.5087,3.5544,3.5673,3.5087,3.5028,3.5251,3.5836,3.5322,3.5028,3.5028,0.0,0.0,3.5028,3.5028,0.0,3.5028,3.5028,3.5028,3.5028,3.5028,3.5028,3.5028,3.5028,3.3594,3.1138,3.1138,2.9683,2.7361,2.7301,2.5815,2.3548,2.3548,2.1994,1.9725,1.9725,1.9725,1.9725,5.5787,5.4915,5.457,5.4844,5.4902,5.4941,5.5078,5.5117,5.5156,5.5293,5.5566,5.5526,5.5041,5.4814,5.459,5.4295,5.3942,5.3735,0.0,5.3448,5.3197,5.3197,5.3163,5.3109,5.3109,5.3109,5.3109,5.3109,0.0,0.0,0.0,5.1004,4.8714,4.5829,4.4166,4.169,3.8718,3.8718,3.8718,3.8718,3.8718,3.8718,3.8718,3.8718,3.8718,3.8718,3.8718,3.8718,3.8718,3.8718,3.8718,3.8718,3.8718,3.8718,3.8718,3.8718,3.8718,3.8718,3.8718,3.8718,3.8718,3.8718,3.8718,3.8718,3.8718,3.8718,3.8718,3.8718,3.8718,3.866,3.8441,3.824,3.8007,3.7846,3.7658,0.0,0.0,0.0,0.0,0.0,3.5451,3.5192,3.5028,3.5028,3.5087,3.5251,3.5087,3.5192,3.5602,0.0,0.0,0.0,3.5028,0.0,3.5028,3.5028,3.5028,3.5028,3.5028,3.5028,3.4957,3.3181,3.1919,3.0891,2.743,2.5455,2.4554,2.284,2.1638,2.0926,2.0926,2.044,1.9725,1.9725,1.9725,1.9725,5.5258,5.4922,5.5,5.5254,5.5312,5.5351,5.5527,5.5547,5.55,5.5445,5.5645,5.5534,5.4752,5.4417,5.42,5.4143,5.384,5.3628,5.3653,5.3291,5.3109,5.3109,5.3109,5.3109,5.3109,5.3109,0.0,5.3109,5.3109,5.2654,5.1706,5.0186,4.771,4.4491,4.2974,4.0944,3.8718,3.8718,3.8718,3.8718,3.8718,3.8718,3.8718,3.8718,3.8718,3.8718,3.8718,3.8718,3.8718,3.8718,3.8718,3.8718,3.8718,3.8718,3.8718,3.8718,3.8718,3.8718,3.8718,3.8718,3.8718,3.8718,3.8718,3.8718,3.8718,3.8718,3.8718,3.8718,3.8718,3.8718,3.8718,3.8499,3.8298,3.8007,3.7788,3.7426,3.6843,0.0,0.0,0.0,0.0,0.0,3.5028,3.5028,3.5028,3.5028,3.5028,3.518,3.5544,0.0,3.5028,3.5028,3.5028,0.0,3.5028,3.5028,3.5028,3.5028,3.5028,3.4476,3.3476,3.1848,3.0071,2.8037,2.4872,2.2945,2.1933,2.038,1.9725,1.9725,1.9725,1.9725,1.9725,1.9725,1.9725,1.9725,5.5697,5.5351,5.5351,5.539,5.539,5.5527,5.5865,5.5924,5.5848,5.572,5.5671,5.524,5.4124,5.4016,5.3961,5.3961,5.3961,5.3671,5.3109,5.3109,5.3109,5.3109,5.3109,5.3109,5.3109,5.3109,5.3109,5.3109,5.2945,5.1688,4.9505,4.9339,4.6743,4.2304,4.2304,4.0944,3.8718,3.8718,3.8718,3.8718,3.8718,3.8718,3.8718,3.8718,3.8718,3.8718,3.8718,3.8718,3.8718,3.8718,3.8718,3.8718,3.8718,3.8718,3.8718,3.8718,3.8718,3.8718,3.8718,3.8718,3.8718,3.8718,3.8718,3.8718,3.8718,3.8718,3.8718,3.8718,3.8718,3.8718,3.8718,3.8208,3.7645,3.7005,3.6421,3.5778,3.5121,0.0,0.0,3.5028,3.5028,0.0,0.0,3.5028,3.5028,3.5028,3.5028,3.5028,3.5028,0.0,3.5028,3.5028,3.5028,3.5028,3.5028,3.5028,3.5028,3.5028,3.5028,3.3605,3.1079,3.095,2.8137,2.3487,2.3299,2.1873,1.9725,1.9725,1.9725,1.9725,1.9725,1.9725,1.9725,1.9725,1.9725,1.9725,5.5775,5.5728,5.5898,5.623,5.6289,5.6308,5.6406,5.6052,5.5716,5.5705,5.5348,5.4828,5.407,5.4016,5.3799,5.3345,5.3291,5.3218,5.3109,5.3109,5.3109,5.3109,5.3109,5.3109,5.3109,5.3109,5.3109,5.3109,5.1249,5.0092,4.9433,4.7637,4.5153,4.2304,4.2304,4.0944,3.8718,3.8718,3.8718,3.8718,3.8718,3.8718,3.8718,3.8718,3.8718,3.8718,3.8718,3.8718,3.8718,3.8718,3.8718,3.8718,3.8718,3.8718,3.8718,3.8718,3.8718,3.8718,3.8718,3.8718,3.8718,3.8718,3.8718,3.8718,3.8718,3.8718,3.8718,3.8718,3.8718,3.8718,3.8718,3.8588,3.8298,3.7658,3.7426,3.6972,3.5836,3.5673,0.0,3.5028,3.5028,3.5028,3.5028,3.5028,3.5028,0.0,3.5028,3.5028,3.5028,3.5028,3.5028,3.5028,3.5028,3.5028,3.5028,3.5028,3.5028,3.5028,3.5028,3.3605,3.1009,2.9109,2.6464,2.3359,2.1449,2.0272,1.9725,1.9725,1.9725,1.9725,1.9725,1.9725,1.9725,1.9725,1.9725,1.9725,5.6191,5.623,5.6308,5.6543,5.6582,5.6582,5.6582,5.61,5.5617,5.5348,5.4828,5.4287,5.3671,5.3563,5.3454,5.3109,5.3109,5.3109,5.3109,5.3109,5.3109,5.3109,5.3109,5.3109,5.3109,5.3109,5.2527,5.1469,5.0113,4.8378,4.6198,4.4845,4.2974,4.0627,4.0627,3.995,3.8718,3.8718,3.8718,3.8718,3.8718,3.8718,3.8718,3.8718,3.8718,3.8718,3.8718,3.8718,3.8718,3.8718,3.8718,3.8718,3.8718,3.8718,3.8718,3.8718,3.8718,3.8718,3.8718,3.8718,3.8718,3.8718,3.8718,3.8718,3.8718,3.8718,3.8718,3.8718,3.8718,3.8718,3.8718,3.8718,3.8369,3.7497,3.7354,3.6914,3.5673,3.5485,0.0,3.5028,3.5028,3.5028,3.5028,3.5028,3.5028,3.5028,3.5028,3.4476,3.3276,3.324,3.3758,3.4957,3.5028,3.5028,3.5028,3.5028,3.5028,3.497,3.377,3.1848,2.9268,2.6713,2.4202,2.1699,2.0312,1.9725,1.9725,1.9725,1.9725,1.9725,1.9725,1.9725,1.9725,1.9725,1.9725,1.9725,5.6582,5.6582,5.6582,5.6582,5.6582,5.6582,5.6582,5.5993,5.5402,5.4936,5.4287,5.369,5.3182,5.3109,5.3109,5.3109,5.3109,5.3109,5.3109,5.3109,5.3109,5.3109,5.3109,5.3109,5.3109,5.3109,5.1925,4.9505,4.9134,4.6647,4.2304,4.1919,4.0627,3.8718,3.8718,3.8718,3.8718,3.8718,3.8718,3.8718,3.8718,3.8718,3.8718,3.8718,3.8718,3.8718,3.8718,3.8718,3.8718,3.8718,3.8718,3.8718,3.8718,3.8718,3.8718,3.8718,3.8718,3.8718,3.8718,3.8718,3.8718,3.8718,3.8718,3.8718,3.8718,3.8718,3.8718,3.8718,3.8718,3.8718,3.8718,3.8718,3.8298,3.7005,3.6784,3.6363,3.5192,0.0,3.5028,3.5028,3.5028,3.5028,3.5028,3.5028,3.4828,3.4417,3.4441,3.3276,3.0654,3.0524,3.1564,3.3758,3.3829,3.3829,3.3829,3.3829,3.3829,3.3829,3.1564,2.9169,2.6653,2.4494,2.2122,1.9725,1.9725,1.9725,1.9725,1.9725,1.9725,1.9725,1.9725,1.9725,1.9725,1.9725,1.9725,1.9725,5.6582,5.6582,5.6582,5.6582,5.6582,5.6582,5.6582,5.5671,5.499,5.4936,5.3943,5.3218,5.3109,5.3109,5.3109,5.3109,5.3109,5.3109,5.3109,5.3109,5.3109,5.3109,5.3109,5.3109,5.3109,5.3109,5.1925,4.9505,4.747,4.5015,4.2232,4.0181,3.9052,3.8718,3.8718,3.8718,3.8718,3.8718,3.8718,3.8718,3.8718,3.8718,3.8718,3.8718,3.8718,3.8718,3.8718,3.8718,3.8718,3.8718,3.8718,3.8718,3.8718,3.8718,3.8718,3.8718,3.8718,3.8718,3.8718,3.8718,3.8718,3.8718,3.8718,3.8718,3.8718,3.8718,3.8718,3.8718,3.8718,3.8718,3.8718,3.8718,3.8298,3.7005,3.6784,3.6363,3.5192,0.0,3.5028,3.5028,3.5028,3.5028,3.5028,3.5028,3.4053,3.1848,3.1719,3.0594,2.8017,2.7908,2.8077,2.8494,2.8494,2.8494,2.8494,2.8494,2.8494,2.8494,2.8077,2.6584,2.4073,2.3676,2.2122,1.9725,1.9725,1.9725,1.9725,1.9725,1.9725,1.9725,1.9725,1.9725,1.9725,1.9725,1.9725,1.9725,5.6582,5.6582,5.6582,5.6582,5.6582,5.6582,5.6582,5.5636,5.4882,5.4882,5.3834,5.3109,5.3109,5.3109,5.3109,5.3109,5.3109,5.3109,5.3109,5.3109,5.3109,5.3109,5.3109,5.3109,5.3109,5.3109,5.1925,4.9505,4.7095,4.4645,4.2232,3.9848,3.8718,3.8718,3.8718,3.8718,3.8718,3.8718,3.8718,3.8718,3.8718,3.8718,3.8718,3.8718,3.8718,3.8718,3.8718,3.8718,3.8718,3.8718,3.8718,3.8718,3.8718,3.8718,3.8718,3.8718,3.8718,3.8718,3.8718,3.8718,3.8718,3.8718,3.8718,3.8718,3.8718,3.8718,3.8718,3.8718,3.8718,3.8718,3.8718,3.8718,3.8298,3.7005,3.6784,0.0,0.0,3.5028,3.5028,3.5028,3.5028,3.5028,3.5028,3.3758,3.2402,3.1208,2.9823,2.7917,2.5395,2.5266,2.4623,2.3254,2.5875,2.7301,2.7301,2.7301,2.7301,2.7301,2.5943,2.4623,2.3427,2.2062,2.0797,1.9725,1.9725,1.9725,1.9725,1.9725,1.9725,1.9725,1.9725,1.9725,1.9725,1.9725,1.9725,1.9725,5.6582,5.6582,5.6582,5.6582,5.6582,5.6582,5.6582,5.5636,5.4882,5.4882,5.3834,5.3109,5.3109,5.3109,5.3109,5.3109,5.3109,5.3109,5.3109,5.3109,5.3109,5.3109,5.3109,5.3109,5.3109,5.3109,5.1634,4.8673,4.6799,4.4393,4.1403,3.9573,3.8718,3.8718,3.8718,3.8718,3.8718,3.8718,3.8718,3.8718,3.8718,3.8718,3.8718,3.8718,3.8718,3.8718,3.8718,3.8718,3.8718,3.8718,3.8718,3.8718,3.8718,3.8718,3.8718,3.8718,3.8718,3.8718,3.8718,3.8718,3.8718,3.8718,3.8718,3.8718,3.8718,3.8718,3.8718,3.8718,3.8718,3.8718,3.8718,3.8588,3.8137,3.7005,0.0,0.0,0.0,3.5028,3.5028,3.5028,3.5028,3.4735,3.4123,3.2273,3.0594,2.9397,2.749,2.5275,2.2772,2.2643,2.1699,1.9786,2.3487,2.5524,2.5524,2.5524,2.5524,2.5524,2.3548,2.2643,2.2522,2.0569,1.9725,1.9725,1.9725,1.9725,1.9725,1.9725,1.9725,1.9725,1.9725,1.9725,1.9725,1.9725,1.9725,1.9725,5.6582,5.6582,5.6582,5.6582,5.6582,5.6582,5.6582,5.5636,5.4882,5.4882,5.3834,5.3109,5.3109,5.3109,5.3109,5.3109,5.3109,5.3109,5.3109,5.3109,5.3109,5.3109,5.3109,5.3109,5.3109,5.3109,5.0792,4.6198,4.5973,4.3501,3.895,3.8789,3.8718,3.8718,3.8718,3.8718,3.8718,3.8718,3.8718,3.8718,3.8718,3.8718,3.8718,3.8718,3.8718,3.8718,3.8718,3.8718,3.8718,3.8718,3.8718,3.8718,3.8718,3.8718,3.8718,3.8718,3.8718,3.8718,3.8718,3.8718,3.8718,3.8718,3.8718,3.8718,3.8718,3.8718,3.8718,3.8718,3.8718,3.8718,3.8718,3.8208,3.7645,3.6914,0.0,0.0,3.5087,3.5028,3.5028,3.5028,3.5028,3.4053,3.1623,3.1208,2.9169,2.4391,2.3909,2.2651,2.0144,1.9955,1.9894,1.9725,2.0083,2.0272,2.0272,2.0272,2.0272,2.0272,2.0083,1.9955,1.9955,1.9786,1.9725,1.9725,1.9725,1.9725,1.9725,1.9725,1.9725,1.9725,1.9725,1.9725,1.9725,1.9725,1.9725,1.9725,5.6582,5.6582,5.6582,5.6582,5.6582,5.6582,5.6582,5.5636,5.4882,5.4882,5.3834,5.3109,5.3109,5.3109,5.3109,5.3109,5.3109,5.3109,5.3109,5.3109,5.3109,5.3109,5.3109,5.3109,5.3109,5.3109,5.1469,4.8156,4.6647,4.4182,4.0915,3.9399,3.8718,3.8718,3.8718,3.8718,3.8718,3.8718,3.8718,3.8718,3.8718,3.8718,3.8718,3.8718,3.8718,3.8718,3.8718,3.8718,3.8718,3.8718,3.8718,3.8718,3.8718,3.8718,3.8718,3.8718,3.8718,3.8718,3.8718,3.8718,3.8718,3.8718,3.8718,3.8718,3.8718,3.8718,3.8718,3.8718,3.8718,3.8718,3.8718,3.8499,3.8007,3.6946,0.0,3.6129,3.5158,3.5028,3.5028,3.5028,3.3594,3.2203,3.1208,2.8265,2.5584,2.3676,2.2062,2.0737,1.9725,1.9725,1.9725,1.9725,1.9725,1.9725,1.9725,1.9725,1.9725,1.9725,1.9725,1.9725,1.9725,1.9725,1.9725,1.9725,1.9725,1.9725,1.9725,1.9725,1.9725,1.9725,1.9725,1.9725,1.9725,1.9725,1.9725,1.9725,5.6582,5.6582,5.6582,5.6582,5.6421,5.6314,5.6314,5.5367,5.4612,5.4612,5.3726,5.3109,5.3109,5.3109,5.3109,5.3109,5.3109,5.3109,5.3109,5.3109,5.3109,5.3109,5.3109,5.3109,5.3109,5.2363,5.0792,4.8378,4.5973,4.3557,4.1145,3.9553,3.8806,3.8806,3.8945,3.8953,3.8953,3.8953,3.8953,3.8953,3.8953,3.8953,3.8953,3.8953,3.8945,3.8806,3.8806,3.8798,3.8718,3.8718,3.8718,3.8718,3.8718,3.8718,3.8718,3.8718,3.8718,3.8718,3.8718,3.8718,3.8718,3.8718,3.8718,3.8718,3.8718,3.8718,3.8718,3.8718,3.8718,3.8718,3.8718,3.8369,3.7846,3.6914,3.648,3.5966,3.5099,3.5028,3.4676,3.3888,3.2203,3.0486,2.8881,2.5524,2.3194,2.2357,2.0676,1.9725,1.9725,1.9725,1.9725,1.9725,1.9725,1.9725,1.9725,1.9725,1.9725,1.9725,1.9725,1.9725,1.9725,1.9725,1.9725,1.9725,1.9725,1.9725,1.9725,1.9725,1.9725,1.9725,1.9725,1.9725,1.9725,1.9725,1.9725,1.9725,5.6582,5.6582,5.6582,5.6582,5.61,5.5725,5.5725,5.4701,5.4016,5.4016,5.3454,5.3109,5.3109,5.3109,5.3109,5.3109,5.3109,5.3109,5.3109,5.3109,5.3109,5.3109,5.3109,5.3109,5.3054,5.0699,4.8306,4.5901,4.3486,4.1073,3.8731,3.8953,3.91,3.91,3.9452,3.9599,3.9599,3.9599,3.9599,3.9599,3.9599,3.9599,3.9599,3.9599,3.9412,3.91,3.91,3.8913,3.8718,3.8718,3.8718,3.8718,3.8718,3.8718,3.8718,3.8718,3.8718,3.8718,3.8718,3.8718,3.8718,3.8718,3.8718,3.8718,3.8718,3.8718,3.8718,3.8718,3.8718,3.8718,3.8718,3.7658,3.6784,3.6784,3.5778,3.5028,3.5028,3.5028,3.4053,3.1434,3.1079,2.9099,2.3969,2.3487,2.2417,1.9894,1.9725,1.9725,1.9725,1.9725,1.9725,1.9725,1.9725,1.9725,1.9725,1.9725,1.9725,1.9725,1.9725,1.9725,1.9725,1.9725,1.9725,1.9725,1.9725,1.9725,1.9725,1.9725,1.9725,1.9725,1.9725,1.9725,1.9725,1.9725,1.9725,1.9725,5.6582,5.6582,5.6582,5.6582,5.61,5.5725,5.5725,5.4701,5.4016,5.4016,5.3454,5.3109,5.3109,5.3109,5.3109,5.3109,5.3109,5.3109,5.3109,5.3109,5.3109,5.3109,5.3109,5.229,5.0627,4.9892,4.7486,4.3357,4.2897,4.137,3.8993,3.9287,3.9452,3.9493,3.9559,3.9599,3.9599,3.9599,3.9599,3.9599,3.9599,3.9599,3.9599,3.9599,3.9559,3.9452,3.9452,3.9265,3.8953,3.8953,3.8846,3.8718,3.8718,3.8718,3.8718,3.8718,3.8718,3.8718,3.8718,3.8718,3.8718,3.8718,3.8718,3.8718,3.8718,3.8718,3.8718,3.8718,3.8718,3.8718,3.8718,3.8021,3.7354,3.6901,3.6129,3.5485,3.5087,3.5028,3.4053,3.1434,2.9526,2.7131,2.3841,2.1873,2.0501,1.9786,1.9725,1.9725,1.9725,1.9725,1.9725,1.9725,1.9725,1.9725,1.9725,1.9725,1.9725,1.9725,1.9725,1.9725,1.9725,1.9725,1.9725,1.9725,1.9725,1.9725,1.9725,1.9725,1.9725,1.9725,1.9725,1.9725,1.9725,1.9725,1.9725,1.9725,5.6582,5.6582,5.6582,5.6582,5.5939,5.5348,5.5348,5.4376,5.3617,5.3617,5.3345,5.3109,5.3109,5.3109,5.3109,5.3109,5.3109,5.3109,5.3109,5.3109,5.3109,5.3109,5.3109,5.198,4.956,4.8545,4.6246,4.2509,4.1702,4.065,3.9287,3.964,3.9773,3.9773,3.9893,3.9933,3.9933,3.9933,3.9933,3.9933,3.9933,3.9933,3.9933,3.9933,3.9893,3.9773,3.9773,3.954,3.9306,3.914,3.8913,3.8718,3.8718,3.8718,3.8718,3.8718,3.8718,3.8718,3.8718,3.8718,3.8718,3.8718,3.8718,3.8718,3.8718,3.8718,3.8718,3.8718,3.8718,3.8718,3.8718,3.8007,3.7264,3.6843,3.607,3.5451,3.5028,3.5028,3.3641,3.004,2.8265,2.5883,2.2357,2.063,1.9725,1.9725,1.9725,1.9725,1.9725,1.9725,1.9725,1.9725,1.9725,1.9725,1.9725,1.9725,1.9725,1.9725,1.9725,1.9725,1.9725,1.9725,1.9725,1.9725,1.9725,1.9725,1.9725,1.9725,1.9725,1.9725,1.9725,1.9725,1.9725,1.9725,1.9725,1.9725,5.6582,5.6582,5.6582,5.6582,5.5671,5.4936,5.4936,5.3889,5.3109,5.3163,5.3109,5.3109,5.3109,5.3109,5.3109,5.3109,5.3109,5.3109,5.3109,5.3109,5.3109,5.3109,5.2891,5.1669,4.9262,4.7071,4.4779,4.2469,4.0254,3.9313,3.964,3.992,4.0067,4.0067,4.0361,4.0481,4.0481,4.0481,4.0481,4.0481,4.0481,4.0481,4.0481,4.0481,4.0294,4.0067,4.0067,3.9893,3.9599,3.9207,3.8913,3.8718,3.8718,3.8718,3.8718,3.8718,3.8718,3.8718,3.8718,3.8718,3.8718,3.8718,3.8718,3.8718,3.8718,3.8718,3.8718,3.8718,3.8718,3.866,3.866,3.7587,3.6784,3.6713,3.5766,3.5028,3.5028,3.5028,3.3052,2.7888,2.7301,2.5275,2.0204,1.9725,1.9725,1.9725,1.9725,1.9725,1.9725,1.9725,1.9725,1.9725,1.9725,1.9725,1.9725,1.9725,1.9725,1.9725,1.9725,1.9725,1.9725,1.9725,1.9725,1.9725,1.9725,1.9725,1.9725,1.9725,1.9725,1.9725,1.9725,1.9725,1.9725,1.9725,1.9725,1.9725,5.6582,5.6582,5.6582,5.6582,5.5671,5.5044,5.5456,5.4141,5.3291,5.3726,5.3399,5.3109,5.3109,5.3109,5.3109,5.3109,5.3109,5.3109,5.3109,5.3109,5.3109,5.3109,5.1304,4.927,4.7123,4.6541,4.4209,3.992,3.9837,3.982,3.99,4.0254,4.0361,4.0361,4.0441,4.0481,4.0481,4.0481,4.0481,4.0481,4.0481,4.0481,4.0481,4.0481,4.0441,4.0361,4.0361,4.0187,3.9853,3.9273,3.8913,3.8718,3.8718,3.8718,3.8718,3.8718,3.8718,3.8718,3.8718,3.8718,3.8718,3.8718,3.8718,3.8718,3.8718,3.8718,3.8718,3.8718,3.8718,3.853,3.8079,3.7354,3.668,3.6187,3.5485,3.5028,3.5028,3.5028,3.3052,2.7888,2.7301,2.5275,2.0204,1.9725,1.9725,1.9725,1.9725,1.9725,1.9725,1.9725,1.9725,1.9725,1.9725,1.9725,1.9725,1.9725,1.9725,1.9725,1.9725,1.9725,1.9725,1.9725,1.9725,1.9725,1.9725,1.9725,1.9725,1.9725,1.9725,1.9725,1.9725,1.9725,1.9725,1.9725,1.9725,1.9725,5.6582,5.6582,5.6582,5.6582,5.5671,5.499,5.5313,5.4051,5.3218,5.3508,5.3291,5.3109,5.3109,5.3109,5.3109,5.3109,5.3109,5.3109,5.3109,5.3109,5.3109,5.3109,5.0792,4.8506,4.6441,4.5398,4.3109,3.95,3.982,4.0107,4.0254,4.0401,4.0481,4.0481,4.0481,4.0481,4.0481,4.0481,4.0481,4.0481,4.0481,4.0481,4.0481,4.0481,4.0481,4.0481,4.0481,4.0294,3.99,3.946,3.9159,3.8846,3.8758,3.8718,3.8718,3.8718,3.8718,3.8718,3.8718,3.8718,3.8718,3.8718,3.8718,3.8718,3.8718,3.8718,3.8718,3.8718,3.8499,3.815,3.7846,3.7005,3.6258,3.5966,3.538,3.5028,3.5028,3.5028,3.3052,2.7888,2.7301,2.5275,2.0204,1.9725,1.9725,1.9725,1.9725,1.9725,1.9725,1.9725,1.9725,1.9725,1.9725,1.9725,1.9725,1.9725,1.9725,1.9725,1.9725,1.9725,1.9725,1.9725,1.9725,1.9725,1.9725,1.9725,1.9725,1.9725,1.9725,1.9725,1.9725,1.9725,1.9725,1.9725,1.9725,1.9725,5.6582,5.6582,5.6582,5.6582,5.5671,5.4936,5.5044,5.3943,5.3109,5.3236,5.3163,5.3109,5.3109,5.3109,5.3109,5.3109,5.3109,5.3109,5.3109,5.3109,5.3109,5.3109,5.0459,4.8198,4.652,4.3954,4.175,3.9967,4.0067,4.0214,4.0481,4.0481,4.0481,4.0481,4.0481,4.0481,4.0481,4.0481,4.0481,4.0481,4.0481,4.0481,4.0481,4.0481,4.0481,4.0481,4.0481,4.0294,3.994,3.9706,3.9353,3.906,3.8766,3.8718,3.8718,3.8718,3.8718,3.8718,3.8718,3.8718,3.8718,3.8718,3.8718,3.8718,3.8718,3.8718,3.866,3.8588,3.8137,3.7717,3.7497,3.6622,3.5895,3.5766,3.5322,3.5028,3.5028,3.4605,3.2568,2.7848,2.6524,2.4331,2.0083,1.9725,1.9725,1.9725,1.9725,1.9725,1.9725,1.9725,1.9725,1.9725,1.9725,1.9725,1.9725,1.9725,1.9725,1.9725,1.9725,1.9725,1.9725,1.9725,1.9725,1.9725,1.9725,1.9725,1.9725,1.9725,1.9725,1.9725,1.9725,1.9725,1.9725,1.9725,1.9725,1.9725,5.6582,5.6582,5.6582,5.6582,5.5671,5.5044,5.551,5.4141,5.3291,5.3799,5.3399,5.3109,5.3109,5.3109,5.3109,5.3109,5.3109,5.3109,5.3109,5.3109,5.3109,5.3109,4.9088,4.6821,4.6729,4.262,4.0273,3.9967,4.0294,4.0441,4.0481,4.0481,4.0481,4.0481,4.0481,4.0481,4.0481,4.0481,4.0481,4.0481,4.0481,4.0481,4.0481,4.0481,4.0481,4.0481,4.0481,4.0294,3.994,3.9706,3.9353,3.906,3.8766,3.8718,3.8718,3.8718,3.8718,3.8718,3.8718,3.8718,3.8718,3.8718,3.8718,3.8718,3.8718,3.8718,3.853,3.8007,3.7846,3.7484,3.6388,3.6037,3.5744,3.5192,3.5028,3.5028,3.5028,3.3052,3.0535,2.7659,2.3427,2.044,1.9786,1.9725,1.9725,1.9725,1.9725,1.9725,1.9725,1.9725,1.9725,1.9725,1.9725,1.9725,1.9725,1.9725,1.9725,1.9725,1.9725,1.9725,1.9725,1.9725,1.9725,1.9725,1.9725,1.9725,1.9725,1.9725,1.9725,1.9725,1.9725,1.9725,1.9725,1.9725,1.9725,1.9725,5.6582,5.6582,5.6582,5.6582,5.5671,5.499,5.5206,5.4051,5.3182,5.3454,5.3291,5.3109,5.3109,5.3109,5.3109,5.3109,5.3109,5.3109,5.3109,5.3109,5.3109,5.3109,4.8786,4.6543,4.6808,4.2337,4.0107,4.0294,4.0401,4.0481,4.0481,4.0481,4.0481,4.0481,4.0481,4.0481,4.0481,4.0481,4.0481,4.0481,4.0481,4.0481,4.0481,4.0481,4.0481,4.0481,4.0481,4.0401,4.0214,3.9933,3.964,3.9346,3.8993,3.8806,3.8718,3.8718,3.8718,3.8718,3.8718,3.8718,3.8718,3.8718,3.8441,3.8208,3.8208,3.7917,3.7658,3.7788,3.7205,3.6551,3.6024,3.5615,3.5322,3.5028,3.5028,3.4476,3.3052,3.1848,2.9655,2.5626,2.1933,1.9725,1.9725,1.9725,1.9725,1.9725,1.9725,1.9725,1.9725,1.9725,1.9725,1.9725,1.9725,1.9725,1.9725,1.9725,1.9725,1.9725,1.9725,1.9725,1.9725,1.9725,1.9725,1.9725,1.9725,1.9725,1.9725,1.9725,1.9725,1.9725,1.9725,1.9725,1.9725,1.9725,1.9725,1.9725]},{"header":{"parameterUnit":"m.s-1","parameterCategory":1,"la1":30.6,"la2":28.766,"lo1":-90.7593,"lo2":-88.6598,"dy":0.0162,"dx":0.0183,"nx":116,"ny":114,"refTime":"2023-04-08T00:00:00:Z","depth":0,"parameterNumber":3,"parameterNumberName":"V-component_of_WINDS"},"data":[0.0,0.0,0.0,0.0,0.0,0.0,0.0,0.0,0.0,0.0,0.0,0.0,0.0,0.0,0.0,0.0,0.0,0.0,0.0,0.0,0.0,0.0,0.0,0.0,0.0,0.0,0.0,0.0,0.0,0.0,0.0,0.0,0.0,0.0,0.0,0.0,0.0,0.0,0.0,0.0,0.0,0.0,0.0,0.0,0.0,0.0,0.0,0.0,0.0,0.0,0.0,0.0,0.0,0.0,0.0,0.0,0.0,0.0,0.0,0.0,0.0,0.0,0.0,0.0,0.0,0.0,0.0,0.0,0.0,0.0,0.0,0.0,0.0,0.0,0.0,0.0,0.0,0.0,0.0,0.0,0.0,0.0,0.0,0.0,0.0,0.0,0.0,0.0,0.0,0.0,0.0,0.0,0.0,0.0,0.0,0.0,0.0,0.0,0.0,0.0,0.0,0.0,0.0,0.0,0.0,0.0,0.0,0.0,0.0,0.0,0.0,0.0,0.0,0.0,0.0,0.0,0.0,0.0,0.0,0.0,0.0,0.0,0.0,0.0,0.0,0.0,0.0,0.0,0.0,0.0,0.0,0.0,0.0,0.0,0.0,0.0,0.0,0.0,0.0,0.0,0.0,0.0,0.0,0.0,0.0,0.0,0.0,0.0,0.0,0.0,0.0,0.0,0.0,0.0,0.0,0.0,0.0,0.0,0.0,0.0,0.0,0.0,0.0,0.0,0.0,0.0,0.0,0.0,0.0,0.0,0.0,0.0,0.0,0.0,0.0,0.0,0.0,0.0,0.0,0.0,0.0,0.0,0.0,0.0,0.0,0.0,0.0,0.0,0.0,0.0,0.0,0.0,0.0,0.0,0.0,0.0,0.0,0.0,0.0,0.0,0.0,0.0,0.0,0.0,0.0,0.0,0.0,0.0,0.0,0.0,0.0,0.0,0.0,0.0,0.0,0.0,0.0,0.0,0.0,0.0,0.0,0.0,0.0,0.0,0.0,0.0,0.0,0.0,0.0,0.0,0.0,0.0,0.0,0.0,0.0,0.0,0.0,0.0,0.0,0.0,0.0,0.0,0.0,0.0,0.0,0.0,0.0,0.0,0.0,0.0,0.0,0.0,0.0,0.0,0.0,0.0,0.0,0.0,0.0,0.0,0.0,0.0,0.0,0.0,0.0,0.0,0.0,0.0,0.0,0.0,0.0,0.0,0.0,0.0,0.0,0.0,0.0,0.0,0.0,0.0,0.0,0.0,0.0,0.0,0.0,0.0,0.0,0.0,0.0,0.0,0.0,0.0,0.0,0.0,0.0,0.0,0.0,0.0,0.0,0.0,0.0,0.0,0.0,0.0,0.0,0.0,0.0,0.0,0.0,0.0,0.0,0.0,0.0,0.0,0.0,0.0,0.0,0.0,0.0,0.0,0.0,0.0,0.0,0.0,0.0,0.0,0.0,0.0,0.0,0.0,0.0,0.0,0.0,0.0,0.0,0.0,0.0,0.0,0.0,0.0,0.0,0.0,0.0,0.0,0.0,0.0,0.0,0.0,0.0,0.0,0.0,0.0,0.0,0.0,0.0,0.0,0.0,0.0,0.0,0.0,0.0,0.0,0.0,0.0,0.0,0.0,0.0,0.0,0.0,0.0,0.0,0.0,0.0,0.0,0.0,0.0,0.0,0.0,0.0,0.0,0.0,0.0,0.0,0.0,0.0,0.0,0.0,0.0,0.0,0.0,0.0,0.0,0.0,0.0,0.0,0.0,0.0,0.0,0.0,0.0,0.0,0.0,0.0,0.0,0.0,0.0,0.0,0.0,0.0,0.0,0.0,0.0,0.0,0.0,0.0,0.0,0.0,0.0,0.0,0.0,0.0,0.0,0.0,0.0,0.0,0.0,0.0,0.0,0.0,0.0,0.0,0.0,0.0,0.0,0.0,0.0,0.0,0.0,0.0,0.0,0.0,0.0,0.0,0.0,0.0,0.0,0.0,0.0,0.0,0.0,0.0,0.0,0.0,0.0,0.0,0.0,0.0,0.0,0.0,0.0,0.0,0.0,0.0,0.0,0.0,0.0,0.0,0.0,0.0,0.0,0.0,0.0,0.0,0.0,0.0,0.0,0.0,0.0,0.0,0.0,0.0,0.0,0.0,0.0,0.0,0.0,0.0,0.0,0.0,0.0,0.0,0.0,0.0,0.0,0.0,0.0,0.0,0.0,0.0,0.0,0.0,0.0,0.0,0.0,0.0,0.0,0.0,0.0,0.0,0.0,0.0,0.0,0.0,0.0,0.0,0.0,0.0,0.0,0.0,0.0,0.0,0.0,0.0,0.0,0.0,0.0,0.0,0.0,0.0,0.0,0.0,0.0,0.0,0.0,0.0,0.0,0.0,0.0,0.0,0.0,0.0,0.0,0.0,0.0,0.0,0.0,0.0,0.0,0.0,0.0,0.0,0.0,0.0,0.0,0.0,0.0,0.0,0.0,0.0,0.0,0.0,0.0,0.0,0.0,0.0,0.0,0.0,0.0,0.0,0.0,0.0,0.0,0.0,0.0,0.0,0.0,0.0,0.0,0.0,0.0,0.0,0.0,0.0,0.0,0.0,0.0,0.0,0.0,0.0,0.0,0.0,0.0,0.0,0.0,0.0,0.0,0.0,0.0,0.0,0.0,0.0,0.0,0.0,0.0,0.0,0.0,0.0,0.0,0.0,0.0,0.0,0.0,0.0,0.0,0.0,0.0,0.0,0.0,0.0,0.0,0.0,0.0,0.0,0.0,0.0,0.0,0.0,0.0,0.0,0.0,0.0,0.0,0.0,0.0,0.0,0.0,0.0,0.0,0.0,0.0,0.0,0.0,0.0,0.0,0.0,0.0,0.0,0.0,0.0,0.0,0.0,0.0,0.0,0.0,0.0,0.0,0.0,0.0,0.0,0.0,0.0,0.0,0.0,0.0,0.0,0.0,0.0,0.0,0.0,0.0,0.0,0.0,0.0,0.0,0.0,0.0,0.0,0.0,0.0,0.0,0.0,0.0,0.0,0.0,0.0,0.0,0.0,0.0,0.0,0.0,0.0,0.0,0.0,0.0,0.0,0.0,0.0,0.0,0.0,0.0,0.0,0.0,0.0,0.0,0.0,0.0,0.0,0.0,0.0,0.0,0.0,0.0,0.0,0.0,0.0,0.0,0.0,0.0,0.0,0.0,0.0,0.0,0.0,0.0,0.0,0.0,0.0,0.0,0.0,0.0,0.0,0.0,0.0,0.0,0.0,0.0,0.0,0.0,0.0,0.0,0.0,0.0,0.0,0.0,0.0,0.0,0.0,0.0,0.0,0.0,0.0,0.0,0.0,0.0,0.0,0.0,0.0,0.0,0.0,0.0,0.0,0.0,0.0,0.0,0.0,0.0,0.0,0.0,0.0,0.0,0.0,0.0,0.0,0.0,0.0,0.0,0.0,0.0,0.0,0.0,0.0,0.0,0.0,0.0,0.0,0.0,0.0,0.0,0.0,0.0,0.0,0.0,0.0,0.0,0.0,0.0,0.0,0.0,0.0,0.0,0.0,0.0,0.0,0.0,0.0,0.0,0.0,0.0,0.0,0.0,0.0,0.0,0.0,0.0,0.0,0.0,0.0,0.0,0.0,0.0,0.0,0.0,0.0,0.0,0.0,0.0,0.0,0.0,0.0,0.0,0.0,0.0,0.0,0.0,0.0,0.0,0.0,0.0,0.0,0.0,0.0,0.0,0.0,0.0,0.0,0.0,0.0,0.0,0.0,0.0,0.0,0.0,0.0,0.0,0.0,0.0,0.0,0.0,0.0,0.0,0.0,0.0,0.0,0.0,0.0,0.0,0.0,0.0,0.0,0.0,0.0,0.0,0.0,0.0,0.0,0.0,0.0,0.0,0.0,0.0,0.0,0.0,0.0,0.0,0.0,0.0,0.0,0.0,0.0,0.0,0.0,0.0,0.0,0.0,0.0,0.0,0.0,0.0,0.0,0.0,0.0,0.0,0.0,0.0,0.0,0.0,0.0,0.0,0.0,0.0,0.0,0.0,0.0,0.0,0.0,0.0,0.0,0.0,0.0,0.0,0.0,0.0,0.0,0.0,0.0,0.0,0.0,0.0,0.0,0.0,0.0,0.0,0.0,0.0,0.0,0.0,0.0,0.0,0.0,0.0,0.0,0.0,0.0,0.0,0.0,0.0,0.0,0.0,0.0,0.0,0.0,0.0,0.0,0.0,0.0,0.0,0.0,0.0,0.0,0.0,0.0,0.0,0.0,0.0,0.0,0.0,0.0,0.0,0.0,0.0,0.0,0.0,0.0,0.0,0.0,0.0,0.0,0.0,0.0,0.0,0.0,0.0,0.0,0.0,0.0,0.0,0.0,0.0,0.0,0.0,0.0,0.0,0.0,0.0,0.0,0.0,0.0,0.0,0.0,0.0,0.0,0.0,0.0,0.0,0.0,0.0,0.0,0.0,0.0,0.0,0.0,0.0,0.0,0.0,0.0,0.0,0.0,0.0,0.0,0.0,0.0,0.0,0.0,0.0,0.0,0.0,0.0,0.0,0.0,0.0,0.0,0.0,0.0,0.0,0.0,0.0,0.0,0.0,0.0,0.0,0.0,0.0,0.0,0.0,0.0,0.0,0.0,0.0,0.0,0.0,0.0,0.0,0.0,0.0,0.0,0.0,0.0,0.0,0.0,0.0,0.0,0.0,0.0,0.0,0.0,0.0,0.0,0.0,0.0,0.0,0.0,0.0,0.0,0.0,0.0,0.0,0.0,0.0,0.0,0.0,0.0,0.0,0.0,0.0,0.0,0.0,0.0,0.0,0.0,0.0,0.0,0.0,0.0,0.0,0.0,0.0,0.0,0.0,0.0,0.0,0.0,0.0,0.0,0.0,0.0,0.0,0.0,0.0,0.0,0.0,0.0,0.0,0.0,0.0,0.0,0.0,0.0,0.0,0.0,0.0,0.0,0.0,0.0,0.0,0.0,0.0,0.0,0.0,0.0,0.0,0.0,0.0,0.0,0.0,0.0,0.0,0.0,0.0,0.0,0.0,0.0,0.0,0.0,0.0,0.0,0.0,0.0,0.0,0.0,0.0,0.0,0.0,0.0,0.0,0.0,0.0,0.0,0.0,0.0,0.0,0.0,0.0,0.0,0.0,0.0,0.0,0.0,0.0,0.0,0.0,0.0,0.0,0.0,0.0,0.0,0.0,0.0,0.0,0.0,0.0,0.0,0.0,0.0,0.0,0.0,0.0,0.0,0.0,0.0,0.0,0.0,0.0,0.0,0.0,0.0,0.0,0.0,0.0,0.0,0.0,0.0,0.0,0.0,0.0,0.0,0.0,0.0,0.0,0.0,0.0,0.0,0.0,0.0,0.0,0.0,0.0,0.0,0.0,0.0,0.0,0.0,0.0,0.0,0.0,0.0,0.0,0.0,0.0,0.0,0.0,0.0,0.0,0.0,0.0,0.0,0.0,0.0,0.0,0.0,0.0,0.0,0.0,0.0,0.0,0.0,0.0,0.0,0.0,0.0,0.0,0.0,0.0,0.0,0.0,0.0,0.0,0.0,0.0,0.0,0.0,0.0,0.0,0.0,0.0,0.0,0.0,0.0,0.0,0.0,0.0,0.0,0.0,0.0,0.0,0.0,0.0,0.0,0.0,0.0,0.0,0.0,0.0,0.0,0.0,0.0,0.0,0.0,0.0,0.0,0.0,0.0,0.0,0.0,0.0,0.0,0.0,0.0,0.0,0.0,0.0,0.0,0.0,0.0,0.0,0.0,0.0,0.0,0.0,0.0,0.0,0.0,0.0,0.0,0.0,0.0,0.0,0.0,0.0,0.0,0.0,0.0,0.0,0.0,0.0,0.0,0.0,0.0,0.0,0.0,0.0,0.0,0.0,0.0,0.0,0.0,0.0,0.0,0.0,0.0,0.0,0.0,0.0,0.0,0.0,0.0,0.0,0.0,0.0,0.0,0.0,0.0,0.0,0.0,0.0,0.0,0.0,0.0,0.0,0.0,0.0,0.0,0.0,0.0,0.0,0.0,0.0,0.0,0.0,0.0,0.0,0.0,0.0,0.0,0.0,0.0,0.0,0.0,0.0,0.0,0.0,6.6318,0.0,0.0,0.0,0.0,0.0,0.0,0.0,0.0,0.0,0.0,0.0,0.0,0.0,0.0,0.0,0.0,0.0,0.0,0.0,0.0,0.0,0.0,0.0,0.0,4.2041,4.2758,4.4541,4.471,4.5508,4.7344,4.7788,4.8222,4.8745,4.9097,4.9426,4.9733,5.0032,5.0384,5.0684,5.0769,5.0417,4.9608,4.9523,4.9795,5.0377,0.0,0.0,0.0,0.0,0.0,0.0,0.0,0.0,0.0,0.0,0.0,0.0,0.0,0.0,0.0,0.0,0.0,0.0,0.0,0.0,0.0,0.0,0.0,0.0,0.0,0.0,0.0,0.0,0.0,0.0,0.0,0.0,0.0,0.0,0.0,0.0,0.0,0.0,0.0,0.0,0.0,0.0,0.0,0.0,0.0,0.0,0.0,0.0,0.0,0.0,0.0,0.0,0.0,0.0,0.0,0.0,0.0,0.0,0.0,0.0,0.0,0.0,0.0,0.0,0.0,0.0,0.0,0.0,0.0,0.0,0.0,6.6994,0.0,0.0,0.0,0.0,0.0,0.0,0.0,0.0,0.0,0.0,0.0,0.0,0.0,0.0,0.0,0.0,0.0,0.0,0.0,0.0,0.0,4.1648,4.2589,4.2687,4.3753,4.6436,4.6523,4.7213,4.9179,4.9208,4.9245,4.9456,4.9666,5.0032,5.0548,5.1206,5.1733,5.2102,5.1407,5.0566,4.9566,4.9705,5.0263,5.1253,5.2197,0.0,0.0,0.0,0.0,0.0,0.0,0.0,0.0,0.0,0.0,0.0,0.0,0.0,0.0,0.0,0.0,0.0,0.0,0.0,0.0,0.0,0.0,0.0,0.0,0.0,0.0,0.0,0.0,0.0,0.0,0.0,0.0,0.0,0.0,0.0,0.0,0.0,0.0,0.0,0.0,0.0,0.0,0.0,0.0,0.0,0.0,0.0,0.0,0.0,0.0,0.0,0.0,0.0,0.0,0.0,0.0,0.0,0.0,0.0,0.0,0.0,0.0,0.0,6.8774,6.9113,6.9113,6.9214,6.9282,6.9214,6.8098,6.7772,6.8098,6.8098,0.0,0.0,0.0,0.0,0.0,0.0,0.0,0.0,0.0,0.0,0.0,0.0,0.0,0.0,0.0,0.0,0.0,0.0,0.0,4.1557,4.2206,4.2284,4.3352,4.597,4.5342,4.6103,4.9119,4.8927,4.9104,5.0023,5.1199,5.1858,5.1947,5.2576,5.2496,5.1583,5.0061,4.9255,4.909,4.9635,4.9964,5.0104,5.0166,5.0162,5.024,0.0,0.0,0.0,0.0,0.0,0.0,0.0,0.0,0.0,0.0,0.0,0.0,0.0,0.0,0.0,0.0,0.0,0.0,0.0,0.0,0.0,0.0,0.0,0.0,0.0,0.0,0.0,0.0,0.0,0.0,0.0,0.0,0.0,0.0,0.0,0.0,0.0,0.0,0.0,0.0,0.0,6.1565,6.1783,0.0,0.0,0.0,0.0,0.0,0.0,0.0,0.0,0.0,0.0,0.0,0.0,0.0,6.8808,6.8808,6.8876,6.8944,6.8944,6.9045,6.9113,6.9113,6.9755,7.0026,7.006,7.0534,0.0,6.8944,6.8944,0.0,0.0,0.0,0.0,0.0,0.0,0.0,0.0,0.0,0.0,0.0,0.0,0.0,0.0,0.0,0.0,0.0,0.0,0.0,0.0,0.0,4.3373,4.4093,4.6194,4.5801,4.6653,4.96,4.9601,5.0189,5.184,5.2456,5.2755,5.2755,5.2738,5.204,5.0591,5.0517,5.0353,5.0065,5.1014,5.1654,5.2043,5.196,5.1885,5.1816,5.2339,0.0,0.0,0.0,0.0,0.0,0.0,0.0,0.0,0.0,0.0,0.0,0.0,0.0,0.0,0.0,0.0,0.0,0.0,0.0,0.0,0.0,0.0,0.0,0.0,0.0,0.0,0.0,0.0,0.0,0.0,0.0,0.0,0.0,0.0,0.0,0.0,0.0,0.0,0.0,6.2874,6.2597,6.3566,6.4365,6.5193,0.0,0.0,0.0,0.0,0.0,0.0,0.0,0.0,0.0,6.9079,6.9485,6.9722,6.9722,7.0534,7.0939,7.0973,7.1379,7.1548,7.1582,7.1909,7.2045,7.2079,7.2394,7.2157,7.1548,7.1142,7.121,7.1548,0.0,0.0,0.0,0.0,7.1548,7.1548,0.0,0.0,0.0,0.0,0.0,0.0,0.0,0.0,0.0,0.0,0.0,0.0,4.4084,4.3983,4.4561,4.6372,4.6118,4.7175,5.0213,5.0194,5.1029,5.3096,5.3354,5.3558,5.3707,5.3345,5.2566,5.1321,5.1904,5.2017,5.1643,5.2547,5.3219,5.3726,5.3978,5.3882,5.3508,5.3801,5.4436,5.5137,0.0,0.0,0.0,0.0,0.0,0.0,0.0,0.0,0.0,0.0,0.0,0.0,0.0,0.0,0.0,0.0,0.0,0.0,0.0,0.0,0.0,0.0,0.0,0.0,0.0,0.0,0.0,0.0,0.0,0.0,0.0,0.0,0.0,0.0,0.0,0.0,0.0,6.3574,6.3388,6.4653,6.4951,6.5555,0.0,0.0,0.0,0.0,0.0,0.0,6.9654,6.9857,7.0026,7.0229,7.0737,7.1041,7.1041,7.2124,7.2665,7.2699,7.3409,7.3781,7.3781,7.4187,7.438,7.4356,7.4583,7.465,7.4549,7.3206,7.3003,7.35,7.35,7.35,7.3534,7.3713,7.3781,7.3815,0.0,0.0,0.0,0.0,0.0,0.0,0.0,0.0,0.0,0.0,0.0,4.2812,4.3383,4.322,4.3956,4.6141,4.5646,4.6866,5.0695,5.0233,5.0829,5.3101,5.3803,5.4461,5.5114,5.519,5.5215,5.5106,5.4088,5.3585,5.3557,5.3642,5.367,5.3754,5.4839,5.4699,5.3754,5.4833,5.5353,5.5488,5.6473,0.0,0.0,0.0,0.0,0.0,0.0,0.0,0.0,0.0,0.0,0.0,0.0,0.0,0.0,0.0,0.0,0.0,0.0,0.0,0.0,0.0,0.0,0.0,0.0,0.0,0.0,0.0,0.0,0.0,0.0,0.0,0.0,0.0,0.0,0.0,0.0,0.0,0.0,6.3399,6.3969,0.0,0.0,0.0,0.0,6.7581,6.9144,7.0432,7.1154,7.1853,7.2563,7.3263,7.3331,7.3331,7.3331,7.3432,7.3466,7.3443,7.4187,7.4559,7.4593,7.6048,7.6724,7.6758,7.7468,7.7797,7.7561,7.465,7.3466,7.35,7.35,7.35,7.3601,7.4289,7.4559,7.4661,0.0,0.0,0.0,0.0,0.0,4.0364,4.1055,4.1467,4.1983,4.2865,4.3071,4.3328,4.3897,4.4039,4.4341,4.4978,4.5281,4.6537,4.9036,4.9822,5.1305,5.3873,5.4943,5.544,5.5331,5.5369,5.5058,5.4313,5.4617,5.5013,5.5471,5.6187,5.6749,5.7214,5.7596,5.7542,5.7101,5.5898,5.5818,5.6459,5.614,5.6433,0.0,0.0,0.0,0.0,0.0,0.0,0.0,0.0,0.0,0.0,0.0,0.0,0.0,0.0,0.0,0.0,0.0,0.0,0.0,0.0,0.0,0.0,0.0,0.0,0.0,0.0,0.0,0.0,0.0,0.0,0.0,0.0,0.0,0.0,0.0,0.0,0.0,6.4912,6.4545,0.0,6.7549,6.8445,6.9583,7.1237,7.1941,7.2428,7.2699,7.2969,7.3229,7.35,7.4424,7.4897,7.4897,7.5902,7.641,7.641,7.6657,7.6792,7.6792,7.7333,7.7604,7.7604,7.7899,7.8,7.7933,7.685,7.641,7.641,7.641,7.641,7.6444,7.669,7.6792,7.6826,0.0,0.0,0.0,0.0,0.0,4.0334,4.1052,4.1618,4.2236,4.3142,4.3346,4.3626,4.4217,4.4461,4.4622,4.483,4.5559,4.7048,4.9407,5.0574,5.2411,5.5195,5.631,5.6664,5.6332,5.6537,5.6271,5.5527,5.6271,5.686,5.7328,5.8092,5.8653,5.9099,5.9099,5.9099,5.8985,5.7363,5.7086,5.7729,5.6952,5.7086,5.7782,0.0,0.0,0.0,0.0,0.0,0.0,0.0,0.0,0.0,0.0,0.0,0.0,0.0,0.0,0.0,0.0,0.0,0.0,0.0,0.0,0.0,0.0,0.0,0.0,0.0,0.0,0.0,0.0,0.0,0.0,0.0,0.0,0.0,0.0,6.6418,6.6622,6.6598,6.6419,6.7271,6.969,7.0226,7.1137,7.2804,7.3753,7.4221,7.4221,7.4752,7.5023,7.5023,7.5946,7.6487,7.6487,7.7493,7.8,7.8,7.8247,7.8382,7.8382,7.8619,7.872,7.872,7.872,7.872,7.872,7.872,7.872,7.8686,7.8204,7.8,7.8034,7.828,7.8382,7.8416,0.0,0.0,0.0,0.0,0.0,4.0894,4.0919,4.2124,4.3001,4.3001,4.3241,4.3663,4.4249,4.4351,4.4779,4.5842,4.6531,4.8415,5.1905,5.249,5.4011,5.7016,5.7782,5.8115,5.8115,5.877,5.9099,5.9099,5.9099,5.9099,5.9099,5.9099,5.9099,5.9099,5.9099,5.9099,5.9099,5.9099,5.9099,5.9099,5.9099,5.9099,5.9099,0.0,0.0,0.0,0.0,0.0,0.0,0.0,0.0,0.0,0.0,0.0,0.0,0.0,0.0,0.0,0.0,0.0,0.0,0.0,0.0,0.0,0.0,0.0,0.0,0.0,0.0,0.0,0.0,0.0,0.0,0.0,0.0,0.0,6.6436,6.7254,6.8186,6.8161,6.9443,7.0312,7.0428,7.1366,7.1992,7.2083,7.4373,7.5777,7.5777,7.7164,7.8,7.8,7.8034,7.8034,7.8034,7.8068,7.8068,7.8102,7.8788,7.9135,7.916,7.987,8.0209,8.0209,8.0209,8.0209,8.0209,8.0209,8.0209,8.0073,7.8619,7.8068,7.8145,7.8889,7.9135,7.9261,0.0,0.0,0.0,4.0224,4.0453,4.0883,4.1715,4.25,4.3075,4.3265,4.3908,4.44,4.4582,4.5323,4.5962,4.624,4.7237,4.8692,5.0771,5.2044,5.4212,5.7676,5.8471,5.883,5.883,5.9009,5.9099,5.9099,5.9099,5.9099,5.9099,5.9099,5.9099,5.9099,5.9099,5.9099,5.9099,5.9099,5.9099,5.9099,5.9099,5.9099,5.9099,0.0,0.0,0.0,0.0,0.0,0.0,0.0,0.0,0.0,0.0,0.0,0.0,0.0,0.0,0.0,0.0,0.0,0.0,0.0,0.0,0.0,0.0,0.0,0.0,0.0,0.0,0.0,0.0,0.0,0.0,0.0,7.1613,7.1198,6.9628,7.0271,7.056,6.9805,7.0053,7.101,7.2874,7.3334,7.4273,7.6185,7.695,7.7391,7.7391,7.7797,7.8,7.8,7.8517,7.8822,7.8822,7.9329,7.96,7.96,7.9803,7.9904,7.9904,8.0107,8.0209,8.0209,8.0209,8.0209,8.0209,8.0209,8.0209,8.0175,7.9735,7.96,7.96,7.9837,7.9904,7.9938,0.0,0.0,0.0,4.045,4.0902,4.1483,4.2248,4.2799,4.3218,4.3383,4.4054,4.4625,4.4829,4.5786,4.6572,4.6894,4.8405,5.0034,5.1667,5.4033,5.6293,5.842,5.889,5.9099,5.9099,5.9099,5.9099,5.9099,5.9099,5.9099,5.9099,5.9099,5.9099,5.9099,5.9099,5.9099,5.9099,5.9099,5.9099,5.9099,5.9099,5.9099,5.9099,5.9099,5.9099,5.9099,5.9099,5.9099,5.9099,5.9099,0.0,0.0,0.0,0.0,0.0,0.0,0.0,0.0,0.0,0.0,0.0,0.0,0.0,0.0,0.0,0.0,0.0,0.0,0.0,0.0,0.0,0.0,0.0,0.0,7.349,7.359,7.3791,7.3258,7.2597,7.196,7.2849,7.4106,7.5581,7.5756,7.6348,7.7884,7.828,7.845,7.845,7.8754,7.8923,7.8923,7.9329,7.9566,7.9566,8.0006,8.0209,8.0209,8.0209,8.0344,8.0648,8.0648,8.0818,8.1122,8.1122,8.1122,8.1122,8.1122,8.1122,0.0,0.0,0.0,0.0,0.0,8.1199,8.13,0.0,0.0,0.0,4.0676,4.1532,4.232,4.2641,4.3129,4.3487,4.3538,4.4102,4.4715,4.5247,4.6039,4.6868,4.7681,4.9667,5.1756,5.3867,5.7214,5.9099,5.9099,5.9099,5.9099,5.9099,5.9099,5.9099,5.9099,5.9099,5.9099,5.9099,5.9099,5.9099,5.9099,5.9099,5.9099,5.9099,5.9099,5.9099,5.9099,5.9099,5.9099,5.9099,5.9099,5.9099,5.9099,5.9099,5.9099,5.9129,5.9189,0.0,0.0,0.0,0.0,0.0,0.0,0.0,0.0,0.0,0.0,0.0,0.0,0.0,0.0,0.0,0.0,0.0,0.0,0.0,0.0,0.0,0.0,0.0,0.0,7.5946,7.642,7.7831,7.609,7.4647,7.4547,7.6582,7.8034,7.8136,7.8111,7.8145,7.8237,7.8855,7.9203,7.9203,7.9837,0.0,0.0,0.0,8.031,8.031,8.0412,8.0445,8.0445,8.0445,8.0784,8.1393,8.1393,8.1791,8.2459,8.2459,8.2459,8.2485,8.2485,8.2485,8.235,8.1004,8.0868,8.1571,8.2248,8.2632,8.2862,0.0,0.0,0.0,4.1708,4.2034,4.2446,4.315,4.3549,4.3945,4.438,4.5168,4.5876,4.6472,4.7098,4.7633,4.8055,4.9838,5.2319,5.5639,5.789,5.9099,5.9099,5.9099,5.9099,5.9099,5.9099,5.9099,5.9099,5.9099,5.9099,5.9099,5.9099,5.9099,5.9099,5.9099,5.9099,5.9099,5.9099,5.9099,5.9099,5.9099,5.9099,5.9099,5.9099,5.9099,5.9099,5.9099,5.9099,5.9189,5.9727,5.9907,5.9997,6.0535,6.0989,0.0,0.0,0.0,0.0,0.0,0.0,0.0,0.0,0.0,0.0,0.0,0.0,0.0,0.0,0.0,0.0,0.0,0.0,0.0,7.7527,7.7561,7.7638,7.7967,7.8074,7.7916,7.7334,7.7709,7.8213,7.8822,7.8889,7.9126,7.9735,7.9904,8.0006,8.0006,8.0107,8.0209,8.0209,8.0784,8.1114,8.1114,8.1697,8.1968,8.1968,8.1968,0.0,8.2205,8.2205,8.2401,8.2709,8.2709,8.2837,8.304,8.304,8.304,8.298,8.2505,8.2395,8.2556,8.293,8.3065,8.3116,0.0,0.0,0.0,4.2085,4.2549,4.2966,4.3575,4.3901,4.43,4.4868,4.5574,4.6458,4.7606,4.8244,4.9094,5.0363,5.2405,5.4823,5.758,5.8622,5.9099,5.9099,5.9099,5.9099,5.9099,5.9099,5.9099,5.9099,5.9099,5.9099,5.9099,5.9099,5.9099,5.9099,5.9099,5.9099,5.9099,5.9099,5.9279,5.9608,5.9608,5.9787,6.0027,5.9368,5.9308,5.9608,5.9608,5.9817,6.0146,6.0505,6.0595,6.0655,6.1014,6.1188,6.1722,0.0,0.0,0.0,0.0,0.0,0.0,0.0,0.0,0.0,0.0,0.0,0.0,0.0,0.0,7.6826,7.6826,0.0,7.8111,7.8483,7.8551,7.8686,7.9025,7.9431,7.9397,7.8653,7.8889,7.9228,7.9634,7.9667,7.9803,8.0175,8.0209,8.0344,8.0716,8.075,8.0919,8.1291,8.1663,8.1832,8.1832,8.2238,8.2408,8.2408,8.2408,8.2662,8.3157,8.3157,8.3516,8.4148,8.4549,8.4771,8.4934,8.5309,8.5446,8.5446,8.5472,8.4711,8.3654,8.4165,8.4694,8.5095,0.0,0.0,0.0,4.2363,4.2937,4.3517,4.3844,4.4224,4.4703,4.5356,4.6124,4.7154,4.8697,4.9491,5.082,5.3018,5.518,5.7187,5.8958,5.9099,5.9099,5.9099,5.9099,5.9099,5.9099,5.9099,5.9099,5.9099,5.9099,5.9099,5.9099,5.9099,5.9099,5.9099,5.9099,5.9189,5.9308,5.9308,5.9668,6.0266,6.0266,6.0625,6.0956,5.9907,5.9817,6.0266,6.0266,6.0655,6.1106,6.1253,6.1285,6.1313,6.1463,6.1583,6.2218,6.4994,6.5914,0.0,0.0,0.0,0.0,0.0,0.0,0.0,0.0,7.3719,7.5692,7.5402,7.6852,7.8213,7.8213,7.8314,7.8619,7.9228,7.9304,7.9532,8.0107,8.0209,8.004,7.96,7.9938,8.0209,8.0209,8.031,8.0412,8.0412,8.0547,8.0885,8.146,8.1494,8.1799,8.2408,8.2595,8.2688,8.2688,8.291,8.3071,8.3207,8.3207,8.3744,8.4632,8.4632,8.5162,8.6036,8.673,8.697,8.7038,8.762,8.786,8.7886,8.8182,8.7032,8.5309,8.59,8.6611,8.7332,0.0,0.0,0.0,0.0,0.0,4.3517,4.3844,4.4587,4.541,4.6234,4.774,4.9029,4.9682,5.0796,5.2426,5.4882,5.591,5.7187,5.8958,5.9099,5.9099,5.9099,5.9099,5.9099,5.9099,5.9099,5.9099,5.9099,5.9099,5.9099,5.9099,5.9099,5.9099,5.9099,5.9099,5.9428,5.9967,5.9967,6.0386,6.1014,6.1014,6.1016,6.1076,6.0926,6.0896,6.1014,6.1014,6.1044,6.1194,6.1792,6.2002,6.2091,6.2689,6.3228,6.4055,6.6013,6.7003,6.8075,7.0934,7.2143,7.2397,7.1615,7.2293,7.3026,0.0,7.4432,7.6155,7.617,7.7656,7.8991,7.8991,7.9498,7.9972,8.0073,8.0073,8.0107,8.0175,8.0209,8.0412,8.1012,8.0547,8.0209,8.0209,8.0784,8.1181,8.1181,8.1765,8.2205,8.2272,8.2272,8.2306,8.2408,8.3285,8.3754,8.3754,8.4693,8.5479,8.6127,8.6127,8.6529,8.7272,8.7272,8.7491,8.7916,8.8252,8.839,8.839,8.8493,8.8528,8.8493,8.8554,8.8381,8.8149,8.8218,8.8321,8.8416,0.0,0.0,0.0,0.0,0.0,4.3791,4.4094,4.486,4.5904,4.7316,4.8432,4.9831,5.1726,5.3679,5.5257,5.6297,5.7355,5.8283,5.9072,5.9099,5.9099,5.9099,5.9099,5.9099,5.9099,5.9099,5.9099,5.9099,5.9099,5.9099,5.9099,5.9099,5.9099,5.9129,5.9518,5.9817,6.0144,6.0505,6.1074,6.1672,6.1672,6.1912,6.2241,6.2241,6.2241,6.224,6.199,6.2435,0.0,6.2947,6.3428,6.4029,6.3706,6.4213,6.5252,6.7277,6.8485,6.9682,7.1793,7.2568,7.2513,7.1453,7.2042,7.2874,7.2734,7.4825,7.6854,7.6907,7.8453,7.9735,7.9735,8.0006,8.0209,8.0209,8.0209,8.0344,8.0784,8.0818,8.1088,8.1832,8.1663,8.1494,8.1494,8.1765,8.1934,8.1934,8.2359,8.281,8.3251,8.344,8.3951,8.4836,8.5247,8.5674,8.6117,8.6555,8.6949,8.7223,8.7223,8.7499,8.7999,8.7999,8.8396,8.907,8.9174,8.9467,8.9881,8.9881,8.9881,8.9881,8.9881,8.9881,8.9778,8.8915,8.8881,8.9226,0.0,0.0,0.0,0.0,0.0,4.401,4.4258,4.5183,4.642,4.7975,4.9146,5.0845,5.3594,5.582,5.7094,5.7094,5.8321,5.9099,5.9099,5.9099,5.9099,5.9099,5.9099,5.9099,5.9099,5.9099,5.9099,5.9099,5.9099,5.9099,5.9099,5.9099,5.9189,5.9398,5.9877,6.0324,6.0685,6.1164,6.1762,6.2361,6.2361,6.2689,6.3108,6.3108,6.3255,6.3432,6.315,6.3687,6.4472,6.4258,6.483,6.5495,6.4778,6.5522,6.7098,6.9042,7.0968,7.2554,7.3051,7.3196,7.2889,7.1528,7.2095,7.3059,7.3652,7.5754,7.7722,7.8096,7.9262,8.0209,8.0209,8.0209,8.0276,8.0479,8.0513,8.075,8.1494,8.1673,8.1969,8.2611,8.2842,8.3021,8.3147,8.2951,8.2816,8.2816,8.3474,8.4071,8.4624,8.507,8.5814,8.6881,8.6994,8.7286,8.7833,8.7912,8.8041,8.8247,8.8247,8.8489,8.8905,8.8905,8.9319,9.0019,9.0019,9.0433,9.1123,9.1123,9.1261,9.1433,9.1433,9.1433,9.1295,9.0226,8.9916,9.0054,0.0,0.0,0.0,0.0,0.0,4.401,4.4258,4.5521,4.6869,4.8056,5.0186,5.2511,5.49,5.6316,5.7094,5.7094,5.8321,5.9099,5.9099,5.9099,5.9099,5.9099,5.9099,5.9099,5.9099,5.9099,5.9099,5.9099,5.9099,5.9099,5.9099,5.9099,5.9458,6.0057,6.0114,6.0805,6.2032,6.2061,6.245,6.3078,6.3078,6.3078,6.3108,6.3108,6.367,6.4472,6.4441,6.4472,6.465,6.5606,6.5936,6.5966,6.5966,6.766,6.997,7.1469,7.4691,7.7279,7.5048,7.4456,7.4036,7.2388,7.2843,7.4236,7.6084,7.7446,7.8697,7.9887,8.015,8.0209,8.0209,8.0209,8.0412,8.1148,8.1283,8.1494,8.2272,8.2572,8.2921,8.3415,8.3985,8.4524,8.4954,8.4316,8.3848,8.3848,8.5469,8.6505,8.6539,8.7223,8.7598,8.7667,8.7991,8.8148,8.8182,8.8416,8.8924,8.9648,8.9648,9.0027,9.0717,9.0717,9.0717,9.0778,9.0778,9.1226,9.195,9.195,9.2364,9.302,9.302,9.302,9.302,9.2985,9.2019,9.0881,0.0,0.0,0.0,0.0,0.0,0.0,0.0,0.0,4.6895,4.8056,5.0916,0.0,0.0,0.0,0.0,0.0,5.8321,5.9099,5.9099,5.9099,5.9099,5.9099,5.9099,5.9099,5.9099,5.9099,5.9099,5.9099,5.9099,5.9099,5.9099,5.9099,5.9458,6.0116,6.0565,6.1253,6.2121,6.257,6.2898,6.3108,6.3108,6.3108,6.3166,6.3789,6.4234,6.4766,0.0,6.7137,6.6589,6.717,6.7977,6.8836,6.9455,7.0696,7.2426,7.4862,7.6504,7.7288,7.6195,7.5285,7.4373,7.3014,7.2984,7.3864,7.6074,7.693,7.7757,7.9793,8.0581,8.0919,8.0919,8.1325,8.1731,8.2002,8.2035,8.2324,8.3251,8.3456,8.4035,8.5399,8.5752,8.6103,8.6749,8.6135,8.5692,8.5692,8.6909,8.7674,8.7674,8.8071,8.8527,8.9008,8.9147,8.944,8.9923,9.0001,9.0192,9.0433,9.0985,9.1606,9.233,9.233,9.233,9.233,9.233,9.2468,9.2744,9.2744,9.2882,9.3089,9.3089,9.3089,9.3089,9.3089,9.3189,9.3249,0.0,0.0,0.0,0.0,0.0,0.0,0.0,0.0,0.0,0.0,0.0,0.0,0.0,0.0,0.0,0.0,0.0,5.9099,5.9099,5.9099,5.9099,5.9099,5.9099,5.9099,5.9099,5.9099,5.9099,5.9099,5.9099,5.9099,5.9099,5.9099,5.9578,6.0475,6.0924,6.1613,6.248,6.2928,6.3108,6.3108,6.3108,6.3165,6.334,6.4174,6.4797,0.0,6.8233,6.8686,6.8181,6.9233,6.9776,7.0211,7.1223,7.2669,7.4441,7.6973,7.7742,7.7435,7.6294,7.5388,7.4505,7.3293,7.3324,7.4055,7.5621,7.6649,7.7741,7.957,8.0663,8.1384,8.1629,8.2069,8.2577,8.3152,8.3219,8.3637,8.4943,8.521,8.5682,8.6855,8.7167,8.7451,8.7852,8.7793,8.7554,8.7201,8.8122,8.8751,8.8751,8.9148,8.9605,9.0088,9.0088,9.0467,9.1226,9.1226,9.1364,9.164,9.2157,9.264,9.3089,9.3089,9.3089,9.3089,9.3089,9.3261,9.3537,9.3537,9.3675,9.3916,9.3916,9.3916,9.3916,9.3916,9.4537,9.529,0.0,0.0,0.0,0.0,0.0,0.0,0.0,0.0,0.0,0.0,0.0,0.0,0.0,0.0,0.0,0.0,0.0,0.0,5.9099,5.9099,5.9099,5.9099,5.9099,5.9099,5.9099,5.9099,5.9099,5.9099,5.9099,5.9099,5.9099,5.9099,5.9817,6.1076,6.1076,6.1852,6.3108,6.3108,6.3108,6.3137,6.3137,6.328,6.3599,6.4319,6.5361,6.6633,6.8592,6.9109,6.9238,7.1533,7.1326,7.032,7.142,7.3564,7.5997,7.7777,7.8244,7.773,7.5414,7.4741,7.4445,7.3293,7.3904,7.48,7.4859,7.6734,7.867,7.9447,8.0558,8.1629,8.234,8.2509,8.3043,8.4498,8.4701,8.5315,8.7035,8.7541,8.7727,8.7788,8.8329,8.8597,8.8337,8.9199,8.9363,8.8406,8.9234,8.9778,8.9778,9.0467,9.0881,9.0881,9.0916,9.1295,9.2054,9.2054,9.2433,9.3158,9.3158,9.3192,9.3227,9.3227,9.3227,9.3227,9.3227,9.3675,9.4427,9.4427,9.4848,9.5503,9.5503,9.5558,9.5614,9.5614,9.627,9.709,0.0,0.0,0.0,0.0,0.0,0.0,0.0,0.0,0.0,0.0,0.0,0.0,0.0,0.0,0.0,0.0,0.0,0.0,5.9099,5.9099,5.9099,5.9099,5.9099,5.9099,5.9099,5.9099,5.9099,5.9099,5.9099,5.9099,5.9099,5.9099,5.9817,6.1076,6.1076,6.1852,6.3108,6.3108,6.3223,6.3395,6.3395,6.3595,6.4029,6.5381,6.6131,6.6723,6.9321,6.9657,6.9238,7.1533,7.275,7.3363,7.367,7.4974,7.6451,7.692,7.6419,7.556,7.4978,7.4115,7.3385,7.3076,7.3904,7.5036,7.5938,7.7738,7.9541,8.0621,8.1955,8.2983,8.3186,8.3877,8.4517,8.4924,8.5619,8.6332,8.6996,8.7648,8.8362,8.9095,8.932,8.9614,9.0087,9.0346,9.0407,9.0156,9.0346,9.0536,9.0536,9.1261,9.1675,9.1675,9.2226,9.2606,9.2813,9.2813,9.3192,9.3985,9.3985,9.4261,9.4813,9.4813,9.4813,9.4813,9.4813,9.5227,9.5917,9.5917,9.64,9.7118,9.7118,9.7605,9.8321,9.8321,9.9471,10.0991,0.0,0.0,0.0,0.0,0.0,0.0,0.0,0.0,0.0,0.0,0.0,0.0,0.0,0.0,0.0,0.0,0.0,0.0,0.0,5.9099,5.9099,5.9099,5.9099,5.9099,5.9099,5.9099,5.9099,5.9099,5.9099,5.9099,5.9099,5.9099,5.9668,6.0685,6.0984,6.1672,6.2689,6.2988,6.3252,0.0,0.0,6.3764,6.434,6.5822,6.6486,6.6957,6.965,7.0209,6.9816,7.0862,7.2333,7.3776,7.4413,7.5182,7.5823,7.5823,7.533,7.4682,7.4176,7.3508,7.3138,7.3661,7.4295,7.5188,7.6721,7.832,7.9886,8.1196,8.2566,8.3746,8.4555,8.5188,8.5857,8.6644,8.7246,8.7807,8.8405,8.8877,8.9395,9.0096,9.0192,9.0467,9.1261,9.133,9.1468,9.1778,9.1502,9.133,9.133,9.2054,9.2468,9.2468,9.2882,9.3261,9.3606,9.3951,9.433,9.4806,9.4806,9.4986,9.54,9.5744,9.5882,9.5882,9.6262,9.6669,9.7021,9.7021,9.7564,9.8381,9.8381,9.9076,10.0022,10.0022,10.1006,10.2483,0.0,0.0,0.0,0.0,0.0,0.0,0.0,0.0,0.0,0.0,5.0851,5.2081,5.3071,5.547,0.0,0.0,0.0,0.0,0.0,0.0,5.9099,5.9099,5.9099,5.9099,5.9099,5.9099,5.9099,5.9099,5.9099,5.9099,5.9099,5.9099,5.9458,6.0144,6.0715,6.1403,6.2121,6.272,6.319,6.3567,6.3567,6.3934,6.459,0.0,6.666,6.7216,6.954,7.041,7.0457,7.0137,7.108,7.2616,7.3997,7.447,7.4564,7.4564,7.4564,7.4325,7.3293,7.3138,7.3477,7.4535,7.51,7.5879,7.7552,7.9029,8.0406,8.1696,8.2953,8.4333,8.5887,8.636,8.6977,8.854,8.8901,8.9316,9.0174,9.0407,9.0521,9.076,9.0916,9.1226,9.1916,9.2088,9.2399,9.3054,9.2606,9.2261,9.2157,9.2847,9.3296,9.3399,9.3399,9.3744,9.4461,9.5055,9.54,9.54,9.5503,9.5537,9.5572,9.6331,9.6641,9.671,9.7428,9.7773,9.7842,9.8012,9.8672,9.9587,9.9745,10.0494,10.1425,10.1425,10.208,10.3012,0.0,0.0,0.0,0.0,0.0,0.0,0.0,0.0,0.0,0.0,5.0378,5.1756,0.0,0.0,0.0,0.0,0.0,0.0,0.0,0.0,0.0,5.9099,5.9099,5.9099,5.9099,5.9099,5.9099,5.9099,5.9099,5.9099,5.9099,5.9099,5.9458,6.0114,6.0206,6.0954,6.2121,6.2211,6.2912,6.3908,6.3908,6.4275,6.4958,6.6311,6.6862,0.0,6.8658,6.9551,7.0078,7.058,7.0948,7.1345,7.221,7.286,7.3324,7.3324,7.3324,7.3262,7.3076,7.3722,7.4535,7.4741,7.6754,7.8755,7.9106,8.1056,8.2862,8.3132,8.4551,8.5819,8.6144,8.712,8.7949,8.8275,8.9008,8.9613,8.9803,9.0354,9.076,9.0786,9.1399,9.1847,9.1985,9.2537,9.2951,9.3089,9.3572,9.3606,9.2951,9.3641,9.4365,9.4986,9.4986,9.5055,9.5193,9.5331,9.54,9.54,9.602,9.6296,9.6331,9.7152,9.7497,9.7497,9.7635,9.8049,9.8658,9.956,10.0391,10.1186,10.2095,10.3097,10.3981,10.3981,10.4694,10.5702,0.0,0.0,0.0,0.0,0.0,0.0,0.0,4.7469,4.8201,4.8201,4.9701,5.0768,5.0768,5.3459,5.5512,0.0,0.0,0.0,0.0,0.0,0.0,5.9099,5.9099,5.9099,5.9099,5.9099,5.9099,5.9099,0.0,5.9099,5.9099,5.9099,5.9279,5.9578,5.9937,6.0473,6.1104,6.1792,6.264,6.3507,6.3841,6.4359,6.5011,6.5996,6.6798,0.0,6.9212,7.025,7.0937,7.1565,7.2063,7.241,7.2521,7.2737,7.3014,7.3014,7.3014,7.3169,7.3783,7.4355,7.5188,7.6843,7.8381,7.9859,8.125,8.2581,8.378,8.4717,8.5596,8.6556,8.7598,8.8342,8.8956,8.9465,8.9975,9.026,9.026,9.095,9.1433,9.1433,9.2088,9.2744,9.3185,9.3503,9.3882,9.4261,9.4641,9.4537,9.3744,9.4434,9.502,9.5365,9.54,9.54,9.54,9.5779,9.5951,9.5986,9.6745,9.7124,9.7124,9.7946,9.8291,9.8319,9.925,9.9876,10.0307,10.1426,10.2309,10.322,10.3711,10.4614,10.5619,10.5619,10.5903,10.6376,0.0,0.0,0.0,0.0,0.0,0.0,0.0,4.7519,4.8201,4.8201,4.8959,4.9532,4.9532,5.2315,5.4456,0.0,0.0,0.0,0.0,0.0,0.0,0.0,5.9099,5.9099,5.9099,0.0,0.0,5.9099,5.9099,0.0,0.0,0.0,0.0,0.0,5.9638,6.0022,6.0256,6.1485,6.2393,0.0,0.0,6.4415,6.498,0.0,0.0,0.0,0.0,7.097,7.1987,7.2467,7.3396,7.4339,7.3899,7.3416,7.3014,7.3014,7.3169,7.36,7.4535,7.5183,7.6181,7.8837,7.982,8.0716,8.3002,8.3761,8.4381,8.5887,8.6503,8.7295,8.8996,8.9471,8.9886,9.0656,9.095,9.1054,9.1054,9.1744,9.2226,9.2226,9.2882,9.3606,9.4254,9.4461,9.4806,9.5365,9.54,9.5124,9.4599,9.5089,9.54,9.54,9.5537,9.5641,9.5641,9.6365,9.6745,9.6745,9.7538,9.8087,9.8305,9.9039,9.9492,9.98,10.1192,10.1778,10.1884,10.2994,10.3904,10.4693,10.5008,10.5604,10.6376,10.6376,10.6376,10.6376,0.0,0.0,0.0,0.0,0.0,0.0,0.0,4.778,4.8201,4.8201,4.8289,4.8347,4.8347,5.143,5.3762,0.0,0.0,0.0,0.0,0.0,0.0,0.0,0.0,0.0,0.0,0.0,0.0,5.9099,5.9099,0.0,0.0,0.0,0.0,0.0,0.0,5.9654,6.05,6.1223,0.0,0.0,0.0,0.0,0.0,0.0,0.0,0.0,0.0,7.0567,7.2616,7.2679,7.4317,7.6326,7.6277,7.4773,7.3014,7.3014,7.3783,7.4684,7.4771,7.6391,7.8308,7.9245,8.0842,8.2379,8.3295,8.4573,8.5695,8.6125,8.7515,8.8772,8.9228,9.0077,9.0717,9.0778,9.1399,9.1882,9.1882,9.2537,9.2985,9.2985,9.3675,9.422,9.4289,9.491,9.5331,9.5365,9.54,9.5365,9.5296,9.5365,9.54,9.54,9.6055,9.64,9.64,9.7187,9.7601,9.7601,9.836,9.9201,10.0208,10.0882,10.1823,10.2685,10.2919,10.298,10.2984,10.4108,10.4578,10.4798,10.5816,10.6312,10.6376,10.6376,10.6376,10.6376,0.0,0.0,0.0,0.0,0.0,0.0,4.7281,4.7806,4.8201,4.8201,4.8201,4.8201,4.8201,5.0069,5.1872,5.326,0.0,0.0,0.0,0.0,0.0,0.0,0.0,0.0,0.0,0.0,5.9099,5.9099,5.9099,0.0,0.0,0.0,0.0,0.0,0.0,5.9411,5.9925,6.0615,0.0,0.0,0.0,0.0,0.0,0.0,0.0,0.0,0.0,0.0,7.3927,7.4588,7.6082,7.7566,7.6846,7.5938,7.5186,7.5186,7.5504,7.6053,7.6757,7.7999,7.9428,8.0888,8.2162,8.3306,8.4268,8.5279,8.6321,8.7215,8.8323,8.9373,9.005,9.0526,9.095,9.1433,9.1778,9.2157,9.2606,9.333,9.3813,9.3813,9.4503,9.4951,9.4951,9.5227,9.54,9.54,9.54,9.5572,9.602,9.6055,9.6055,9.6055,9.6814,9.7193,9.7193,9.798,9.836,9.8394,9.9786,10.061,10.1106,10.2006,10.269,10.3084,10.382,10.412,10.4119,10.5293,10.5692,10.5809,10.6212,10.6376,10.6376,10.6376,10.6376,10.6376,0.0,0.0,0.0,0.0,0.0,4.7359,4.7542,4.7937,4.8201,4.8201,4.8201,4.8201,4.8201,4.8928,5.0063,5.1739,5.3547,0.0,0.0,0.0,0.0,0.0,0.0,0.0,0.0,0.0,5.9099,5.9099,5.9099,5.9099,0.0,0.0,5.9099,5.9099,0.0,0.0,0.0,0.0,0.0,0.0,0.0,0.0,0.0,0.0,0.0,0.0,0.0,0.0,0.0,0.0,0.0,7.8783,7.7921,7.7676,7.7539,7.6818,7.6846,7.7319,7.8197,7.9209,8.0394,8.1997,8.2949,8.3772,8.4841,8.5838,8.6848,8.7975,8.8972,8.9876,9.0656,9.0812,9.1054,9.1847,9.2157,9.2571,9.333,9.4123,9.4634,9.4634,9.5055,9.54,9.54,9.54,9.5468,9.571,9.571,9.6055,9.6814,9.7055,9.7055,9.6848,9.7635,9.8049,9.8049,9.908,9.9596,9.9624,10.1192,10.2095,10.2495,10.3184,10.3807,10.4108,10.488,10.5212,10.5316,10.6084,10.6376,10.6376,10.6376,10.6376,10.6376,10.6376,10.6376,10.6376,0.0,0.0,0.0,0.0,0.0,0.0,4.8094,4.8201,4.8201,4.8201,4.8201,4.8201,4.8201,4.8201,4.8669,4.9844,5.1627,0.0,0.0,0.0,0.0,0.0,0.0,0.0,0.0,0.0,5.9099,5.9099,5.9099,5.9099,5.9099,5.9099,5.9099,5.9099,0.0,0.0,0.0,0.0,0.0,0.0,0.0,0.0,6.5042,0.0,0.0,0.0,0.0,0.0,0.0,0.0,0.0,0.0,0.0,8.0183,7.9683,7.7291,7.7456,7.8384,7.8411,7.9797,8.146,8.2205,8.2949,8.3772,8.4841,8.6219,8.7469,8.8078,8.9384,9.0468,9.076,9.0812,9.1054,9.1847,9.2606,9.3365,9.4158,9.4917,9.5365,9.5365,9.54,9.54,9.54,9.54,9.571,9.6434,9.6469,9.6848,9.7635,9.8394,9.8435,9.7704,9.8429,9.8808,9.8808,10.0612,10.15,10.15,10.2598,10.3578,10.4683,10.4683,10.5302,10.6391,10.6413,10.6413,10.6413,10.6413,10.6376,10.6376,10.6376,10.6376,10.6376,10.6376,10.6376,10.6376,0.0,0.0,0.0,0.0,0.0,0.0,0.0,4.8201,4.8201,4.8201,4.8201,4.8201,4.8201,4.8201,4.8347,4.8697,5.0414,0.0,0.0,0.0,0.0,0.0,0.0,0.0,0.0,5.9099,5.9099,5.9099,5.9099,5.9099,5.9099,5.9099,5.9099,5.9099,5.9288,5.9613,0.0,0.0,0.0,0.0,6.4334,6.4888,6.5042,0.0,0.0,0.0,0.0,0.0,0.0,0.0,0.0,0.0,0.0,0.0,0.0,7.9262,7.9314,7.9732,8.0237,8.1203,8.2238,8.2983,8.3885,8.4705,8.5265,8.6668,8.8025,8.8424,8.9647,9.0707,9.0786,9.1261,9.1882,9.264,9.3399,9.4192,9.4979,9.5227,9.54,9.54,9.54,9.5606,9.6089,9.6158,9.6469,9.729,9.7325,9.7641,9.8429,9.8642,9.8676,9.8463,9.9159,9.9905,10.0578,10.1205,10.1902,10.2588,10.3698,10.4404,10.4693,10.5516,10.612,10.6376,10.6376,10.6376,10.6376,10.6376,10.6376,10.6376,10.6376,10.6376,10.6376,10.6376,10.6376,10.6376,0.0,0.0,0.0,0.0,0.0,0.0,0.0,4.8201,4.8201,4.8201,4.8201,4.8201,4.8201,4.8201,4.8201,4.8201,4.9218,0.0,0.0,0.0,0.0,0.0,0.0,0.0,5.9099,5.9099,5.9099,5.9099,5.9099,5.9099,5.9099,5.9099,5.9099,5.9099,5.9369,5.9693,0.0,0.0,0.0,0.0,6.4334,6.4888,6.5042,0.0,0.0,0.0,0.0,0.0,0.0,0.0,0.0,0.0,0.0,0.0,0.0,0.0,8.0209,8.0344,8.1114,8.191,8.2732,8.3478,8.4467,8.5299,8.5583,8.6954,8.826,8.8554,8.9778,9.0812,9.0812,9.1468,9.2226,9.2985,9.3778,9.4565,9.5296,9.54,9.54,9.54,9.5641,9.5986,9.6469,9.6779,9.729,9.8084,9.8118,9.8463,9.9188,9.9615,9.9834,9.9834,10.032,10.0795,10.15,10.2278,10.2984,10.3711,10.4798,10.5288,10.5383,10.6084,10.6376,10.6376,10.6376,10.6376,0.0,10.6376,10.6376,10.6376,10.6376,10.6376,10.6376,10.6376,10.6376,10.6376,0.0,0.0,0.0,0.0,0.0,0.0,0.0,4.8201,4.8201,4.8201,4.8201,4.8201,4.8201,4.8201,4.8201,4.8201,4.8254,0.0,0.0,0.0,0.0,0.0,0.0,0.0,5.9099,5.9099,5.9099,5.9099,5.9099,5.9099,5.9099,5.9099,5.9099,5.9099,5.9395,5.9747,6.0156,0.0,0.0,0.0,6.4334,6.4888,0.0,0.0,0.0,0.0,0.0,0.0,0.0,0.0,0.0,0.0,0.0,0.0,0.0,0.0,0.0,0.0,0.0,8.2072,8.3015,8.3806,8.4761,8.5618,8.5908,8.7143,0.0,8.8622,8.9812,9.0812,9.0812,9.1502,9.2295,9.2985,9.3813,9.4634,9.5296,9.54,9.54,9.5468,9.6089,9.6538,9.6641,9.7359,9.8084,9.8814,9.8877,9.9216,9.9993,10.0996,10.1492,10.1573,10.1715,10.1707,10.1707,10.3687,10.4693,10.4821,10.5896,10.6376,10.6376,10.6376,10.6376,10.6376,10.6376,10.6376,10.6376,10.6376,10.6376,10.6376,10.6376,10.6376,10.6376,10.6376,10.6376,10.6376,0.0,0.0,0.0,0.0,0.0,0.0,0.0,0.0,0.0,0.0,4.8201,4.8201,4.8201,4.8201,4.8201,0.0,0.0,0.0,0.0,0.0,0.0,0.0,0.0,0.0,5.9072,5.9099,5.9099,5.9099,5.9099,5.9099,5.9099,5.9099,5.9099,5.9126,5.9667,6.0144,6.0704,6.2161,0.0,0.0,6.4334,6.4888,0.0,0.0,0.0,0.0,7.1026,7.3628,0.0,0.0,0.0,0.0,0.0,0.0,0.0,0.0,8.0209,8.0479,8.1799,0.0,8.3117,8.4478,8.5318,8.5951,0.0,8.765,8.8666,8.9303,9.0157,9.0812,9.0812,9.1916,9.2882,9.3054,9.4261,9.5193,9.5365,9.54,9.5606,9.6158,9.64,9.6952,9.8124,9.8429,9.8849,9.9573,9.9642,10.0107,10.1099,10.14,10.1902,10.269,10.3516,10.3892,10.3892,10.4402,10.5072,10.5982,10.6291,10.6376,10.6376,10.6376,10.6376,10.6376,10.6376,10.6376,10.6376,10.6376,10.6376,10.6376,10.6376,10.6376,10.6376,10.6376,10.6376,10.6376,0.0,0.0,0.0,0.0,0.0,0.0,0.0,0.0,0.0,0.0,4.8201,4.8201,4.8201,4.8201,4.8332,0.0,0.0,0.0,0.0,0.0,0.0,0.0,0.0,5.7524,5.8221,5.8798,5.9099,5.9099,5.9099,5.9099,5.9099,5.9099,5.9099,5.9126,5.972,6.0486,6.1317,6.2337,6.2983,6.3352,6.4457,0.0,0.0,0.0,0.0,0.0,7.1526,7.4025,0.0,7.7621,7.8957,8.0209,0.0,0.0,0.0,0.0,8.0309,8.069,8.2182,8.2786,8.3364,8.4898,8.5686,8.63,8.6997,8.7916,8.8812,8.9536,9.0295,9.0916,9.1295,9.2295,9.3227,9.3572,9.4606,9.5662,9.6511,9.6661,9.7093,9.8358,9.8823,9.9358,10.02,10.062,10.0909,10.1295,10.14,10.16,10.2209,10.269,10.3184,10.3808,10.4903,10.5198,10.4706,10.5198,10.5772,10.6376,10.6376,10.6376,10.6376,10.6376,10.6376,10.6376,10.6376,10.6376,10.6376,10.6376,10.6376,10.6376,10.6376,10.6376,10.6376,10.6376,10.6376,10.6376,0.0,0.0,0.0,0.0,0.0,0.0,0.0,0.0,0.0,0.0,0.0,0.0,0.0,0.0,0.0,0.0,0.0,0.0,0.0,0.0,0.0,0.0,5.5704,5.7104,5.7468,5.8552,5.9099,5.9099,5.9099,5.9099,5.9099,5.9099,5.9153,5.9261,5.98,6.0695,6.184,6.2517,6.3168,6.3875,6.4611,0.0,0.0,0.0,0.0,0.0,0.0,0.0,0.0,7.7671,7.8957,8.0209,8.0209,0.0,0.0,0.0,0.0,0.0,8.2403,8.3015,8.3643,8.5181,8.5916,8.6536,8.7398,8.8122,8.8846,8.9709,9.0364,9.1054,9.1847,9.2606,9.3365,9.4185,9.4917,9.5977,9.7674,9.8006,9.8771,10.0691,10.1502,10.1978,10.2217,10.2702,10.3095,10.3095,10.3095,10.3205,10.3283,10.4203,10.4812,10.5008,10.5896,10.5903,10.5008,10.5881,10.6376,10.6376,10.6376,10.6376,10.6376,10.6376,10.6376,10.6376,10.6376,10.6376,10.6376,10.6376,10.6376,10.6376,10.6376,10.6376,10.6376,10.6376,10.6376,10.6376,0.0,0.0,0.0,0.0,0.0,0.0,0.0,0.0,0.0,0.0,0.0,0.0,0.0,0.0,0.0,0.0,0.0,0.0,0.0,0.0,0.0,5.3483,5.4885,5.668,5.8743,5.8991,5.9099,5.9099,5.9099,5.9099,5.9099,5.9099,5.9372,5.988,6.0197,6.0875,6.184,6.2517,6.3168,6.3875,6.4611,0.0,0.0,0.0,0.0,0.0,0.0,0.0,0.0,7.7927,7.8957,8.0209,8.0209,0.0,0.0,0.0,0.0,0.0,8.2403,8.3166,8.3918,8.5462,8.6068,8.6674,8.8088,8.8501,8.8984,9.0364,9.0743,9.1054,9.1847,9.2606,9.3365,9.4185,9.4917,9.5777,9.6921,9.7664,9.8771,10.0581,10.1514,10.2192,10.2906,10.2988,10.3095,10.3095,10.3095,10.3491,10.4391,10.4578,10.5094,10.6105,10.6312,10.6312,10.609,10.6312,10.6376,10.6376,10.6376,10.6376,10.6376,10.6376,10.6376,10.6376,10.6376,10.6376,10.6376,10.6376,10.6376,10.6376,10.6376,10.6376,10.6376,10.6376,10.6376,10.6376,0.0,0.0,0.0,0.0,0.0,0.0,0.0,0.0,0.0,0.0,0.0,0.0,0.0,0.0,0.0,0.0,0.0,0.0,0.0,0.0,5.3086,5.4471,5.5091,5.6222,5.8026,5.8743,5.9099,5.9099,5.9099,5.9099,5.9099,5.9261,5.9636,6.0224,6.0722,6.1453,6.2368,6.3045,6.3752,6.4457,0.0,0.0,0.0,0.0,0.0,0.0,0.0,0.0,0.0,0.0,7.8957,8.0209,8.0209,0.0,0.0,0.0,0.0,0.0,8.2708,8.3725,8.4742,8.5843,8.6504,8.7191,8.8329,8.8915,8.9502,9.0571,9.0812,9.1192,9.2364,9.2882,9.3503,9.4675,9.5635,9.6887,9.8794,9.9855,10.1294,10.3606,10.4214,10.4482,10.4917,10.4917,10.4917,10.4917,10.4917,10.5099,10.5619,10.5604,10.5911,10.6413,10.6376,10.6376,10.6376,10.6376,10.6376,10.6376,10.6376,10.6376,10.6376,10.6376,10.6376,10.6376,10.6376,10.6376,10.6376,10.6376,10.6376,10.6376,10.6376,10.6376,10.6376,10.6376,10.6376,10.6376,0.0,0.0,0.0,0.0,0.0,0.0,0.0,0.0,0.0,0.0,0.0,0.0,0.0,0.0,0.0,0.0,0.0,0.0,0.0,5.2161,5.3359,5.5324,5.5963,5.6679,5.7608,5.8607,5.9099,5.9099,5.9099,5.9126,5.9207,5.9556,6.0047,6.0648,6.1221,6.2058,6.3045,6.3568,6.4241,6.4949,0.0,0.0,0.0,0.0,0.0,0.0,0.0,0.0,0.0,0.0,0.0,0.0,0.0,0.0,0.0,8.0309,8.1195,8.2368,8.3086,8.4224,8.5432,8.6329,8.6984,8.7605,8.8433,8.9157,8.9916,9.0674,9.095,9.1502,9.2847,9.3399,9.402,9.5193,9.6377,9.798,10.0309,10.1815,10.3495,10.5793,10.6302,10.6376,10.6376,10.6376,10.6376,10.6376,10.6376,10.6376,10.6376,10.6376,10.6376,10.6376,10.6376,10.6376,10.6376,10.6376,10.6376,10.6376,10.6376,10.6376,10.6376,10.6376,10.6376,10.6376,10.6376,10.6376,10.6376,10.6376,10.6376,10.6376,10.6376,10.6376,10.6376,10.6376,10.6376,10.6376,0.0,0.0,0.0,0.0,0.0,0.0,0.0,0.0,0.0,0.0,0.0,0.0,0.0,0.0,0.0,0.0,0.0,0.0,0.0,5.3784,5.5208,5.5412,5.7611,5.8882,5.8964,5.9045,5.9099,5.9099,5.9099,5.9234,5.9476,6.0061,6.0687,6.1351,6.162,6.2522,6.3722,6.3783,6.4241,6.4949,6.5626,0.0,0.0,0.0,0.0,0.0,0.0,0.0,0.0,0.0,0.0,0.0,0.0,0.0,8.0585,8.0585,8.1468,8.2639,8.336,8.4348,8.5535,8.6984,8.7363,8.7605,8.8433,8.9157,8.9916,9.0674,9.1399,9.2157,9.2951,9.4261,9.5262,9.5365,9.6857,9.8428,9.9643,10.1887,10.3894,10.5096,10.5899,10.6376,10.6376,10.6376,10.6376,10.6376,10.6376,10.6376,10.6376,10.6376,10.6376,10.6376,10.6376,10.6376,10.6376,10.6376,10.6376,10.6376,10.6376,10.6376,10.6376,10.6376,10.6376,10.6376,10.6376,10.6376,10.6376,10.6376,10.6376,10.6376,10.6376,10.6376,10.6376,10.6376,10.6376,10.6376,0.0,0.0,0.0,0.0,0.0,0.0,0.0,0.0,0.0,0.0,0.0,0.0,0.0,0.0,0.0,0.0,0.0,0.0,0.0,5.3238,5.456,5.5382,5.7019,5.8303,5.9072,5.9099,5.9099,5.9099,5.9261,5.9583,6.0061,6.0726,6.1247,6.1682,6.2649,6.3322,6.3814,6.4275,6.4888,6.5621,6.7018,6.8222,0.0,0.0,0.0,0.0,0.0,0.0,0.0,0.0,7.96,8.0234,8.041,8.0535,8.0635,8.0808,8.1958,8.3247,8.3522,8.4717,8.6122,8.7156,8.7777,8.8364,8.9122,8.9847,9.0605,9.1399,9.1778,9.2364,9.3606,9.4675,9.54,9.54,9.7499,9.9395,10.0311,10.2814,10.4893,10.5783,10.6192,10.6376,10.6376,10.6376,10.6376,10.6376,10.6376,10.6376,10.6376,10.6376,10.6376,10.6376,10.6376,10.6376,10.6376,10.6376,10.6376,10.6376,10.6376,10.6376,10.6376,10.6376,10.6376,10.6376,10.6376,10.6376,10.6376,10.6376,10.6376,10.6376,10.6376,10.6376,10.6376,10.6376,10.6376,10.6376,0.0,0.0,0.0,0.0,0.0,0.0,0.0,0.0,0.0,0.0,0.0,0.0,0.0,0.0,0.0,0.0,0.0,0.0,5.1596,5.3177,5.4471,5.5382,5.6934,5.8221,5.9072,5.9099,5.9099,5.9099,5.9449,6.0024,6.0739,6.1278,6.1839,6.246,6.3383,6.406,6.4491,6.5011,6.5596,6.6386,6.8171,6.9418,0.0,0.0,0.0,0.0,0.0,0.0,0.0,0.0,7.9819,8.036,8.056,8.0734,8.0941,8.1352,8.2531,8.3783,8.4023,8.5352,8.6846,8.7605,8.8364,8.9122,8.9881,9.0433,9.1019,9.1813,9.2364,9.3123,9.4427,9.5082,9.5572,9.6163,9.8409,10.0481,10.1605,10.3888,10.5715,10.6302,10.6376,10.6376,10.6376,10.6376,10.6376,10.6376,10.6376,10.6376,10.6376,10.6376,10.6376,10.6376,10.6376,10.6376,10.6376,10.6376,10.6376,10.6376,10.6376,10.6376,10.6376,10.6376,10.6376,10.6376,10.6376,10.6376,10.6376,10.6376,10.6376,10.6376,10.6376,10.6376,10.6376,10.6376,10.6376,10.6376,0.0,0.0,0.0,0.0,0.0,0.0,0.0,0.0,0.0,0.0,0.0,0.0,0.0,0.0,0.0,0.0,0.0,0.0,5.1596,5.3994,5.5412,5.5412,5.7778,5.9099,5.9099,5.9099,5.9099,5.9129,5.9693,6.051,6.1412,6.1678,6.2548,6.3814,6.3814,6.4583,6.5903,6.5903,6.6304,6.7095,6.8893,7.032,7.1623,0.0,0.0,0.0,0.0,0.0,0.0,0.0,8.0385,8.061,8.061,8.098,8.1565,8.2286,8.3213,8.4166,8.4984,8.6294,8.7605,8.8398,8.9157,8.9881,9.064,9.0812,9.1054,9.1847,9.3227,9.4503,9.5262,9.54,9.5984,9.7824,9.9693,10.1498,10.3311,10.5195,10.6376,10.6376,10.6376,10.6376,10.6376,10.6376,10.6376,10.6376,10.6376,10.6376,10.6376,10.6376,10.6376,10.6376,10.6376,10.6376,10.6376,10.6376,10.6376,10.6376,10.6376,10.6376,10.6376,10.6376,10.6376,10.6376,10.6376,10.6376,10.6376,10.6376,10.6376,10.6376,10.6376,10.6376,10.6376,10.6376,10.6376,10.6376,0.0,0.0,0.0,0.0,0.0,0.0,0.0,0.0,0.0,0.0,0.0,0.0,0.0,0.0,0.0,0.0,0.0,0.0,5.1596,5.3994,5.5412,5.5412,5.7778,5.9099,5.9099,5.9738,6.0196,6.0439,6.063,6.1287,6.2384,6.2956,6.3414,6.3845,6.4829,6.5503,6.5934,6.6396,6.746,6.8917,7.0251,7.2071,7.4137,0.0,0.0,0.0,0.0,0.0,0.0,0.0,0.0,0.0,8.1054,8.1273,8.1555,8.2504,8.3359,8.4166,8.4984,8.6294,8.7605,8.8398,8.9157,8.9881,9.064,9.1226,9.2019,9.333,9.4365,9.5124,9.5365,9.54,9.5984,9.7824,9.9693,10.1498,10.3311,10.5195,10.6376,10.6376,10.6376,10.6376,10.6376,10.6376,10.6376,10.6376,10.6376,10.6376,10.6376,10.6376,10.6376,10.6376,10.6376,10.6376,10.6376,10.6376,10.6376,10.6376,10.6376,10.6376,10.6376,10.6376,10.6376,10.6376,10.6376,10.6376,10.6376,10.6376,10.6376,10.6376,10.6376,10.6376,10.6376,10.6376,10.6376,10.6376,0.0,0.0,0.0,0.0,0.0,0.0,0.0,0.0,0.0,0.0,5.1596,5.1596,0.0,0.0,0.0,0.0,0.0,0.0,5.2315,5.4263,5.5616,5.6108,5.8027,5.9219,5.9488,6.0177,6.0959,6.1804,6.1636,6.2119,6.3198,6.3598,6.4091,6.4645,6.5534,6.6211,6.6763,6.7584,6.8917,7.0573,7.2167,7.3931,7.575,0.0,0.0,0.0,0.0,0.0,0.0,0.0,0.0,0.0,8.1297,8.1672,8.217,8.3073,8.388,8.4708,8.5777,8.6949,8.8053,8.8846,8.9605,9.0433,9.1468,9.2088,9.2778,9.402,9.491,9.54,9.54,9.5984,9.7068,9.8919,10.08,10.2593,10.4515,10.569,10.6376,10.6376,10.6376,10.6376,10.6376,10.6376,10.6376,10.6376,10.6376,10.6376,10.6376,10.6376,10.6376,10.6376,10.6376,10.6376,10.6376,10.6376,10.6376,10.6376,10.6376,10.6381,10.6502,10.6381,10.6376,10.6376,10.6376,10.6376,10.6376,10.6376,10.6376,10.6376,10.6376,10.6402,10.6502,10.6502,10.6622,10.659,0.0,0.0,4.9999,5.0511,0.0,0.0,0.0,0.0,0.0,0.0,5.1596,5.1596,0.0,0.0,0.0,0.0,0.0,0.0,5.342,5.4679,5.5935,5.7131,5.8472,5.9545,6.0201,6.0623,6.1558,6.3047,6.2683,6.2986,6.3906,6.3968,6.4675,6.5903,6.6027,6.6822,6.8135,6.9301,7.064,7.2206,7.4353,7.5765,7.676,7.8472,0.0,0.0,0.0,0.0,0.0,0.0,0.0,0.0,8.152,8.217,8.3087,8.3855,8.4639,8.5535,8.7018,8.7984,8.8777,8.9536,9.0329,9.1295,9.2778,9.3158,9.3434,9.4254,9.4917,9.54,9.5468,9.6926,9.8746,10.0677,10.2499,10.4294,10.6102,10.6376,10.6376,10.6376,10.6376,10.6376,10.6376,10.6376,10.6376,10.6376,10.6376,10.6376,10.6376,10.6376,10.6376,10.6376,10.6376,10.6376,10.6376,10.6376,10.6397,10.6418,10.6418,10.6486,10.6693,10.6502,10.6376,10.6397,10.6381,10.6402,10.6418,10.6402,10.6497,10.6497,10.6497,10.6601,10.6693,10.6693,10.68,10.6978,0.0,0.0,5.0143,5.0556,0.0,0.0,0.0,0.0,0.0,0.0,5.1596,0.0,0.0,0.0,0.0,0.0,0.0,0.0,0.0,5.4679,5.5935,5.7131,5.8944,6.0286,6.1167,6.2014,6.2743,6.3321,6.3223,6.3691,6.4672,6.5195,6.5626,6.5965,6.6983,6.814,6.9291,7.0673,7.244,7.4484,7.5599,7.7024,7.8556,7.8959,7.9464,0.0,0.0,0.0,0.0,0.0,0.0,0.0,8.2322,8.2728,8.319,8.4535,8.5052,8.5535,8.7018,8.7984,8.8777,8.9536,9.0743,9.1985,9.2882,9.3572,9.4261,9.4986,9.5262,9.5572,9.6158,9.7248,9.8896,10.1401,10.28,10.4294,10.6102,10.6376,10.6376,10.6376,10.6376,10.6376,10.6376,10.6376,10.6376,10.6376,10.6376,10.6376,10.6376,10.6376,10.6376,10.6376,10.6376,10.6376,10.6376,10.6376,10.6518,10.659,10.659,10.6714,10.6881,10.6601,10.6376,10.6397,10.6677,10.6812,10.6611,10.6796,10.6914,10.6914,10.6914,10.6898,10.6901,10.6901,10.7015,10.6998,0.0,0.0,0.0,0.0,0.0,0.0,0.0,0.0,0.0,0.0,0.0,0.0,0.0,0.0,0.0,0.0,0.0,0.0,0.0,5.5587,5.6965,5.8524,5.9872,6.1004,6.1971,6.267,6.3462,6.4351,6.4521,6.4872,6.538,6.6057,6.655,6.6888,6.8135,6.944,7.0711,7.2544,7.4443,7.6269,7.7242,7.8447,7.9634,7.9634,7.9946,8.041,8.056,0.0,0.0,0.0,0.0,0.0,0.0,0.0,8.4156,8.4949,8.5708,8.6501,8.7674,8.8536,8.9398,9.0536,9.1675,9.2709,9.3503,9.4261,9.5081,9.5935,9.5715,9.593,9.7692,9.8781,10.0202,10.2407,10.4024,10.5312,10.6297,10.6376,10.6376,10.6376,10.6376,10.6376,10.6376,10.6376,10.6376,10.6376,10.6376,10.6376,10.6376,10.6376,10.6376,10.6376,10.6481,10.6507,10.6507,10.6611,10.6677,10.68,10.68,10.6898,10.6998,10.6812,10.671,10.6693,10.6918,10.6901,10.6894,10.7015,10.7019,10.7019,10.7019,10.7116,10.7121,10.7121,10.7181,10.7296,0.0,0.0,0.0,0.0,0.0,0.0,0.0,0.0,0.0,0.0,0.0,0.0,0.0,0.0,0.0,0.0,0.0,0.0,0.0,5.7024,5.8616,6.0388,6.0984,6.1751,6.2749,6.3152,6.4069,6.5475,6.6006,6.6273,6.6273,6.6798,6.7414,6.8118,6.9374,7.077,7.2341,7.4563,7.6347,7.777,7.8842,7.9692,8.0284,8.0234,8.041,8.0684,8.0684,8.1048,8.1599,8.1648,0.0,0.0,0.0,0.0,8.5259,8.5501,8.6432,8.7605,8.8536,8.9329,9.0226,9.164,9.2697,9.3557,9.438,9.5277,9.6246,9.7234,9.6607,9.6691,9.9387,10.0684,10.1904,10.3492,10.5283,10.6376,10.6376,10.6376,10.6376,10.6376,10.6376,10.6376,10.6376,10.6376,10.6376,10.6376,10.6376,10.6397,10.6402,10.6476,10.6497,10.6502,10.6705,10.6808,10.6808,10.6918,10.6982,10.7116,10.7099,10.7118,10.7118,10.7118,10.7079,10.7019,10.7099,10.7099,10.7116,10.7099,10.7118,10.7118,10.7118,10.7181,10.7412,10.7412,10.7509,10.7587,0.0,0.0,0.0,0.0,0.0,0.0,0.0,0.0,0.0,0.0,5.1596,5.1596,5.1596,5.1596,0.0,0.0,0.0,0.0,0.0,0.0,0.0,6.1792,6.1912,6.2555,6.3785,6.4418,6.5098,6.5847,6.7045,6.7629,6.7629,6.7721,6.812,6.8825,7.0626,7.2421,7.4277,7.6247,7.7784,7.8926,7.9752,8.0258,8.0535,8.0309,8.051,8.0956,8.0956,8.1562,8.2379,8.2597,8.3211,0.0,0.0,0.0,8.5466,8.6742,8.726,8.7743,8.9157,9.0088,9.0881,9.1778,9.3208,9.4627,9.5433,9.6906,9.836,9.9379,9.8603,9.8338,10.0305,10.2082,10.3505,10.4417,10.559,10.6376,10.6376,10.6376,10.6376,10.6376,10.6376,10.6376,10.6376,10.6376,10.6376,10.6376,10.6376,10.6497,10.6685,10.6705,10.6714,10.6918,10.6901,10.7015,10.7015,10.6998,10.7099,10.7277,10.7415,10.7492,10.7492,10.7492,10.7298,10.7002,10.7394,10.7396,10.7296,10.7378,10.7492,10.7492,10.7492,10.7511,10.7624,10.7624,10.7587,10.7606,0.0,0.0,0.0,0.0,0.0,0.0,0.0,0.0,0.0,0.0,0.0,5.1596,5.1596,5.1596,0.0,0.0,0.0,0.0,0.0,6.0689,6.1792,6.2091,6.2952,6.3778,6.4539,6.5349,6.6214,6.7014,6.7598,6.8275,6.9012,6.9012,6.9548,7.055,7.2436,7.4332,7.6213,7.7714,7.8867,7.9735,8.0249,8.051,8.061,8.0635,8.1121,8.1841,8.1841,8.2492,8.3365,8.3486,8.4052,8.4742,8.5087,0.0,0.0,0.0,8.8019,8.9044,9.0721,9.1317,9.1922,9.3817,9.479,9.5639,9.6978,9.7929,9.88,9.9798,10.0282,10.0876,10.228,10.3117,10.4101,10.5392,10.6084,10.6376,10.6376,10.6376,10.6376,10.6376,10.6376,10.6376,10.6376,10.6376,10.6402,10.6601,10.6601,10.6705,10.6894,10.6894,10.6918,10.7019,10.7081,10.7178,10.7178,10.7296,10.7394,10.7491,10.7605,10.7606,10.7606,10.7606,10.7473,10.7281,10.7492,10.7494,10.7491,10.7587,10.7606,10.7606,10.7606,10.7606,10.7606,10.7606,10.7903,10.8294,0.0,0.0,0.0,0.0,0.0,0.0,0.0,0.0,0.0,0.0,0.0,5.1831,5.1831,0.0,0.0,0.0,0.0,0.0,0.0,6.195,6.2599,6.2685,6.3996,6.4947,6.5353,6.6252,6.7185,6.8152,6.8306,6.9012,7.0151,7.0663,7.1547,7.2747,7.4158,7.5875,7.7748,7.8876,7.9726,8.0335,8.0535,8.0786,8.1105,8.1229,8.1953,8.2899,8.2791,8.3453,8.4328,8.4328,8.4846,8.5501,8.5708,8.6536,0.0,0.0,0.0,9.0305,9.1819,9.2096,9.2634,9.5337,9.6083,9.6657,9.8479,9.9103,9.9506,10.0507,10.1822,10.3096,10.4012,10.4304,10.4816,10.6218,10.6376,10.6376,10.6376,10.6376,10.6376,10.6376,10.6376,10.6397,10.6497,10.6497,10.6601,10.6792,10.6792,10.6894,10.7116,10.7099,10.7118,10.7215,10.7316,10.7394,10.7394,10.7511,10.7606,10.7606,10.7606,10.7606,10.7606,10.7606,10.7606,10.7606,10.7606,10.7606,10.7606,10.7606,10.7606,10.7606,10.7606,10.768,10.7903,10.7903,10.8517,10.9223,0.0,0.0,0.0,0.0,0.0,0.0,0.0,0.0,0.0,0.0,0.0,0.0,5.2459,5.2955,5.3815,5.5032,0.0,0.0,0.0,6.2528,6.4033,6.4352,6.5045,0.0,6.6309,6.707,6.789,6.8857,6.9474,7.0151,7.0889,7.2733,7.4241,7.54,7.5515,7.66,7.8425,7.9649,8.0326,8.0585,8.061,8.1316,8.235,8.2129,8.283,8.3876,8.363,0.0,0.0,0.0,8.5639,8.6363,8.7087,8.7363,8.7708,0.0,0.0,0.0,9.1789,9.2004,9.2588,9.5178,9.6532,9.7727,9.9492,10.0697,10.1613,10.2403,10.3194,10.4095,10.4887,10.571,10.6297,10.6413,10.6376,10.6376,10.6376,10.6376,10.6376,10.6376,10.6376,10.6497,10.6705,10.6689,10.6792,10.7015,10.6998,10.7079,10.7296,10.7296,10.7394,10.7587,10.7587,10.7606,10.7606,10.7606,10.7606,10.7606,10.7606,10.7606,10.7606,10.7606,10.7606,10.7606,10.7606,10.7606,10.7606,10.7606,10.7606,10.7606,10.7606,10.8089,10.8814,10.8814,10.9278,10.9983,0.0,0.0,0.0,0.0,0.0,0.0,0.0,0.0,0.0,0.0,0.0,0.0,0.0,5.5263,5.6249,5.7098,5.8654,0.0,0.0,0.0,0.0,6.5136,6.6211,6.6868,6.7041,6.8348,6.9231,6.9536,7.0213,7.131,7.2796,7.3487,7.5075,7.739,7.739,7.8173,7.958,7.9998,8.0631,8.1315,8.149,8.2206,8.3213,8.3287,8.3915,8.4752,0.0,0.0,0.0,0.0,0.0,0.0,8.7915,8.8501,8.9088,9.0123,9.0605,9.1108,9.2502,9.2817,9.3336,9.6038,9.7408,9.8418,9.9704,10.0803,10.1677,10.2522,10.3293,10.41,10.5018,10.5789,10.6376,10.6376,10.6376,10.6376,10.6376,10.6376,10.6402,10.6622,10.6585,10.6689,10.6914,10.6898,10.7015,10.7198,10.7218,10.7296,10.751,10.751,10.7511,10.7606,10.7606,10.7606,10.7606,10.7606,10.7606,10.7606,10.7606,10.7606,10.7606,10.7606,10.7606,10.7606,10.7606,10.7606,10.7606,10.7606,10.7903,10.8386,10.8386,10.8906,10.9706,10.9706,11.0189,11.0894,0.0,0.0,0.0,5.1858,0.0,5.1962,5.2171,5.2537,5.2958,5.3382,0.0,0.0,0.0,0.0,5.8666,5.9718,6.1771,6.3415,6.4424,6.5319,6.6039,6.6487,6.7538,6.8262,6.8595,6.9693,7.0367,7.0582,7.1465,7.265,7.4134,7.4975,7.6442,7.8411,7.9076,7.9678,8.0209,8.0445,8.108,8.1848,8.2296,8.3142,8.4151,8.4324,8.5052,0.0,0.0,0.0,0.0,0.0,0.0,0.0,0.0,8.9467,9.0157,9.0674,9.0985,9.1523,9.2911,9.3407,9.4063,9.6497,9.7532,9.8312,9.9673,10.0476,10.1403,10.2791,10.3513,10.421,10.529,10.6009,10.6376,10.6376,10.6376,10.6376,10.6376,10.6497,10.6581,10.6689,10.6808,10.6914,10.7099,10.7118,10.7198,10.7413,10.7413,10.7509,10.7606,10.7606,10.7606,10.7606,10.7606,10.7606,10.7606,10.7606,10.7606,10.7606,10.7606,10.7606,10.7606,10.7606,10.7811,10.7978,10.7978,10.7978,10.7978,10.7978,10.8498,10.9297,10.9297,10.9817,11.0523,11.0523,11.0986,11.1692,5.1586,5.1648,5.1831,5.2433,5.2537,5.2752,5.336,5.3464,5.3953,5.5207,0.0,0.0,0.0,0.0,0.0,6.2908,6.4305,6.5173,6.5558,6.6221,6.7183,6.8478,6.9119,6.9882,7.089,7.0951,7.132,7.2059,7.3261,7.4224,7.4948,7.7286,7.8411,7.8584,8.0457,8.0945,8.0335,8.1046,8.1656,8.2259,8.2977,8.4031,8.5225,8.5259,8.6156,0.0,8.7432,8.795,0.0,0.0,0.0,0.0,0.0,0.0,0.0,9.0847,9.1399,9.2157,0.0,0.0,0.0,9.6424,9.6884,9.7436,9.9447,9.9954,10.0805,10.3306,10.3896,10.4394,10.6082,10.6397,10.6397,10.6397,10.6397,10.6397,10.6397,10.6622,10.671,10.671,10.6914,10.7099,10.7316,10.7279,10.7413,10.7606,10.7606,10.7606,10.7606,10.7606,10.7606,10.7606,10.7606,10.7606,10.7606,10.7606,10.7606,10.7606,10.7606,10.7606,10.7606,10.7606,10.8089,10.8925,10.8925,10.8906,10.9,10.8906,10.9408,11.0095,11.0095,11.0578,11.1283,11.1283,11.1803,11.2509,5.2839,5.2903,5.2955,5.3112,5.3138,5.3518,5.4668,5.5176,5.5894,0.0,0.0,0.0,6.0908,6.2573,6.3977,6.4755,6.5592,6.6432,6.7274,6.8121,6.9001,6.9915,7.028,7.0615,7.089,7.2253,7.3101,7.332,7.4991,7.6399,7.7396,7.8083,7.9162,8.0542,8.1266,8.1766,8.2072,8.2276,8.3049,8.4074,8.428,8.503,8.6053,8.6605,8.7053,0.0,0.0,8.8398,8.8674,0.0,8.9398,8.9536,0.0,0.0,0.0,0.0,9.1813,9.2295,9.3606,0.0,0.0,0.0,0.0,0.0,9.7626,9.9358,10.121,10.2491,10.3915,10.5091,10.6192,10.6502,10.6606,10.6606,10.6606,10.6606,10.6606,10.6705,10.6808,10.6898,10.7015,10.7101,10.751,10.7492,10.7511,10.7606,10.7606,10.7606,10.7606,10.7606,10.7606,10.7606,10.7606,10.7606,10.7606,10.7606,10.7606,10.7606,10.7606,10.7903,10.8498,10.8498,10.9,10.9817,10.9817,11.0114,11.0597,11.0003,11.0206,11.1006,11.1006,11.1489,11.2175,11.2175,11.2286,11.2509,5.3367,5.34,5.3646,5.441,5.4591,5.5205,5.706,5.7606,5.8383,0.0,0.0,0.0,6.3767,6.5173,6.6282,6.6913,6.7548,6.8274,6.9002,6.9549,7.0251,7.1108,7.126,7.1717,7.2507,7.3657,7.4463,7.4985,7.6563,7.7867,7.8869,7.9381,8.0394,8.1791,8.2352,8.31,8.3943,8.4353,8.4822,8.5298,8.5607,8.6343,8.7329,8.7743,8.8088,0.0,0.0,0.0,8.9571,9.0019,9.0398,0.0,0.0,0.0,0.0,0.0,0.0,9.3185,9.4082,9.453,9.4848,9.5262,0.0,0.0,9.7386,9.911,10.1,10.2688,10.4174,10.5494,10.6413,10.671,10.6874,10.6881,10.6975,10.6918,10.6779,10.6877,10.6998,10.7081,10.7218,10.7281,10.7587,10.7606,10.7606,10.7606,10.7606,10.7606,10.7606,10.7606,10.7606,10.7606,10.7606,10.7606,10.7606,10.7606,10.7606,10.7606,10.7997,10.8405,10.8888,10.9203,10.9798,11.0578,11.0578,11.1117,11.1823,11.1283,11.1395,11.1803,11.1803,11.2101,11.2509,11.2509,11.2509,11.2509,0.0,5.3791,5.4467,5.62,5.6632,5.7559,6.0058,6.0416,6.1089,0.0,6.3389,6.4353,6.6583,6.7397,6.8152,6.9093,6.9701,7.025,7.0618,7.0679,7.1108,7.206,7.2244,7.31,7.4771,7.5066,7.5768,7.6915,7.8134,7.9096,7.9847,8.092,8.1824,8.2629,8.3626,8.4659,8.572,8.6732,8.6834,8.6353,8.6937,8.7745,8.8605,8.8674,8.9122,8.9709,8.9778,9.0295,9.095,9.1054,9.1537,0.0,0.0,0.0,0.0,0.0,9.3744,0.0,0.0,0.0,0.0,9.54,9.54,0.0,9.7736,9.8951,10.0411,10.2899,10.451,10.5604,10.6302,10.6718,10.7002,10.7218,10.7296,10.722,10.7116,10.7198,10.7316,10.7316,10.7509,10.7587,10.7606,10.7606,10.7606,10.7606,10.7606,10.7606,10.7606,10.7606,10.7606,10.7606,10.7606,10.7606,10.7606,10.7606,10.7606,10.7606,10.8517,10.8906,10.9111,10.9891,11.0709,11.1395,11.1395,11.1803,11.2509,11.2509,11.2509,11.2509,11.2509,11.2509,11.2509,11.2509,11.2509,11.2509,5.5334,5.6385,5.7407,5.8232,5.9298,6.06,6.2177,6.2452,6.2973,6.4426,6.5801,6.7212,6.8753,6.9272,6.9701,7.016,7.0312,7.0771,7.166,7.1721,7.206,7.2799,7.3747,7.4407,7.4771,7.6701,7.8075,7.8941,8.0132,8.1117,8.1858,8.2067,8.2681,8.366,8.4719,8.5754,8.6766,8.7839,8.8562,8.8907,8.8459,8.8416,8.8674,8.926,8.9571,8.9778,9.0364,9.1088,9.1847,0.0,9.2744,9.2882,0.0,0.0,0.0,0.0,0.0,0.0,0.0,0.0,0.0,0.0,0.0,0.0,9.5932,9.7736,9.9538,10.0114,10.2694,10.489,10.5108,10.5995,10.6792,10.6796,10.7099,10.7296,10.7183,10.7296,10.7316,10.7316,10.7318,10.7396,10.7606,10.7606,10.7606,10.7606,10.7606,10.7606,10.7606,10.7606,10.7606,10.7606,10.7606,10.7606,10.7606,10.7606,10.7606,10.7606,10.8517,10.9223,10.9891,11.0709,11.1506,11.2306,11.2306,11.2418,11.2509,11.2509,11.2509,11.2509,11.2509,11.2509,11.2509,11.2509,11.2509,11.2509,5.7337,5.8559,5.9848,6.0771,6.1529,6.2556,6.4263,6.477,6.5371,6.6339,6.7665,6.8877,6.9882,7.0432,7.0862,7.12,7.1537,7.1967,7.246,7.2522,7.2922,7.3874,7.4475,7.5547,7.7107,7.8338,7.9601,8.0955,8.154,8.2282,8.3157,8.3564,8.4297,8.5273,8.637,8.7331,8.8208,8.8881,8.9812,9.0743,8.9605,8.9364,8.9778,9.0536,9.0847,9.095,9.1675,9.2226,9.2686,9.3546,9.3778,0.0,0.0,9.4341,9.433,0.0,9.4848,9.4944,0.0,0.0,0.0,9.54,0.0,0.0,0.0,9.7796,9.9428,9.9946,10.2197,10.4108,10.4108,10.5198,10.6117,10.6117,10.68,10.7316,10.7316,10.7413,10.7378,10.7378,10.7378,10.751,10.7606,10.7606,10.7606,10.7606,10.7606,10.7606,10.7606,10.7606,10.7606,10.7606,10.7606,10.7606,10.7606,10.7606,10.7606,10.7606,10.8925,10.9706,11.0095,11.1283,11.2101,11.2509,11.2509,11.2509,11.2509,11.2509,11.2509,11.2509,11.2509,11.2509,11.2509,11.2509,11.2509,11.2509,5.9605,6.0603,6.2003,6.3333,6.3795,6.4555,6.6308,6.7029,6.7658,6.841,6.9513,7.0495,7.1169,7.1996,7.2579,7.2883,7.3381,7.3692,0.0,0.0,7.4334,7.5315,7.5707,7.7126,7.967,7.9947,8.0909,8.2611,8.2754,8.335,8.435,8.5131,8.5996,8.6952,8.7941,8.8827,8.9627,9.001,9.095,9.2088,9.0847,9.0709,9.133,9.195,9.2192,9.2322,9.3288,9.3645,9.3778,9.4725,0.0,9.4895,9.5542,9.5732,0.0,0.0,0.0,0.0,0.0,0.0,0.0,0.0,0.0,9.5613,0.0,0.0,0.0,10.0012,10.1785,10.3095,10.3095,10.4107,10.4912,10.48,10.5972,10.6814,10.6697,10.7189,10.7492,10.7606,10.7606,10.7606,10.7606,10.7606,10.7606,10.7606,10.7606,10.7606,10.7606,10.7606,10.7606,10.7606,10.7606,10.7606,10.7606,10.7606,10.7606,10.7606,10.9297,11.0114,11.0189,11.1803,11.2509,11.2509,11.2509,11.2509,11.2509,11.2509,11.2509,11.2509,11.2509,11.2509,11.2509,11.2509,11.2509,11.2509,6.2141,6.2701,6.4089,6.5347,6.6599,6.7681,6.8523,6.8734,6.913,7.0075,7.1751,7.3114,7.3802,7.517,7.6038,7.6067,7.6163,0.0,7.6196,0.0,0.0,7.7356,7.9023,8.0118,8.0459,8.1497,8.2514,8.3389,8.4005,8.4875,8.5974,8.6695,8.7397,8.8027,8.8835,8.9722,9.0691,9.1433,9.2226,9.2951,9.2778,9.2744,9.2847,9.2951,9.2985,9.3189,9.4913,9.5493,9.5624,0.0,9.6622,9.6493,0.0,9.6043,0.0,0.0,0.0,0.0,0.0,0.0,0.0,0.0,9.54,0.0,0.0,0.0,9.7895,9.8035,0.0,10.1707,10.1707,0.0,0.0,10.2719,10.4222,10.5202,10.4701,10.5978,10.7218,10.7605,10.7606,10.7606,10.7606,10.7606,10.7606,10.7606,10.7606,10.7606,10.7606,10.7606,10.7606,10.7606,10.7606,10.7606,10.7606,10.7606,10.7606,10.7606,10.9297,11.0114,11.0189,11.1803,11.2509,11.2509,11.2509,11.2509,11.2509,11.2509,11.2509,11.2509,11.2509,11.2509,11.2509,11.2509,11.2509,11.2509,6.5203,6.5927,6.7084,6.7584,6.8208,6.8675,6.8944,6.9491,7.0225,7.1238,7.2242,7.3014,7.3508,7.4773,7.5563,7.5563,0.0,7.7232,0.0,0.0,0.0,0.0,8.0179,8.1152,8.2235,8.3219,8.4144,8.5075,8.5795,8.6579,8.7396,8.8115,8.8882,8.9759,9.0516,9.1327,9.2157,9.2502,9.3089,9.3778,9.3778,9.4054,9.4399,9.3951,9.4054,9.455,9.5315,9.5934,9.6582,0.0,9.7411,0.0,0.0,0.0,0.0,0.0,0.0,0.0,0.0,0.0,0.0,0.0,0.0,0.0,0.0,0.0,9.836,0.0,0.0,0.0,0.0,0.0,0.0,0.0,10.411,10.5224,10.5592,10.6378,10.7116,10.72,10.7412,10.7491,10.7606,10.7606,10.7606,10.7606,10.7606,10.7606,10.7606,10.7606,10.7606,10.7606,10.7606,10.7606,10.7606,10.7606,10.7606,10.7606,10.9297,11.0114,11.0189,11.1803,11.2509,11.2509,11.2509,11.2509,11.2509,11.2509,11.2509,11.2509,11.2509,11.2509,11.2509,11.2509,11.2509,11.2509,6.8135,6.8514,6.9064,6.9243,6.9273,6.9365,6.9639,7.0377,7.1209,7.2011,7.2888,7.3633,7.4215,7.551,7.6513,7.6858,7.8163,7.8994,0.0,0.0,8.0497,0.0,0.0,0.0,8.4099,8.485,8.5654,8.6518,8.7239,8.8011,8.88,8.9556,9.0444,9.1468,9.2019,9.2709,9.3434,9.3434,9.3882,9.4599,9.4599,9.502,9.5606,9.4882,9.4917,9.5448,9.6032,9.6843,9.7829,9.8873,9.8872,0.0,9.9866,0.0,0.0,0.0,0.0,0.0,9.6603,0.0,0.0,0.0,0.0,0.0,0.0,0.0,0.0,0.0,0.0,0.0,0.0,0.0,10.1314,10.1892,0.0,10.441,10.5403,10.5993,10.6501,10.6884,10.7198,10.7412,10.7473,10.7587,10.7606,10.7606,10.7606,10.7606,10.7606,10.7606,10.7606,10.7606,10.7606,10.7606,10.7606,10.7606,10.7606,10.7606,10.9297,11.0114,11.0189,11.1803,11.2509,11.2509,11.2509,11.2509,11.2509,11.2509,11.2509,11.2509,11.2509,11.2509,11.2509,11.2509,11.2509,11.2509,7.0764,6.981,6.9183,6.9842,6.9993,7.0269,7.1158,7.1661,7.2104,7.2451,7.4343,7.6168,7.7424,7.9205,0.0,0.0,0.0,8.227,8.227,0.0,8.3377,0.0,0.0,8.5662,0.0,8.6467,8.6976,8.7273,8.7987,8.9062,9.0346,9.1074,9.2026,9.302,9.3054,9.3503,9.4254,9.4254,9.4703,9.5365,9.5365,9.5813,9.6365,9.5641,9.5365,9.5668,9.7686,0.0,0.0,10.0783,10.1583,0.0,0.0,0.0,0.0,0.0,0.0,0.0,0.0,0.0,0.0,9.791,0.0,0.0,0.0,0.0,9.878,0.0,0.0,0.0,9.9883,9.9912,9.9795,0.0,10.0606,0.0,0.0,10.3797,10.5296,10.6783,10.7198,10.7279,10.7279,10.751,10.7606,10.7606,10.7606,10.7606,10.7606,10.7606,10.7606,10.7606,10.7606,10.7606,10.7606,10.7606,10.7606,10.7606,10.9297,11.0114,11.0189,11.1803,11.2509,11.2509,11.2509,11.2509,11.2509,11.2509,11.2509,11.2509,11.2509,11.2509,11.2509,11.2509,11.2509,11.2509,7.0889,7.056,7.032,7.056,7.059,7.0779,7.1311,7.2309,7.3316,7.4283,7.5642,7.7019,0.0,7.9701,8.0729,0.0,0.0,8.3355,8.3802,8.4606,0.0,0.0,0.0,8.6535,8.6535,8.7245,8.8102,8.9096,8.9819,9.0871,9.2196,9.2437,9.3042,9.3882,9.3882,9.4296,9.502,9.502,9.5158,9.5434,9.5917,9.6607,9.7306,9.7202,9.7532,9.8164,9.9584,10.0685,0.0,10.19,10.2194,10.2515,10.279,10.2216,10.1497,10.1802,10.1685,0.0,0.0,0.0,10.1601,9.9341,0.0,0.0,0.0,0.0,0.0,0.0,0.0,0.0,0.0,0.0,0.0,0.0,0.0,10.2084,0.0,10.4996,10.5989,10.6507,10.6812,10.6998,10.7296,10.7412,10.7509,10.7606,10.7606,10.7606,10.7606,10.7606,10.7606,10.7606,10.7606,10.7606,10.7606,10.7606,10.7606,10.7606,10.8814,10.9594,11.0095,11.1209,11.1989,11.2509,11.2509,11.2509,11.2509,11.2509,11.2509,11.2509,11.2509,11.2509,11.2509,11.2509,11.2509,11.2509,7.1577,7.1607,7.1457,7.0979,7.1196,7.1696,7.2389,7.3651,7.4874,7.5829,7.7095,7.8407,7.9717,0.0,8.1979,0.0,8.3834,8.4911,8.5391,8.5892,0.0,8.6907,8.7144,0.0,0.0,8.8405,8.9422,9.0393,9.1227,9.2317,9.3537,9.3537,9.3916,9.4675,9.4979,9.5193,9.5434,9.5986,9.602,9.5903,9.7044,9.7965,9.8756,9.9718,9.9724,9.9516,0.0,10.1993,10.2913,10.319,10.3613,10.3905,10.4593,10.3919,10.2992,10.3618,10.3407,10.2784,10.2394,10.3108,0.0,10.1188,10.1903,0.0,10.0293,0.0,0.0,0.0,0.0,0.0,0.0,0.0,0.0,0.0,0.0,0.0,0.0,10.5391,10.6376,10.6376,10.6622,10.6816,10.7215,10.7314,10.7394,10.7606,10.7606,10.7606,10.7606,10.7606,10.7606,10.7606,10.7606,10.7606,10.7606,10.7606,10.7606,10.7606,10.8517,10.9185,10.9706,11.082,11.16,11.2101,11.2398,11.2509,11.2509,11.2509,11.2509,11.2509,11.2509,11.2509,11.2509,11.2509,11.2509,11.2509,7.2774,7.2924,7.2538,7.1343,7.1936,7.3057,7.441,7.5682,7.6644,7.7134,7.8849,8.05,8.1818,8.319,8.4539,8.5743,8.6501,8.6941,8.6974,8.6974,0.0,0.0,8.7719,8.8125,8.8158,8.9888,9.0915,9.122,9.2241,9.3299,9.4358,9.4392,9.4806,9.5468,9.6227,9.6158,9.5606,9.7083,9.7318,9.6837,9.8644,9.9824,10.0818,10.2885,10.1987,9.982,10.1923,10.3117,10.3928,10.4796,10.5715,10.6376,10.6376,10.6376,10.6376,10.6376,10.6376,10.6206,10.5099,10.4775,10.4508,10.3406,0.0,0.0,0.0,0.0,10.1697,0.0,0.0,0.0,0.0,0.0,0.0,0.0,0.0,0.0,10.2792,10.5008,10.6376,10.6376,10.6622,10.6792,10.6998,10.7198,10.7394,10.7606,10.7606,10.7606,10.7606,10.7606,10.7606,10.7606,10.7606,10.7606,10.7606,10.7606,10.7606,10.7606,10.8386,10.8888,10.9,11.0523,11.1209,11.1283,11.2101,11.2509,11.2509,11.2509,11.2509,11.2509,11.2509,11.2509,11.2509,11.2509,11.2509,11.2509,7.2894,7.3094,7.3488,7.4198,7.4148,7.4449,7.5745,7.6837,7.8415,8.0942,8.2215,8.3536,8.5379,8.5893,8.624,8.6575,8.6805,0.0,0.0,0.0,0.0,8.9309,8.9545,8.9884,9.0425,9.1144,0.0,9.282,9.327,9.4055,9.5124,9.5675,9.602,9.6227,9.7021,9.729,9.7152,9.7532,9.8348,9.944,9.9911,10.1011,10.2594,10.3914,10.4007,10.3508,10.4889,10.5507,10.5711,10.6019,10.6192,10.6376,10.6376,10.6376,10.6376,10.6376,10.6376,10.6297,10.6025,10.5997,10.5707,10.4627,10.4297,10.3976,0.0,0.0,0.0,0.0,0.0,0.0,0.0,0.0,0.0,0.0,0.0,0.0,10.302,10.5008,10.6376,10.6376,10.6622,10.6792,10.6998,10.7022,10.72,10.7587,10.7606,10.7606,10.7606,10.7606,10.7606,10.7606,10.7606,10.7606,10.7606,10.7606,10.7606,10.7606,10.7792,10.8294,10.8888,10.9297,11.0189,11.1283,11.1506,11.1915,11.2509,11.2509,11.2509,11.2509,11.2509,11.2509,11.2509,11.2509,11.2509,11.2509,7.4294,7.5097,7.5902,7.6668,7.7149,7.7521,7.7904,7.9678,8.1674,8.3526,8.4588,8.565,8.6791,8.7211,8.738,8.738,8.7685,0.0,8.8903,0.0,0.0,9.0628,9.0696,9.0865,9.1271,9.1925,0.0,9.34,9.399,9.4846,9.5882,9.6296,9.6676,9.7055,9.7842,9.8015,9.7767,9.8542,9.967,10.1011,10.1898,10.2912,0.0,10.5017,10.5413,10.548,10.6206,10.6376,10.6376,10.6376,10.6376,10.6376,10.6376,10.6376,10.6376,10.6376,10.6376,10.6376,10.6376,10.6376,10.6212,10.5582,10.5413,10.5203,10.4096,10.3916,10.3988,0.0,0.0,0.0,0.0,0.0,0.0,0.0,0.0,0.0,10.3784,10.5316,10.6376,10.6376,10.6502,10.6611,10.68,10.7002,10.7314,10.7587,10.7606,10.7606,10.7606,10.7606,10.7606,10.7606,10.7606,10.7606,10.7606,10.7606,10.7606,10.7606,10.7606,10.7922,10.8275,10.8703,10.9594,11.082,11.1098,11.1823,11.2509,11.2509,11.2509,11.2509,11.2509,11.2509,11.2475,11.2809,11.2807,11.2495,7.6387,7.7669,7.8577,7.8814,8.0312,8.1316,8.087,8.3188,8.5086,8.5363,8.6338,8.7076,8.7177,8.7854,8.8294,8.8294,0.0,8.9647,9.029,9.0357,9.0662,9.1406,9.1497,9.1531,9.1633,9.265,0.0,0.0,9.4663,9.5631,9.6641,9.6745,9.7158,9.7877,9.8607,9.8687,9.8325,9.9868,10.1091,10.2078,10.3892,10.4775,10.4981,10.6004,10.6376,10.6376,10.6376,10.6376,10.6376,10.6376,10.6376,10.6376,10.6376,10.6376,10.6376,10.6376,10.6376,10.6376,10.6376,10.6376,10.6376,10.6376,10.6376,10.609,10.5094,10.5108,10.5302,10.5288,10.5288,10.5692,0.0,0.0,0.0,0.0,0.0,0.0,10.4798,10.5714,10.6381,10.6381,10.6497,0.0,10.6689,10.7002,10.7281,10.7474,10.7606,10.7606,10.7606,10.7606,10.7606,10.7606,10.7606,10.7606,10.7606,10.7606,10.7606,10.7606,10.7606,10.7606,10.7606,10.8405,10.9185,11.0003,11.0709,11.1506,11.2286,11.2286,11.2398,11.2509,11.2509,11.2589,11.2691,11.3297,11.3206,11.2791,7.7954,7.8345,7.8952,8.0412,8.227,8.3903,8.4862,8.5031,8.5573,8.7268,8.7676,8.8023,8.8632,8.9376,8.9816,8.9816,9.0493,0.0,0.0,0.0,0.0,9.2155,9.2478,9.2928,9.351,9.4221,9.4909,0.0,9.6031,9.6682,9.7497,9.8118,9.8469,9.8636,9.9366,10.011,10.0914,10.1174,10.2404,10.4215,10.4495,10.5316,10.609,10.6276,10.6376,10.6376,10.6376,10.6376,10.6376,10.6376,10.6376,10.6376,10.6376,10.6376,10.6376,10.6376,10.6376,10.6376,10.6376,10.6376,10.6376,10.6376,10.6376,10.6297,10.6111,10.609,10.6212,10.6402,10.6408,10.6512,10.6901,0.0,0.0,0.0,0.0,0.0,10.5296,10.6096,10.6611,10.6611,10.6776,10.68,10.671,10.6918,10.7101,10.7318,10.7492,10.7606,10.7606,10.7606,10.7606,10.7606,10.7606,10.7606,10.7606,10.7606,10.7606,10.7606,10.7606,10.7606,10.7606,10.7811,10.8294,10.9111,10.9297,11.0189,11.1506,11.1506,11.1878,11.2509,11.2509,11.2791,11.3314,11.3495,11.3808,11.4189,7.896,8.0335,8.1713,8.2574,8.4951,8.699,8.7657,8.8042,8.8482,8.9055,8.914,8.941,9.0154,9.056,9.0763,9.0763,9.1102,9.1474,9.1846,9.2024,9.2478,9.3196,9.3547,0.0,9.4816,9.5104,9.5738,9.667,9.6778,9.7362,9.8291,9.8607,9.8986,9.9366,9.9745,10.05,10.1492,10.2104,10.3209,10.4789,10.5288,10.5918,10.6376,10.6376,10.6376,10.6376,10.6376,10.6376,10.6376,10.6376,10.6376,10.6376,10.6376,10.6376,10.6376,10.6376,10.6376,10.6376,10.6376,10.6376,10.6376,10.6376,10.6376,10.6376,10.6376,10.6518,10.6601,10.6507,10.6693,10.6877,10.6998,10.6496,0.0,0.0,0.0,0.0,0.0,10.6392,10.671,10.671,10.6812,10.6796,10.671,10.6914,10.7099,10.7296,10.751,10.7606,10.7606,10.7606,10.7606,10.7606,10.7606,10.7606,10.7606,10.7606,10.7606,10.7606,10.7606,10.7606,10.7606,10.7606,10.8108,10.8888,10.8888,10.9594,11.0709,11.1098,11.1506,11.2011,11.27,11.3205,11.3507,11.3811,11.4086,11.4503,8.0686,8.2954,8.4945,8.524,8.7487,8.9398,8.967,9.0628,9.1102,9.0527,9.0425,9.0662,9.1237,9.144,9.1541,9.1541,9.1677,9.2049,9.2624,9.3118,9.366,9.4243,9.4761,9.5338,9.5919,9.6005,9.6526,0.0,9.7546,9.7896,9.8573,9.8883,9.9475,10.0217,10.0217,10.0996,10.22,10.3105,10.412,10.5072,10.6004,10.6376,10.6376,10.6376,10.6376,10.6376,10.6376,10.6376,10.6376,10.6376,10.6376,10.6376,10.6376,10.6376,10.6376,10.6376,10.6376,10.6376,10.6376,10.6376,10.6376,10.6376,10.6376,10.6376,10.6376,10.6523,10.6606,10.6518,10.6698,10.7019,10.7019,10.6898,0.0,0.0,0.0,0.0,0.0,0.0,10.6792,10.6796,10.6812,10.6792,10.6792,10.6901,10.7081,10.72,10.7396,10.7605,10.7606,10.7606,10.7606,10.7606,10.7606,10.7606,10.7606,10.7606,10.7606,10.7606,10.7606,10.7606,10.7606,10.7606,10.7997,10.8591,10.8591,10.9111,10.9891,11.0709,11.1104,11.1391,11.251,11.3085,11.3416,11.3903,11.4081,11.4299,8.4582,8.5913,8.7401,8.8591,8.9089,8.97,9.0953,9.1213,9.1271,9.1203,9.1203,9.1203,9.1271,9.1913,9.229,9.229,9.2962,9.3402,9.347,9.4437,9.502,9.5088,9.629,9.699,9.7058,9.7345,9.7895,0.0,0.0,9.8366,9.7842,9.9159,10.0381,10.1373,10.1373,10.2521,10.4391,10.4485,10.5212,10.6307,10.6391,10.6376,10.6376,10.6376,10.6376,10.6376,10.6376,10.6376,10.6376,10.6376,10.6376,10.6376,10.6376,10.6376,10.6376,10.6376,10.6376,10.6376,10.6376,10.6376,10.6376,10.6376,10.6376,10.6376,10.6376,10.6397,10.6497,10.659,10.68,10.7019,10.7019,10.7101,10.7183,0.0,0.0,0.0,0.0,0.0,10.7002,10.72,10.7099,10.6978,10.6978,10.7215,10.7181,10.7002,10.72,10.7376,10.7606,10.7606,10.7606,10.7606,10.7606,10.7606,10.7606,10.7606,10.7606,10.7606,10.7606,10.7606,10.7606,10.7606,10.7606,10.768,10.768,10.82,10.9111,10.9891,11.0498,11.0986,11.1223,11.1986,11.3091,11.3084,11.3518,11.3994,8.6269,8.7919,8.9348,8.9842,9.1038,9.2065,9.2599,9.2658,9.2658,9.2658,9.2252,9.215,9.2624,9.2928,9.33,9.3711,9.4256,9.4776,9.5183,9.5965,9.6398,9.6398,9.7105,9.7712,9.816,9.8274,9.8711,0.0,0.0,9.9297,9.9021,9.9607,10.0507,10.1492,10.2183,10.3294,10.4706,10.4706,10.5383,10.6376,10.6376,10.6376,10.6376,10.6376,10.6376,10.6376,10.6376,10.6376,10.6376,10.6376,10.6376,10.6376,10.6376,10.6376,10.6376,10.6376,10.6376,10.6376,10.6376,10.6376,10.6376,10.6376,10.6376,10.6376,10.6376,10.6376,10.6397,10.6502,10.6689,10.6894,10.6998,10.7015,10.7015,0.0,0.0,0.0,0.0,0.0,10.7002,10.7081,10.7215,10.7198,10.7198,10.7314,10.7277,10.7198,10.7394,10.7491,10.7396,10.7511,10.7606,10.7606,10.7606,10.7606,10.7606,10.7606,10.7606,10.7606,10.7606,10.7606,10.7606,10.7606,10.7606,10.7607,10.8016,10.8419,10.8811,10.9999,11.0691,11.1021,11.1917,11.2523,11.301,11.2915,11.3009,11.3214,8.8244,9.0057,9.1344,9.1344,9.2569,9.3673,9.3876,9.3909,9.3977,9.4214,9.374,9.3537,9.3876,9.4112,9.451,9.5141,9.5383,9.5764,9.6363,9.7101,9.7528,9.7528,9.805,0.0,9.909,9.9124,9.9366,9.9883,9.9883,0.0,9.9228,9.9228,10.0217,10.1999,10.2802,10.3892,10.5212,10.5212,10.5721,10.6376,10.6376,10.6376,10.6376,10.6376,10.6376,10.6376,10.6376,10.6376,10.6376,10.6376,10.6376,10.6376,10.6376,10.6376,10.6376,10.6376,10.6376,10.6376,10.6376,10.6376,10.6376,10.6376,10.6376,10.6376,10.6376,10.6376,10.6376,10.6376,10.6502,10.6689,10.6914,10.68,10.6894,10.7116,0.0,0.0,0.0,0.0,0.0,10.7198,10.7183,10.7298,10.7394,10.7413,10.7375,10.7279,10.751,10.7511,10.7413,10.7492,10.7606,10.7606,10.7606,10.7606,10.7606,10.7606,10.7606,10.7606,10.7606,10.7606,10.7606,10.7606,10.7702,10.7888,10.8406,10.869,10.8904,10.9984,11.0498,11.0793,11.1895,11.2424,11.2485,11.2389,11.228,11.2291,9.118,9.2604,9.3571,9.3571,9.3571,9.3842,9.4586,9.4687,9.4958,9.5669,9.577,9.5499,9.4789,9.533,9.592,9.6249,9.6279,9.6397,9.6657,9.7697,9.8283,0.0,0.0,9.9883,9.9883,9.9883,9.9883,9.9883,0.0,0.0,9.7739,9.7739,9.9639,10.3105,10.3095,10.4274,10.6413,10.6413,10.6413,10.6376,10.6376,10.6376,10.6376,10.6376,10.6376,10.6376,10.6376,10.6376,10.6376,10.6376,10.6376,10.6376,10.6376,10.6376,10.6376,10.6376,10.6376,10.6376,10.6376,10.6376,10.6376,10.6376,10.6376,10.6376,10.6376,10.6376,10.6376,10.6376,10.6397,10.6497,10.6705,10.6894,10.7116,10.7277,0.0,0.0,0.0,0.0,0.0,10.7587,10.7396,10.7394,10.7587,10.7606,10.7492,10.7298,10.751,10.7606,10.7606,0.0,0.0,10.7606,10.7606,0.0,10.7606,10.7606,10.7606,10.7606,10.7606,10.7606,10.7606,10.7606,10.7981,10.8592,10.8592,10.8878,10.9484,10.9499,10.9899,11.0487,11.0487,11.0886,11.1511,11.1511,11.1511,11.1511,9.3305,9.4047,9.4518,9.4992,9.5093,9.5161,9.5398,9.5466,9.5533,9.577,9.6244,9.6538,9.6545,9.627,9.6487,9.7324,9.7565,9.7947,0.0,9.9081,9.9394,9.9394,9.9722,9.9883,9.9883,9.9883,9.9883,9.9883,0.0,0.0,0.0,9.9967,10.1276,10.3084,10.3892,10.4995,10.6376,10.6376,10.6376,10.6376,10.6376,10.6376,10.6376,10.6376,10.6376,10.6376,10.6376,10.6376,10.6376,10.6376,10.6376,10.6376,10.6376,10.6376,10.6376,10.6376,10.6376,10.6376,10.6376,10.6376,10.6376,10.6376,10.6376,10.6376,10.6376,10.6376,10.6376,10.6376,10.6376,10.6397,10.6518,10.6507,10.659,10.6689,10.6714,0.0,0.0,0.0,0.0,0.0,10.7509,10.7511,10.7606,10.7606,10.7587,10.7492,10.7587,10.7511,10.7376,0.0,0.0,0.0,10.7606,0.0,10.7606,10.7606,10.7606,10.7606,10.7606,10.7606,10.7588,10.8108,10.8406,10.8622,10.9507,10.9983,11.0188,11.0715,11.0996,11.1212,11.1212,11.1302,11.1511,11.1511,11.1511,11.1511,9.4752,9.5127,9.5263,9.5702,9.5804,9.5872,9.6176,9.621,9.6372,9.6764,9.7235,9.7658,9.8143,9.7793,9.778,9.8436,9.8646,9.9028,9.9592,9.9831,9.9883,9.9883,9.9883,9.9883,9.9883,9.9883,0.0,9.9883,9.9883,10.0079,10.0529,10.1209,10.2313,10.3711,10.4391,10.5288,10.6376,10.6376,10.6376,10.6376,10.6376,10.6376,10.6376,10.6376,10.6376,10.6376,10.6376,10.6376,10.6376,10.6376,10.6376,10.6376,10.6376,10.6376,10.6376,10.6376,10.6376,10.6376,10.6376,10.6376,10.6376,10.6376,10.6376,10.6376,10.6376,10.6376,10.6376,10.6376,10.6376,10.6376,10.6376,10.6497,10.6486,10.659,10.671,10.6796,10.6998,0.0,0.0,0.0,0.0,0.0,10.7606,10.7606,10.7606,10.7606,10.7606,10.7474,10.7396,0.0,10.7606,10.7606,10.7606,0.0,10.7606,10.7606,10.7606,10.7606,10.7606,10.7702,10.8017,10.8386,10.8893,10.9394,11.0197,11.0614,11.0898,11.1314,11.1511,11.1511,11.1511,11.1511,11.1511,11.1511,11.1511,11.1511,9.5626,9.5872,9.5872,9.5939,9.5939,9.6176,9.6883,9.6985,9.7343,9.836,9.8523,9.8765,9.9426,9.9485,9.9514,9.9514,9.9514,9.9626,9.9883,9.9883,9.9883,9.9883,9.9883,9.9883,9.9883,9.9883,9.9883,9.9883,9.997,10.0494,10.15,10.1581,10.2716,10.4706,10.4706,10.5288,10.6376,10.6376,10.6376,10.6376,10.6376,10.6376,10.6376,10.6376,10.6376,10.6376,10.6376,10.6376,10.6376,10.6376,10.6376,10.6376,10.6376,10.6376,10.6376,10.6376,10.6376,10.6376,10.6376,10.6376,10.6376,10.6376,10.6376,10.6376,10.6376,10.6376,10.6376,10.6376,10.6376,10.6376,10.6376,10.6601,10.6677,10.6901,10.7101,10.7318,10.7494,0.0,0.0,10.7606,10.7606,0.0,0.0,10.7606,10.7606,10.7606,10.7606,10.7606,10.7606,0.0,10.7606,10.7606,10.7606,10.7606,10.7606,10.7606,10.7606,10.7606,10.7606,10.8018,10.8609,10.8606,10.9287,11.05,11.05,11.091,11.1511,11.1511,11.1511,11.1511,11.1511,11.1511,11.1511,11.1511,11.1511,11.1511,9.6484,9.6646,9.6819,9.7394,9.7495,9.7529,9.7698,9.7947,9.8228,9.8459,9.8705,9.9039,9.9455,9.9485,9.9602,9.9802,9.9831,9.9825,9.9883,9.9883,9.9883,9.9883,9.9883,9.9883,9.9883,9.9883,9.9883,9.9883,10.0718,10.1299,10.1492,10.2304,10.3382,10.4706,10.4706,10.5288,10.6376,10.6376,10.6376,10.6376,10.6376,10.6376,10.6376,10.6376,10.6376,10.6376,10.6376,10.6376,10.6376,10.6376,10.6376,10.6376,10.6376,10.6376,10.6376,10.6376,10.6376,10.6376,10.6376,10.6376,10.6376,10.6376,10.6376,10.6376,10.6376,10.6376,10.6376,10.6376,10.6376,10.6376,10.6376,10.6381,10.6486,10.6714,10.6796,10.6995,10.7298,10.7394,0.0,10.7606,10.7606,10.7606,10.7606,10.7606,10.7606,0.0,10.7606,10.7606,10.7606,10.7606,10.7606,10.7606,10.7606,10.7606,10.7606,10.7606,10.7606,10.7606,10.7606,10.8018,10.8589,10.9113,10.9704,11.0487,11.0993,11.1413,11.1511,11.1511,11.1511,11.1511,11.1511,11.1511,11.1511,11.1511,11.1511,11.1511,9.7326,9.7394,9.7529,9.7935,9.8003,9.8003,9.8003,9.8279,9.8553,9.8705,9.9039,9.9337,9.9626,9.9685,9.9743,9.9883,9.9883,9.9883,9.9883,9.9883,9.9883,9.9883,9.9883,9.9883,9.9883,9.9883,10.0102,10.0606,10.1201,10.1999,10.3005,10.3601,10.4391,10.5494,10.5494,10.5794,10.6376,10.6376,10.6376,10.6376,10.6376,10.6376,10.6376,10.6376,10.6376,10.6376,10.6376,10.6376,10.6376,10.6376,10.6376,10.6376,10.6376,10.6376,10.6376,10.6376,10.6376,10.6376,10.6376,10.6376,10.6376,10.6376,10.6376,10.6376,10.6376,10.6376,10.6376,10.6376,10.6376,10.6376,10.6376,10.6376,10.6502,10.6812,10.6779,10.7015,10.7394,10.7415,0.0,10.7606,10.7606,10.7606,10.7606,10.7606,10.7606,10.7606,10.7606,10.7702,10.7997,10.809,10.7888,10.7588,10.7606,10.7606,10.7606,10.7606,10.7606,10.7625,10.7926,10.8386,10.899,10.9684,11.0306,11.0984,11.1286,11.1511,11.1511,11.1511,11.1511,11.1511,11.1511,11.1511,11.1511,11.1511,11.1511,11.1511,9.8003,9.8003,9.8003,9.8003,9.8003,9.8003,9.8003,9.834,9.8675,9.898,9.9337,9.9661,9.9889,9.9883,9.9883,9.9883,9.9883,9.9883,9.9883,9.9883,9.9883,9.9883,9.9883,9.9883,9.9883,9.9883,10.0416,10.15,10.1724,10.2802,10.4706,10.4903,10.5494,10.6376,10.6376,10.6376,10.6376,10.6376,10.6376,10.6376,10.6376,10.6376,10.6376,10.6376,10.6376,10.6376,10.6376,10.6376,10.6376,10.6376,10.6376,10.6376,10.6376,10.6376,10.6376,10.6376,10.6376,10.6376,10.6376,10.6376,10.6376,10.6376,10.6376,10.6376,10.6376,10.6376,10.6376,10.6376,10.6376,10.6376,10.6376,10.6376,10.6486,10.6901,10.7019,10.7121,10.7511,0.0,10.7606,10.7606,10.7606,10.7606,10.7606,10.7606,10.7589,10.7721,10.7796,10.7997,10.869,10.8685,10.851,10.7888,10.7907,10.7907,10.7907,10.7907,10.7907,10.7907,10.851,10.9097,10.9699,11.0201,11.0901,11.1511,11.1511,11.1511,11.1511,11.1511,11.1511,11.1511,11.1511,11.1511,11.1511,11.1511,11.1511,11.1511,9.8003,9.8003,9.8003,9.8003,9.8003,9.8003,9.8003,9.8523,9.895,9.898,9.948,9.9825,9.9883,9.9883,9.9883,9.9883,9.9883,9.9883,9.9883,9.9883,9.9883,9.9883,9.9883,9.9883,9.9883,9.9883,10.0416,10.15,10.2382,10.3527,10.4693,10.5707,10.6212,10.6376,10.6376,10.6376,10.6376,10.6376,10.6376,10.6376,10.6376,10.6376,10.6376,10.6376,10.6376,10.6376,10.6376,10.6376,10.6376,10.6376,10.6376,10.6376,10.6376,10.6376,10.6376,10.6376,10.6376,10.6376,10.6376,10.6376,10.6376,10.6376,10.6376,10.6376,10.6376,10.6376,10.6376,10.6376,10.6376,10.6376,10.6376,10.6376,10.6486,10.6901,10.7019,10.7121,10.7511,0.0,10.7606,10.7606,10.7606,10.7606,10.7606,10.7606,10.7796,10.8386,10.8383,10.8706,10.9318,10.9386,10.9303,10.9195,10.9195,10.9195,10.9195,10.9195,10.9195,10.9195,10.9303,10.9675,11.0294,11.0499,11.0901,11.1511,11.1511,11.1511,11.1511,11.1511,11.1511,11.1511,11.1511,11.1511,11.1511,11.1511,11.1511,11.1511,9.8003,9.8003,9.8003,9.8003,9.8003,9.8003,9.8003,9.8588,9.9009,9.9009,9.9539,9.9883,9.9883,9.9883,9.9883,9.9883,9.9883,9.9883,9.9883,9.9883,9.9883,9.9883,9.9883,9.9883,9.9883,9.9883,10.0416,10.15,10.2598,10.3602,10.4693,10.5874,10.6376,10.6376,10.6376,10.6376,10.6376,10.6376,10.6376,10.6376,10.6376,10.6376,10.6376,10.6376,10.6376,10.6376,10.6376,10.6376,10.6376,10.6376,10.6376,10.6376,10.6376,10.6376,10.6376,10.6376,10.6376,10.6376,10.6376,10.6376,10.6376,10.6376,10.6376,10.6376,10.6376,10.6376,10.6376,10.6376,10.6376,10.6376,10.6376,10.6376,10.6486,10.6901,10.7019,0.0,0.0,10.7606,10.7606,10.7606,10.7606,10.7606,10.7606,10.7888,10.8303,10.8613,10.892,10.9424,10.9997,10.9987,11.0212,11.0589,10.9885,10.9499,10.9499,10.9499,10.9499,10.9499,10.9909,11.0212,11.0513,11.0913,11.1197,11.1511,11.1511,11.1511,11.1511,11.1511,11.1511,11.1511,11.1511,11.1511,11.1511,11.1511,11.1511,11.1511,9.8003,9.8003,9.8003,9.8003,9.8003,9.8003,9.8003,9.8588,9.9009,9.9009,9.9539,9.9883,9.9883,9.9883,9.9883,9.9883,9.9883,9.9883,9.9883,9.9883,9.9883,9.9883,9.9883,9.9883,9.9883,9.9883,10.0522,10.1902,10.269,10.3795,10.5108,10.6019,10.6376,10.6376,10.6376,10.6376,10.6376,10.6376,10.6376,10.6376,10.6376,10.6376,10.6376,10.6376,10.6376,10.6376,10.6376,10.6376,10.6376,10.6376,10.6376,10.6376,10.6376,10.6376,10.6376,10.6376,10.6376,10.6376,10.6376,10.6376,10.6376,10.6376,10.6376,10.6376,10.6376,10.6376,10.6376,10.6376,10.6376,10.6376,10.6376,10.6381,10.6585,10.6901,0.0,0.0,0.0,10.7606,10.7606,10.7606,10.7606,10.7701,10.7815,10.8301,10.8706,10.8996,10.9492,11.0025,11.0689,11.0676,11.0984,11.15,11.05,11.0007,11.0007,11.0007,11.0007,11.0007,11.0487,11.0676,11.0701,11.1319,11.1511,11.1511,11.1511,11.1511,11.1511,11.1511,11.1511,11.1511,11.1511,11.1511,11.1511,11.1511,11.1511,11.1511,9.8003,9.8003,9.8003,9.8003,9.8003,9.8003,9.8003,9.8588,9.9009,9.9009,9.9539,9.9883,9.9883,9.9883,9.9883,9.9883,9.9883,9.9883,9.9883,9.9883,9.9883,9.9883,9.9883,9.9883,9.9883,9.9883,10.0906,10.3005,10.3105,10.4215,10.6291,10.6391,10.6376,10.6376,10.6376,10.6376,10.6376,10.6376,10.6376,10.6376,10.6376,10.6376,10.6376,10.6376,10.6376,10.6376,10.6376,10.6376,10.6376,10.6376,10.6376,10.6376,10.6376,10.6376,10.6376,10.6376,10.6376,10.6376,10.6376,10.6376,10.6376,10.6376,10.6376,10.6376,10.6376,10.6376,10.6376,10.6376,10.6376,10.6376,10.6376,10.6601,10.6677,10.7015,0.0,0.0,10.7587,10.7606,10.7606,10.7606,10.7606,10.7796,10.8493,10.8613,10.9097,11.0304,11.0409,11.0714,11.1396,11.1391,11.1401,11.1511,11.1407,11.1413,11.1413,11.1413,11.1413,11.1413,11.1407,11.1391,11.1391,11.15,11.1511,11.1511,11.1511,11.1511,11.1511,11.1511,11.1511,11.1511,11.1511,11.1511,11.1511,11.1511,11.1511,11.1511,9.8003,9.8003,9.8003,9.8003,9.8003,9.8003,9.8003,9.8588,9.9009,9.9009,9.9539,9.9883,9.9883,9.9883,9.9883,9.9883,9.9883,9.9883,9.9883,9.9883,9.9883,9.9883,9.9883,9.9883,9.9883,9.9883,10.0606,10.2104,10.2802,10.3928,10.5383,10.6084,10.6376,10.6376,10.6376,10.6376,10.6376,10.6376,10.6376,10.6376,10.6376,10.6376,10.6376,10.6376,10.6376,10.6376,10.6376,10.6376,10.6376,10.6376,10.6376,10.6376,10.6376,10.6376,10.6376,10.6376,10.6376,10.6376,10.6376,10.6376,10.6376,10.6376,10.6376,10.6376,10.6376,10.6376,10.6376,10.6376,10.6376,10.6376,10.6376,10.6497,10.659,10.6921,0.0,10.72,10.7605,10.7606,10.7606,10.7606,10.7981,10.8281,10.8613,10.9295,10.9993,11.0499,11.0913,11.1208,11.1511,11.1511,11.1511,11.1511,11.1511,11.1511,11.1511,11.1511,11.1511,11.1511,11.1511,11.1511,11.1511,11.1511,11.1511,11.1511,11.1511,11.1511,11.1511,11.1511,11.1511,11.1511,11.1511,11.1511,11.1511,11.1511,11.1511,11.1511,9.8003,9.8003,9.8003,9.8003,9.8095,9.8157,9.8157,9.8739,9.9159,9.9159,9.9597,9.9883,9.9883,9.9883,9.9883,9.9883,9.9883,9.9883,9.9883,9.9883,9.9883,9.9883,9.9883,9.9883,9.9883,10.0188,10.0906,10.1999,10.3105,10.4191,10.5293,10.6318,10.6801,10.6801,10.7,10.7205,10.7205,10.7205,10.7205,10.7205,10.7205,10.7205,10.7205,10.7205,10.7,10.6801,10.6801,10.6596,10.6376,10.6376,10.6376,10.6376,10.6376,10.6376,10.6376,10.6376,10.6376,10.6376,10.6376,10.6376,10.6376,10.6376,10.6376,10.6376,10.6376,10.6376,10.6376,10.6376,10.6376,10.6376,10.6376,10.6502,10.6689,10.7015,10.7081,10.7296,10.7624,10.7606,10.772,10.7889,10.8281,10.8777,10.9214,11.0007,11.0602,11.0814,11.1219,11.1511,11.1511,11.1511,11.1511,11.1511,11.1511,11.1511,11.1511,11.1511,11.1511,11.1511,11.1511,11.1511,11.1511,11.1511,11.1511,11.1511,11.1511,11.1511,11.1511,11.1511,11.1511,11.1511,11.1511,11.1511,11.1511,11.1511,11.1511,11.1511,9.8003,9.8003,9.8003,9.8003,9.8279,9.8493,9.8493,9.9065,9.9485,9.9485,9.9743,9.9883,9.9883,9.9883,9.9883,9.9883,9.9883,9.9883,9.9883,9.9883,9.9883,9.9883,9.9883,9.9883,9.9912,10.0996,10.199,10.3095,10.4179,10.5279,10.6413,10.7205,10.7609,10.7609,10.8395,10.8799,10.8799,10.8799,10.8799,10.8799,10.8799,10.8799,10.8799,10.8799,10.8285,10.7609,10.7609,10.7095,10.6376,10.6376,10.6376,10.6376,10.6376,10.6376,10.6376,10.6376,10.6376,10.6376,10.6376,10.6376,10.6376,10.6376,10.6376,10.6376,10.6376,10.6376,10.6376,10.6376,10.6376,10.6376,10.6376,10.6714,10.7019,10.7019,10.7318,10.7606,10.7606,10.7606,10.7796,10.8507,10.8609,10.9076,11.0396,11.05,11.0802,11.1401,11.1511,11.1511,11.1511,11.1511,11.1511,11.1511,11.1511,11.1511,11.1511,11.1511,11.1511,11.1511,11.1511,11.1511,11.1511,11.1511,11.1511,11.1511,11.1511,11.1511,11.1511,11.1511,11.1511,11.1511,11.1511,11.1511,11.1511,11.1511,11.1511,11.1511,9.8003,9.8003,9.8003,9.8003,9.8279,9.8493,9.8493,9.9065,9.9485,9.9485,9.9743,9.9883,9.9883,9.9883,9.9883,9.9883,9.9883,9.9883,9.9883,9.9883,9.9883,9.9883,9.9883,10.0314,10.0989,10.1311,10.2417,10.419,10.5182,10.6212,10.7315,10.8123,10.8395,10.8505,10.8688,10.8799,10.8799,10.8799,10.8799,10.8799,10.8799,10.8799,10.8799,10.8799,10.8688,10.8395,10.8395,10.7881,10.7205,10.7205,10.6911,10.6376,10.6376,10.6376,10.6376,10.6376,10.6376,10.6376,10.6376,10.6376,10.6376,10.6376,10.6376,10.6376,10.6376,10.6376,10.6376,10.6376,10.6376,10.6376,10.6376,10.6627,10.6779,10.6978,10.72,10.7415,10.7587,10.7606,10.7796,10.8507,10.9001,10.9582,11.0384,11.091,11.1291,11.15,11.1511,11.1511,11.1511,11.1511,11.1511,11.1511,11.1511,11.1511,11.1511,11.1511,11.1511,11.1511,11.1511,11.1511,11.1511,11.1511,11.1511,11.1511,11.1511,11.1511,11.1511,11.1511,11.1511,11.1511,11.1511,11.1511,11.1511,11.1511,11.1511,11.1511,9.8003,9.8003,9.8003,9.8003,9.8371,9.8705,9.8705,9.9243,9.9656,9.9656,9.9802,9.9883,9.9883,9.9883,9.9883,9.9883,9.9883,9.9883,9.9883,9.9883,9.9883,9.9883,9.9883,10.0387,10.1473,10.192,10.3112,10.5213,10.6207,10.7116,10.8123,10.8909,10.9276,10.9276,10.9606,10.9716,10.9716,10.9716,10.9716,10.9716,10.9716,10.9716,10.9716,10.9716,10.9606,10.9276,10.9276,10.882,10.7991,10.7719,10.7095,10.6376,10.6376,10.6376,10.6376,10.6376,10.6376,10.6376,10.6376,10.6376,10.6376,10.6376,10.6376,10.6376,10.6376,10.6376,10.6376,10.6376,10.6376,10.6376,10.6376,10.659,10.6894,10.6998,10.722,10.7509,10.7606,10.7606,10.7925,10.878,10.9295,10.9923,11.0814,11.1307,11.1511,11.1511,11.1511,11.1511,11.1511,11.1511,11.1511,11.1511,11.1511,11.1511,11.1511,11.1511,11.1511,11.1511,11.1511,11.1511,11.1511,11.1511,11.1511,11.1511,11.1511,11.1511,11.1511,11.1511,11.1511,11.1511,11.1511,11.1511,11.1511,11.1511,11.1511,11.1511,9.8003,9.8003,9.8003,9.8003,9.8523,9.898,9.898,9.9509,9.9883,9.9854,9.9883,9.9883,9.9883,9.9883,9.9883,9.9883,9.9883,9.9883,9.9883,9.9883,9.9883,9.9883,9.9999,10.0592,10.1705,10.2695,10.4225,10.6114,10.7307,10.8196,10.8909,10.9679,11.0083,11.0083,11.0891,11.1221,11.1221,11.1221,11.1221,11.1221,11.1221,11.1221,11.1221,11.1221,11.0707,11.0083,11.0083,10.9606,10.8799,10.7902,10.7095,10.6376,10.6376,10.6376,10.6376,10.6376,10.6376,10.6376,10.6376,10.6376,10.6376,10.6376,10.6376,10.6376,10.6376,10.6376,10.6376,10.6376,10.6376,10.6397,10.6397,10.6698,10.7019,10.7002,10.7281,10.7606,10.7606,10.7606,10.8107,10.9311,10.9499,11.0025,11.1385,11.1511,11.1511,11.1511,11.1511,11.1511,11.1511,11.1511,11.1511,11.1511,11.1511,11.1511,11.1511,11.1511,11.1511,11.1511,11.1511,11.1511,11.1511,11.1511,11.1511,11.1511,11.1511,11.1511,11.1511,11.1511,11.1511,11.1511,11.1511,11.1511,11.1511,11.1511,11.1511,11.1511,9.8003,9.8003,9.8003,9.8003,9.8523,9.892,9.8644,9.9328,9.9831,9.9597,9.9772,9.9883,9.9883,9.9883,9.9883,9.9883,9.9883,9.9883,9.9883,9.9883,9.9883,9.9883,10.069,10.2005,10.3701,10.3921,10.5104,10.7307,10.8712,10.9591,10.9811,11.0597,11.0891,11.0891,11.1111,11.1221,11.1221,11.1221,11.1221,11.1221,11.1221,11.1221,11.1221,11.1221,11.1111,11.0891,11.0891,11.0414,10.9496,10.8086,10.7095,10.6376,10.6376,10.6376,10.6376,10.6376,10.6376,10.6376,10.6376,10.6376,10.6376,10.6376,10.6376,10.6376,10.6376,10.6376,10.6376,10.6376,10.6376,10.6402,10.6606,10.6779,10.7096,10.7181,10.7415,10.7606,10.7606,10.7606,10.8107,10.9311,10.9499,11.0025,11.1385,11.1511,11.1511,11.1511,11.1511,11.1511,11.1511,11.1511,11.1511,11.1511,11.1511,11.1511,11.1511,11.1511,11.1511,11.1511,11.1511,11.1511,11.1511,11.1511,11.1511,11.1511,11.1511,11.1511,11.1511,11.1511,11.1511,11.1511,11.1511,11.1511,11.1511,11.1511,11.1511,11.1511,9.8003,9.8003,9.8003,9.8003,9.8523,9.895,9.8769,9.9421,9.9825,9.9714,9.9831,9.9883,9.9883,9.9883,9.9883,9.9883,9.9883,9.9883,9.9883,9.9883,9.9883,9.9883,10.0906,10.2414,10.4308,10.5192,10.6698,10.871,10.9591,11.0193,11.0597,11.1001,11.1221,11.1221,11.1221,11.1221,11.1221,11.1221,11.1221,11.1221,11.1221,11.1221,11.1221,11.1221,11.1221,11.1221,11.1221,11.0707,10.9811,10.86,10.7587,10.6911,10.6486,10.6376,10.6376,10.6376,10.6376,10.6376,10.6376,10.6376,10.6376,10.6376,10.6376,10.6376,10.6376,10.6376,10.6376,10.6376,10.6497,10.6622,10.6689,10.6901,10.7198,10.7296,10.7491,10.7606,10.7606,10.7606,10.8107,10.9311,10.9499,11.0025,11.1385,11.1511,11.1511,11.1511,11.1511,11.1511,11.1511,11.1511,11.1511,11.1511,11.1511,11.1511,11.1511,11.1511,11.1511,11.1511,11.1511,11.1511,11.1511,11.1511,11.1511,11.1511,11.1511,11.1511,11.1511,11.1511,11.1511,11.1511,11.1511,11.1511,11.1511,11.1511,11.1511,11.1511,9.8003,9.8003,9.8003,9.8003,9.8523,9.898,9.892,9.948,9.9883,9.986,9.9854,9.9883,9.9883,9.9883,9.9883,9.9883,9.9883,9.9883,9.9883,9.9883,9.9883,9.9883,10.1204,10.2775,10.4487,10.6607,10.841,10.9995,11.0083,11.0487,11.1221,11.1221,11.1221,11.1221,11.1221,11.1221,11.1221,11.1221,11.1221,11.1221,11.1221,11.1221,11.1221,11.1221,11.1221,11.1221,11.1221,11.0707,10.9922,10.9092,10.8306,10.7498,10.6691,10.6376,10.6376,10.6376,10.6376,10.6376,10.6376,10.6376,10.6376,10.6376,10.6376,10.6376,10.6376,10.6376,10.6397,10.6381,10.6585,10.6693,10.6812,10.7116,10.7279,10.7281,10.751,10.7606,10.7606,10.7702,10.8213,10.9402,10.969,11.0317,11.1407,11.1511,11.1511,11.1511,11.1511,11.1511,11.1511,11.1511,11.1511,11.1511,11.1511,11.1511,11.1511,11.1511,11.1511,11.1511,11.1511,11.1511,11.1511,11.1511,11.1511,11.1511,11.1511,11.1511,11.1511,11.1511,11.1511,11.1511,11.1511,11.1511,11.1511,11.1511,11.1511,11.1511,9.8003,9.8003,9.8003,9.8003,9.8523,9.892,9.8614,9.9328,9.9831,9.9602,9.9772,9.9883,9.9883,9.9883,9.9883,9.9883,9.9883,9.9883,9.9883,9.9883,9.9883,9.9883,10.2483,10.4395,10.542,10.8197,10.9717,10.9995,11.0707,11.1111,11.1221,11.1221,11.1221,11.1221,11.1221,11.1221,11.1221,11.1221,11.1221,11.1221,11.1221,11.1221,11.1221,11.1221,11.1221,11.1221,11.1221,11.0707,10.9922,10.9092,10.8306,10.7498,10.6691,10.6376,10.6376,10.6376,10.6376,10.6376,10.6376,10.6376,10.6376,10.6376,10.6376,10.6376,10.6376,10.6376,10.6402,10.659,10.6689,10.6776,10.7195,10.7314,10.7412,10.7511,10.7606,10.7606,10.7606,10.8107,10.8723,10.9409,11.0513,11.1302,11.15,11.1511,11.1511,11.1511,11.1511,11.1511,11.1511,11.1511,11.1511,11.1511,11.1511,11.1511,11.1511,11.1511,11.1511,11.1511,11.1511,11.1511,11.1511,11.1511,11.1511,11.1511,11.1511,11.1511,11.1511,11.1511,11.1511,11.1511,11.1511,11.1511,11.1511,11.1511,11.1511,11.1511,9.8003,9.8003,9.8003,9.8003,9.8523,9.895,9.8829,9.9421,9.9889,9.9743,9.9831,9.9883,9.9883,9.9883,9.9883,9.9883,9.9883,9.9883,9.9883,9.9883,9.9883,9.9883,10.2714,10.469,10.5598,10.8518,11.0193,11.0707,11.1001,11.1221,11.1221,11.1221,11.1221,11.1221,11.1221,11.1221,11.1221,11.1221,11.1221,11.1221,11.1221,11.1221,11.1221,11.1221,11.1221,11.1221,11.1221,11.1001,11.0487,10.9716,10.8909,10.8101,10.7315,10.6801,10.6376,10.6376,10.6376,10.6376,10.6376,10.6376,10.6376,10.6376,10.6518,10.6601,10.6601,10.6705,10.6714,10.671,10.6914,10.7099,10.7277,10.7413,10.751,10.7606,10.7606,10.7702,10.8107,10.8386,10.9007,10.9903,11.0898,11.1511,11.1511,11.1511,11.1511,11.1511,11.1511,11.1511,11.1511,11.1511,11.1511,11.1511,11.1511,11.1511,11.1511,11.1511,11.1511,11.1511,11.1511,11.1511,11.1511,11.1511,11.1511,11.1511,11.1511,11.1511,11.1511,11.1511,11.1511,11.1511,11.1511,11.1511,11.1511,11.1511,11.1511,11.1511]}]]